<?xml version="1.0" encoding="UTF-8" standalone="no" ?>
<gpx xmlns="http://www.topografix.com/GPX/1/1" xmlns:xsi="http://www.w3.org/2001/XMLSchema-instance" xsi:schemaLocation="http://www.topografix.com/GPX/1/1 http://www.topografix.com/GPX/1/1/gpx.xsd" version="1.1" creator="VisuGPX - https://www.visugpx.com">
  <metadata>
    <name>Moulibez - Castelmus</name>
    <desc><![CDATA[Rando facile]]></desc>
  </metadata>
  <trk>
    <name><![CDATA[12 déc. 2013 13:49:51]]></name>
    <cmt><![CDATA[12 déc. 2013 13:49:51]]></cmt>
    <trkseg>
      <trkpt lat="44.13949" lon="2.96448">
        <ele>568</ele>
        <time>2013-12-12T12:49:51Z</time>
      </trkpt>
      <trkpt lat="44.13948" lon="2.96444">
        <ele>566</ele>
        <time>2013-12-12T12:50:00Z</time>
      </trkpt>
      <trkpt lat="44.1395" lon="2.9644">
        <ele>561</ele>
        <time>2013-12-12T12:50:13Z</time>
      </trkpt>
      <trkpt lat="44.13952" lon="2.96438">
        <ele>560</ele>
        <time>2013-12-12T12:50:20Z</time>
      </trkpt>
      <trkpt lat="44.13956" lon="2.96439">
        <ele>550</ele>
        <time>2013-12-12T12:50:42Z</time>
      </trkpt>
      <trkpt lat="44.13958" lon="2.96441">
        <ele>547</ele>
        <time>2013-12-12T12:50:53Z</time>
      </trkpt>
      <trkpt lat="44.13962" lon="2.96438">
        <ele>545</ele>
        <time>2013-12-12T12:50:56Z</time>
      </trkpt>
      <trkpt lat="44.13966" lon="2.96436">
        <ele>540</ele>
        <time>2013-12-12T12:51:05Z</time>
      </trkpt>
      <trkpt lat="44.13962" lon="2.96433">
        <ele>541</ele>
        <time>2013-12-12T12:51:52Z</time>
      </trkpt>
      <trkpt lat="44.13961" lon="2.96439">
        <ele>542</ele>
        <time>2013-12-12T12:52:28Z</time>
      </trkpt>
      <trkpt lat="44.13957" lon="2.96441">
        <ele>541</ele>
        <time>2013-12-12T12:52:34Z</time>
      </trkpt>
      <trkpt lat="44.13955" lon="2.96435">
        <ele>540</ele>
        <time>2013-12-12T12:52:49Z</time>
      </trkpt>
      <trkpt lat="44.13961" lon="2.96432">
        <ele>540</ele>
        <time>2013-12-12T12:53:01Z</time>
      </trkpt>
      <trkpt lat="44.13965" lon="2.96436">
        <ele>540</ele>
        <time>2013-12-12T12:53:10Z</time>
      </trkpt>
      <trkpt lat="44.13961" lon="2.96441">
        <ele>540</ele>
        <time>2013-12-12T12:53:13Z</time>
      </trkpt>
      <trkpt lat="44.13958" lon="2.96447">
        <ele>539</ele>
        <time>2013-12-12T12:53:18Z</time>
      </trkpt>
      <trkpt lat="44.13963" lon="2.96448">
        <ele>539</ele>
        <time>2013-12-12T12:53:23Z</time>
      </trkpt>
      <trkpt lat="44.13961" lon="2.9645">
        <ele>538</ele>
        <time>2013-12-12T12:53:40Z</time>
      </trkpt>
      <trkpt lat="44.13956" lon="2.96452">
        <ele>538</ele>
        <time>2013-12-12T12:53:44Z</time>
      </trkpt>
      <trkpt lat="44.13958" lon="2.96454">
        <ele>541</ele>
        <time>2013-12-12T12:54:51Z</time>
      </trkpt>
      <trkpt lat="44.13957" lon="2.96465">
        <ele>541</ele>
        <time>2013-12-12T12:55:12Z</time>
      </trkpt>
      <trkpt lat="44.13958" lon="2.9648">
        <ele>543</ele>
        <time>2013-12-12T12:55:21Z</time>
      </trkpt>
      <trkpt lat="44.1396" lon="2.96495">
        <ele>544</ele>
        <time>2013-12-12T12:55:27Z</time>
      </trkpt>
      <trkpt lat="44.13961" lon="2.9651">
        <ele>544</ele>
        <time>2013-12-12T12:55:31Z</time>
      </trkpt>
      <trkpt lat="44.13963" lon="2.96521">
        <ele>545</ele>
        <time>2013-12-12T12:55:35Z</time>
      </trkpt>
      <trkpt lat="44.1396" lon="2.96532">
        <ele>545</ele>
        <time>2013-12-12T12:55:49Z</time>
      </trkpt>
      <trkpt lat="44.13951" lon="2.96539">
        <ele>545</ele>
        <time>2013-12-12T12:55:58Z</time>
      </trkpt>
      <trkpt lat="44.13947" lon="2.96546">
        <ele>545</ele>
        <time>2013-12-12T12:56:03Z</time>
      </trkpt>
      <trkpt lat="44.13944" lon="2.96553">
        <ele>545</ele>
        <time>2013-12-12T12:56:08Z</time>
      </trkpt>
      <trkpt lat="44.13941" lon="2.9656">
        <ele>545</ele>
        <time>2013-12-12T12:56:14Z</time>
      </trkpt>
      <trkpt lat="44.13941" lon="2.96567">
        <ele>547</ele>
        <time>2013-12-12T12:56:18Z</time>
      </trkpt>
      <trkpt lat="44.13942" lon="2.96575">
        <ele>548</ele>
        <time>2013-12-12T12:56:23Z</time>
      </trkpt>
      <trkpt lat="44.13942" lon="2.96581">
        <ele>549</ele>
        <time>2013-12-12T12:56:27Z</time>
      </trkpt>
      <trkpt lat="44.13939" lon="2.96587">
        <ele>550</ele>
        <time>2013-12-12T12:56:31Z</time>
      </trkpt>
      <trkpt lat="44.13941" lon="2.96594">
        <ele>552</ele>
        <time>2013-12-12T12:56:35Z</time>
      </trkpt>
      <trkpt lat="44.13943" lon="2.966">
        <ele>553</ele>
        <time>2013-12-12T12:56:41Z</time>
      </trkpt>
      <trkpt lat="44.13941" lon="2.96607">
        <ele>553</ele>
        <time>2013-12-12T12:56:46Z</time>
      </trkpt>
      <trkpt lat="44.13939" lon="2.96614">
        <ele>553</ele>
        <time>2013-12-12T12:56:52Z</time>
      </trkpt>
      <trkpt lat="44.13938" lon="2.9662">
        <ele>554</ele>
        <time>2013-12-12T12:56:58Z</time>
      </trkpt>
      <trkpt lat="44.13935" lon="2.96632">
        <ele>555</ele>
        <time>2013-12-12T12:57:10Z</time>
      </trkpt>
      <trkpt lat="44.13935" lon="2.96641">
        <ele>556</ele>
        <time>2013-12-12T12:57:14Z</time>
      </trkpt>
      <trkpt lat="44.13934" lon="2.96648">
        <ele>556</ele>
        <time>2013-12-12T12:57:17Z</time>
      </trkpt>
      <trkpt lat="44.13935" lon="2.96654">
        <ele>556</ele>
        <time>2013-12-12T12:57:21Z</time>
      </trkpt>
      <trkpt lat="44.13937" lon="2.96662">
        <ele>557</ele>
        <time>2013-12-12T12:57:24Z</time>
      </trkpt>
      <trkpt lat="44.13936" lon="2.96674">
        <ele>557</ele>
        <time>2013-12-12T12:57:31Z</time>
      </trkpt>
      <trkpt lat="44.13938" lon="2.96682">
        <ele>558</ele>
        <time>2013-12-12T12:57:35Z</time>
      </trkpt>
      <trkpt lat="44.13938" lon="2.9669">
        <ele>559</ele>
        <time>2013-12-12T12:57:39Z</time>
      </trkpt>
      <trkpt lat="44.13937" lon="2.96696">
        <ele>560</ele>
        <time>2013-12-12T12:57:43Z</time>
      </trkpt>
      <trkpt lat="44.13936" lon="2.96703">
        <ele>561</ele>
        <time>2013-12-12T12:57:46Z</time>
      </trkpt>
      <trkpt lat="44.13936" lon="2.96711">
        <ele>562</ele>
        <time>2013-12-12T12:57:50Z</time>
      </trkpt>
      <trkpt lat="44.13936" lon="2.96718">
        <ele>562</ele>
        <time>2013-12-12T12:57:54Z</time>
      </trkpt>
      <trkpt lat="44.13934" lon="2.96725">
        <ele>563</ele>
        <time>2013-12-12T12:57:59Z</time>
      </trkpt>
      <trkpt lat="44.13934" lon="2.96733">
        <ele>563</ele>
        <time>2013-12-12T12:58:02Z</time>
      </trkpt>
      <trkpt lat="44.13935" lon="2.96739">
        <ele>563</ele>
        <time>2013-12-12T12:58:05Z</time>
      </trkpt>
      <trkpt lat="44.13935" lon="2.96747">
        <ele>564</ele>
        <time>2013-12-12T12:58:08Z</time>
      </trkpt>
      <trkpt lat="44.13933" lon="2.96753">
        <ele>564</ele>
        <time>2013-12-12T12:58:12Z</time>
      </trkpt>
      <trkpt lat="44.13932" lon="2.9676">
        <ele>564</ele>
        <time>2013-12-12T12:58:17Z</time>
      </trkpt>
      <trkpt lat="44.13931" lon="2.96767">
        <ele>564</ele>
        <time>2013-12-12T12:58:22Z</time>
      </trkpt>
      <trkpt lat="44.1393" lon="2.96774">
        <ele>564</ele>
        <time>2013-12-12T12:58:27Z</time>
      </trkpt>
      <trkpt lat="44.13931" lon="2.96781">
        <ele>564</ele>
        <time>2013-12-12T12:58:31Z</time>
      </trkpt>
      <trkpt lat="44.1393" lon="2.96788">
        <ele>564</ele>
        <time>2013-12-12T12:58:35Z</time>
      </trkpt>
      <trkpt lat="44.13929" lon="2.96794">
        <ele>564</ele>
        <time>2013-12-12T12:58:40Z</time>
      </trkpt>
      <trkpt lat="44.13929" lon="2.96801">
        <ele>564</ele>
        <time>2013-12-12T12:58:45Z</time>
      </trkpt>
      <trkpt lat="44.13928" lon="2.96807">
        <ele>563</ele>
        <time>2013-12-12T12:58:50Z</time>
      </trkpt>
      <trkpt lat="44.13924" lon="2.96811">
        <ele>563</ele>
        <time>2013-12-12T12:58:57Z</time>
      </trkpt>
      <trkpt lat="44.13924" lon="2.96819">
        <ele>563</ele>
        <time>2013-12-12T12:59:01Z</time>
      </trkpt>
      <trkpt lat="44.13925" lon="2.96825">
        <ele>563</ele>
        <time>2013-12-12T12:59:04Z</time>
      </trkpt>
      <trkpt lat="44.13924" lon="2.96832">
        <ele>563</ele>
        <time>2013-12-12T12:59:07Z</time>
      </trkpt>
      <trkpt lat="44.13925" lon="2.96839">
        <ele>563</ele>
        <time>2013-12-12T12:59:09Z</time>
      </trkpt>
      <trkpt lat="44.13923" lon="2.96846">
        <ele>564</ele>
        <time>2013-12-12T12:59:13Z</time>
      </trkpt>
      <trkpt lat="44.13923" lon="2.96853">
        <ele>565</ele>
        <time>2013-12-12T12:59:20Z</time>
      </trkpt>
      <trkpt lat="44.13922" lon="2.9686">
        <ele>566</ele>
        <time>2013-12-12T12:59:24Z</time>
      </trkpt>
      <trkpt lat="44.13921" lon="2.96867">
        <ele>566</ele>
        <time>2013-12-12T12:59:29Z</time>
      </trkpt>
      <trkpt lat="44.13921" lon="2.96873">
        <ele>564</ele>
        <time>2013-12-12T12:59:37Z</time>
      </trkpt>
      <trkpt lat="44.13914" lon="2.96873">
        <ele>562</ele>
        <time>2013-12-12T12:59:48Z</time>
      </trkpt>
      <trkpt lat="44.13912" lon="2.9688">
        <ele>558</ele>
        <time>2013-12-12T12:59:58Z</time>
      </trkpt>
      <trkpt lat="44.13909" lon="2.96885">
        <ele>558</ele>
        <time>2013-12-12T13:00:03Z</time>
      </trkpt>
      <trkpt lat="44.13908" lon="2.96892">
        <ele>557</ele>
        <time>2013-12-12T13:00:09Z</time>
      </trkpt>
      <trkpt lat="44.13906" lon="2.96899">
        <ele>557</ele>
        <time>2013-12-12T13:00:15Z</time>
      </trkpt>
      <trkpt lat="44.13903" lon="2.96904">
        <ele>556</ele>
        <time>2013-12-12T13:00:20Z</time>
      </trkpt>
      <trkpt lat="44.13899" lon="2.96908">
        <ele>556</ele>
        <time>2013-12-12T13:00:25Z</time>
      </trkpt>
      <trkpt lat="44.139" lon="2.96915">
        <ele>556</ele>
        <time>2013-12-12T13:00:28Z</time>
      </trkpt>
      <trkpt lat="44.13898" lon="2.96922">
        <ele>555</ele>
        <time>2013-12-12T13:00:33Z</time>
      </trkpt>
      <trkpt lat="44.13895" lon="2.96927">
        <ele>554</ele>
        <time>2013-12-12T13:00:39Z</time>
      </trkpt>
      <trkpt lat="44.13895" lon="2.96935">
        <ele>554</ele>
        <time>2013-12-12T13:00:44Z</time>
      </trkpt>
      <trkpt lat="44.13894" lon="2.96943">
        <ele>555</ele>
        <time>2013-12-12T13:00:48Z</time>
      </trkpt>
      <trkpt lat="44.13894" lon="2.96949">
        <ele>555</ele>
        <time>2013-12-12T13:00:53Z</time>
      </trkpt>
      <trkpt lat="44.13892" lon="2.96958">
        <ele>556</ele>
        <time>2013-12-12T13:00:56Z</time>
      </trkpt>
      <trkpt lat="44.1389" lon="2.96966">
        <ele>556</ele>
        <time>2013-12-12T13:00:59Z</time>
      </trkpt>
      <trkpt lat="44.13887" lon="2.96972">
        <ele>556</ele>
        <time>2013-12-12T13:01:05Z</time>
      </trkpt>
      <trkpt lat="44.13886" lon="2.96978">
        <ele>555</ele>
        <time>2013-12-12T13:01:14Z</time>
      </trkpt>
      <trkpt lat="44.13884" lon="2.96984">
        <ele>555</ele>
        <time>2013-12-12T13:01:17Z</time>
      </trkpt>
      <trkpt lat="44.13881" lon="2.96991">
        <ele>556</ele>
        <time>2013-12-12T13:01:20Z</time>
      </trkpt>
      <trkpt lat="44.1388" lon="2.96998">
        <ele>556</ele>
        <time>2013-12-12T13:01:23Z</time>
      </trkpt>
      <trkpt lat="44.13884" lon="2.97003">
        <ele>558</ele>
        <time>2013-12-12T13:01:28Z</time>
      </trkpt>
      <trkpt lat="44.13888" lon="2.97008">
        <ele>559</ele>
        <time>2013-12-12T13:01:34Z</time>
      </trkpt>
      <trkpt lat="44.13888" lon="2.97016">
        <ele>560</ele>
        <time>2013-12-12T13:01:37Z</time>
      </trkpt>
      <trkpt lat="44.13887" lon="2.97022">
        <ele>561</ele>
        <time>2013-12-12T13:01:42Z</time>
      </trkpt>
      <trkpt lat="44.13885" lon="2.97029">
        <ele>562</ele>
        <time>2013-12-12T13:01:48Z</time>
      </trkpt>
      <trkpt lat="44.13881" lon="2.97037">
        <ele>562</ele>
        <time>2013-12-12T13:01:51Z</time>
      </trkpt>
      <trkpt lat="44.13877" lon="2.9704">
        <ele>562</ele>
        <time>2013-12-12T13:01:54Z</time>
      </trkpt>
      <trkpt lat="44.13872" lon="2.97038">
        <ele>562</ele>
        <time>2013-12-12T13:01:59Z</time>
      </trkpt>
      <trkpt lat="44.13868" lon="2.97035">
        <ele>561</ele>
        <time>2013-12-12T13:02:03Z</time>
      </trkpt>
      <trkpt lat="44.13864" lon="2.9703">
        <ele>560</ele>
        <time>2013-12-12T13:02:06Z</time>
      </trkpt>
      <trkpt lat="44.13859" lon="2.97027">
        <ele>560</ele>
        <time>2013-12-12T13:02:09Z</time>
      </trkpt>
      <trkpt lat="44.13857" lon="2.97021">
        <ele>560</ele>
        <time>2013-12-12T13:02:12Z</time>
      </trkpt>
      <trkpt lat="44.13854" lon="2.97016">
        <ele>559</ele>
        <time>2013-12-12T13:02:26Z</time>
      </trkpt>
      <trkpt lat="44.13849" lon="2.97013">
        <ele>559</ele>
        <time>2013-12-12T13:02:29Z</time>
      </trkpt>
      <trkpt lat="44.13844" lon="2.97011">
        <ele>559</ele>
        <time>2013-12-12T13:02:32Z</time>
      </trkpt>
      <trkpt lat="44.13844" lon="2.97019">
        <ele>560</ele>
        <time>2013-12-12T13:02:36Z</time>
      </trkpt>
      <trkpt lat="44.13844" lon="2.97027">
        <ele>560</ele>
        <time>2013-12-12T13:02:38Z</time>
      </trkpt>
      <trkpt lat="44.13845" lon="2.97033">
        <ele>560</ele>
        <time>2013-12-12T13:02:40Z</time>
      </trkpt>
      <trkpt lat="44.13845" lon="2.97041">
        <ele>560</ele>
        <time>2013-12-12T13:02:43Z</time>
      </trkpt>
      <trkpt lat="44.13844" lon="2.97048">
        <ele>561</ele>
        <time>2013-12-12T13:02:47Z</time>
      </trkpt>
      <trkpt lat="44.13844" lon="2.97055">
        <ele>563</ele>
        <time>2013-12-12T13:02:52Z</time>
      </trkpt>
      <trkpt lat="44.13842" lon="2.97061">
        <ele>564</ele>
        <time>2013-12-12T13:02:58Z</time>
      </trkpt>
      <trkpt lat="44.13839" lon="2.97066">
        <ele>564</ele>
        <time>2013-12-12T13:03:03Z</time>
      </trkpt>
      <trkpt lat="44.13841" lon="2.97074">
        <ele>563</ele>
        <time>2013-12-12T13:03:08Z</time>
      </trkpt>
      <trkpt lat="44.13839" lon="2.97081">
        <ele>564</ele>
        <time>2013-12-12T13:03:14Z</time>
      </trkpt>
      <trkpt lat="44.13838" lon="2.97087">
        <ele>564</ele>
        <time>2013-12-12T13:03:21Z</time>
      </trkpt>
      <trkpt lat="44.13836" lon="2.97095">
        <ele>567</ele>
        <time>2013-12-12T13:03:28Z</time>
      </trkpt>
      <trkpt lat="44.13836" lon="2.97101">
        <ele>568</ele>
        <time>2013-12-12T13:03:35Z</time>
      </trkpt>
      <trkpt lat="44.13833" lon="2.97106">
        <ele>570</ele>
        <time>2013-12-12T13:03:42Z</time>
      </trkpt>
      <trkpt lat="44.13829" lon="2.97112">
        <ele>572</ele>
        <time>2013-12-12T13:03:49Z</time>
      </trkpt>
      <trkpt lat="44.13825" lon="2.97116">
        <ele>574</ele>
        <time>2013-12-12T13:03:54Z</time>
      </trkpt>
      <trkpt lat="44.13825" lon="2.97122">
        <ele>576</ele>
        <time>2013-12-12T13:04:02Z</time>
      </trkpt>
      <trkpt lat="44.13824" lon="2.97126">
        <ele>576</ele>
        <time>2013-12-12T13:04:14Z</time>
      </trkpt>
      <trkpt lat="44.13824" lon="2.97132">
        <ele>575</ele>
        <time>2013-12-12T13:04:21Z</time>
      </trkpt>
      <trkpt lat="44.13822" lon="2.97138">
        <ele>576</ele>
        <time>2013-12-12T13:04:25Z</time>
      </trkpt>
      <trkpt lat="44.13822" lon="2.97145">
        <ele>576</ele>
        <time>2013-12-12T13:04:29Z</time>
      </trkpt>
      <trkpt lat="44.1382" lon="2.97151">
        <ele>577</ele>
        <time>2013-12-12T13:04:35Z</time>
      </trkpt>
      <trkpt lat="44.13819" lon="2.97158">
        <ele>579</ele>
        <time>2013-12-12T13:04:41Z</time>
      </trkpt>
      <trkpt lat="44.13818" lon="2.97167">
        <ele>580</ele>
        <time>2013-12-12T13:04:45Z</time>
      </trkpt>
      <trkpt lat="44.1382" lon="2.97172">
        <ele>582</ele>
        <time>2013-12-12T13:04:50Z</time>
      </trkpt>
      <trkpt lat="44.13821" lon="2.97179">
        <ele>585</ele>
        <time>2013-12-12T13:04:58Z</time>
      </trkpt>
      <trkpt lat="44.13819" lon="2.97186">
        <ele>586</ele>
        <time>2013-12-12T13:05:05Z</time>
      </trkpt>
      <trkpt lat="44.13818" lon="2.97193">
        <ele>586</ele>
        <time>2013-12-12T13:05:12Z</time>
      </trkpt>
      <trkpt lat="44.13814" lon="2.97199">
        <ele>586</ele>
        <time>2013-12-12T13:05:16Z</time>
      </trkpt>
      <trkpt lat="44.1381" lon="2.97204">
        <ele>588</ele>
        <time>2013-12-12T13:05:20Z</time>
      </trkpt>
      <trkpt lat="44.1381" lon="2.97211">
        <ele>590</ele>
        <time>2013-12-12T13:05:26Z</time>
      </trkpt>
      <trkpt lat="44.13807" lon="2.97216">
        <ele>591</ele>
        <time>2013-12-12T13:05:31Z</time>
      </trkpt>
      <trkpt lat="44.13808" lon="2.97223">
        <ele>592</ele>
        <time>2013-12-12T13:05:37Z</time>
      </trkpt>
      <trkpt lat="44.1381" lon="2.9723">
        <ele>592</ele>
        <time>2013-12-12T13:05:43Z</time>
      </trkpt>
      <trkpt lat="44.13815" lon="2.97235">
        <ele>593</ele>
        <time>2013-12-12T13:05:47Z</time>
      </trkpt>
      <trkpt lat="44.13816" lon="2.97241">
        <ele>593</ele>
        <time>2013-12-12T13:05:52Z</time>
      </trkpt>
      <trkpt lat="44.13814" lon="2.97248">
        <ele>593</ele>
        <time>2013-12-12T13:05:58Z</time>
      </trkpt>
      <trkpt lat="44.13811" lon="2.97258">
        <ele>594</ele>
        <time>2013-12-12T13:06:12Z</time>
      </trkpt>
      <trkpt lat="44.13812" lon="2.97265">
        <ele>595</ele>
        <time>2013-12-12T13:06:15Z</time>
      </trkpt>
      <trkpt lat="44.13811" lon="2.97272">
        <ele>596</ele>
        <time>2013-12-12T13:06:22Z</time>
      </trkpt>
      <trkpt lat="44.1381" lon="2.97279">
        <ele>597</ele>
        <time>2013-12-12T13:06:26Z</time>
      </trkpt>
      <trkpt lat="44.13809" lon="2.97287">
        <ele>599</ele>
        <time>2013-12-12T13:06:29Z</time>
      </trkpt>
      <trkpt lat="44.1381" lon="2.97293">
        <ele>600</ele>
        <time>2013-12-12T13:06:32Z</time>
      </trkpt>
      <trkpt lat="44.13813" lon="2.97298">
        <ele>602</ele>
        <time>2013-12-12T13:06:38Z</time>
      </trkpt>
      <trkpt lat="44.13813" lon="2.97311">
        <ele>602</ele>
        <time>2013-12-12T13:06:45Z</time>
      </trkpt>
      <trkpt lat="44.13811" lon="2.97317">
        <ele>603</ele>
        <time>2013-12-12T13:06:49Z</time>
      </trkpt>
      <trkpt lat="44.13807" lon="2.97321">
        <ele>604</ele>
        <time>2013-12-12T13:06:56Z</time>
      </trkpt>
      <trkpt lat="44.13803" lon="2.97324">
        <ele>603</ele>
        <time>2013-12-12T13:07:02Z</time>
      </trkpt>
      <trkpt lat="44.13803" lon="2.97331">
        <ele>603</ele>
        <time>2013-12-12T13:07:08Z</time>
      </trkpt>
      <trkpt lat="44.13803" lon="2.97339">
        <ele>605</ele>
        <time>2013-12-12T13:07:13Z</time>
      </trkpt>
      <trkpt lat="44.13804" lon="2.97345">
        <ele>606</ele>
        <time>2013-12-12T13:07:18Z</time>
      </trkpt>
      <trkpt lat="44.13803" lon="2.97352">
        <ele>608</ele>
        <time>2013-12-12T13:07:23Z</time>
      </trkpt>
      <trkpt lat="44.13801" lon="2.97358">
        <ele>609</ele>
        <time>2013-12-12T13:07:27Z</time>
      </trkpt>
      <trkpt lat="44.13799" lon="2.97364">
        <ele>610</ele>
        <time>2013-12-12T13:07:33Z</time>
      </trkpt>
      <trkpt lat="44.13799" lon="2.97371">
        <ele>611</ele>
        <time>2013-12-12T13:07:40Z</time>
      </trkpt>
      <trkpt lat="44.13797" lon="2.97377">
        <ele>613</ele>
        <time>2013-12-12T13:07:45Z</time>
      </trkpt>
      <trkpt lat="44.13799" lon="2.97384">
        <ele>615</ele>
        <time>2013-12-12T13:07:54Z</time>
      </trkpt>
      <trkpt lat="44.13796" lon="2.97389">
        <ele>616</ele>
        <time>2013-12-12T13:07:58Z</time>
      </trkpt>
      <trkpt lat="44.13794" lon="2.97395">
        <ele>616</ele>
        <time>2013-12-12T13:08:02Z</time>
      </trkpt>
      <trkpt lat="44.13795" lon="2.97399">
        <ele>616</ele>
        <time>2013-12-12T13:08:08Z</time>
      </trkpt>
      <trkpt lat="44.13795" lon="2.97406">
        <ele>618</ele>
        <time>2013-12-12T13:08:17Z</time>
      </trkpt>
      <trkpt lat="44.13793" lon="2.97412">
        <ele>619</ele>
        <time>2013-12-12T13:08:23Z</time>
      </trkpt>
      <trkpt lat="44.1379" lon="2.97419">
        <ele>620</ele>
        <time>2013-12-12T13:08:29Z</time>
      </trkpt>
      <trkpt lat="44.13789" lon="2.97426">
        <ele>621</ele>
        <time>2013-12-12T13:08:34Z</time>
      </trkpt>
      <trkpt lat="44.13793" lon="2.9743">
        <ele>621</ele>
        <time>2013-12-12T13:08:39Z</time>
      </trkpt>
      <trkpt lat="44.13792" lon="2.97439">
        <ele>623</ele>
        <time>2013-12-12T13:08:52Z</time>
      </trkpt>
      <trkpt lat="44.13794" lon="2.97444">
        <ele>623</ele>
        <time>2013-12-12T13:09:03Z</time>
      </trkpt>
      <trkpt lat="44.13791" lon="2.97451">
        <ele>625</ele>
        <time>2013-12-12T13:09:09Z</time>
      </trkpt>
      <trkpt lat="44.13789" lon="2.97457">
        <ele>626</ele>
        <time>2013-12-12T13:09:13Z</time>
      </trkpt>
      <trkpt lat="44.13789" lon="2.97464">
        <ele>626</ele>
        <time>2013-12-12T13:09:18Z</time>
      </trkpt>
      <trkpt lat="44.13789" lon="2.97471">
        <ele>627</ele>
        <time>2013-12-12T13:09:22Z</time>
      </trkpt>
      <trkpt lat="44.13792" lon="2.97478">
        <ele>628</ele>
        <time>2013-12-12T13:09:29Z</time>
      </trkpt>
      <trkpt lat="44.1379" lon="2.97484">
        <ele>628</ele>
        <time>2013-12-12T13:09:33Z</time>
      </trkpt>
      <trkpt lat="44.13788" lon="2.97491">
        <ele>630</ele>
        <time>2013-12-12T13:09:38Z</time>
      </trkpt>
      <trkpt lat="44.13788" lon="2.97498">
        <ele>631</ele>
        <time>2013-12-12T13:09:43Z</time>
      </trkpt>
      <trkpt lat="44.13787" lon="2.97505">
        <ele>634</ele>
        <time>2013-12-12T13:09:51Z</time>
      </trkpt>
      <trkpt lat="44.13788" lon="2.97511">
        <ele>634</ele>
        <time>2013-12-12T13:09:56Z</time>
      </trkpt>
      <trkpt lat="44.13791" lon="2.97517">
        <ele>635</ele>
        <time>2013-12-12T13:10:02Z</time>
      </trkpt>
      <trkpt lat="44.13792" lon="2.97524">
        <ele>635</ele>
        <time>2013-12-12T13:10:08Z</time>
      </trkpt>
      <trkpt lat="44.13792" lon="2.97531">
        <ele>635</ele>
        <time>2013-12-12T13:10:12Z</time>
      </trkpt>
      <trkpt lat="44.13791" lon="2.97538">
        <ele>636</ele>
        <time>2013-12-12T13:10:17Z</time>
      </trkpt>
      <trkpt lat="44.13791" lon="2.97544">
        <ele>638</ele>
        <time>2013-12-12T13:10:27Z</time>
      </trkpt>
      <trkpt lat="44.13791" lon="2.97552">
        <ele>639</ele>
        <time>2013-12-12T13:10:33Z</time>
      </trkpt>
      <trkpt lat="44.1379" lon="2.97559">
        <ele>640</ele>
        <time>2013-12-12T13:10:38Z</time>
      </trkpt>
      <trkpt lat="44.13787" lon="2.97564">
        <ele>640</ele>
        <time>2013-12-12T13:10:41Z</time>
      </trkpt>
      <trkpt lat="44.13787" lon="2.97572">
        <ele>640</ele>
        <time>2013-12-12T13:10:46Z</time>
      </trkpt>
      <trkpt lat="44.13787" lon="2.9758">
        <ele>642</ele>
        <time>2013-12-12T13:10:53Z</time>
      </trkpt>
      <trkpt lat="44.13786" lon="2.97589">
        <ele>645</ele>
        <time>2013-12-12T13:11:04Z</time>
      </trkpt>
      <trkpt lat="44.13788" lon="2.97595">
        <ele>646</ele>
        <time>2013-12-12T13:11:09Z</time>
      </trkpt>
      <trkpt lat="44.13788" lon="2.97602">
        <ele>647</ele>
        <time>2013-12-12T13:11:13Z</time>
      </trkpt>
      <trkpt lat="44.13784" lon="2.97608">
        <ele>648</ele>
        <time>2013-12-12T13:11:21Z</time>
      </trkpt>
      <trkpt lat="44.1378" lon="2.97612">
        <ele>648</ele>
        <time>2013-12-12T13:11:25Z</time>
      </trkpt>
      <trkpt lat="44.1378" lon="2.97619">
        <ele>648</ele>
        <time>2013-12-12T13:11:30Z</time>
      </trkpt>
      <trkpt lat="44.13782" lon="2.97626">
        <ele>647</ele>
        <time>2013-12-12T13:11:37Z</time>
      </trkpt>
      <trkpt lat="44.13782" lon="2.97633">
        <ele>646</ele>
        <time>2013-12-12T13:11:41Z</time>
      </trkpt>
      <trkpt lat="44.1378" lon="2.9764">
        <ele>645</ele>
        <time>2013-12-12T13:11:47Z</time>
      </trkpt>
      <trkpt lat="44.13779" lon="2.97646">
        <ele>646</ele>
        <time>2013-12-12T13:11:51Z</time>
      </trkpt>
      <trkpt lat="44.13778" lon="2.97653">
        <ele>645</ele>
        <time>2013-12-12T13:11:58Z</time>
      </trkpt>
      <trkpt lat="44.13778" lon="2.9766">
        <ele>645</ele>
        <time>2013-12-12T13:12:05Z</time>
      </trkpt>
      <trkpt lat="44.1378" lon="2.97688">
        <ele>655</ele>
        <time>2013-12-12T13:12:26Z</time>
      </trkpt>
      <trkpt lat="44.13778" lon="2.97694">
        <ele>656</ele>
        <time>2013-12-12T13:12:33Z</time>
      </trkpt>
      <trkpt lat="44.13775" lon="2.97699">
        <ele>656</ele>
        <time>2013-12-12T13:12:39Z</time>
      </trkpt>
      <trkpt lat="44.13772" lon="2.97704">
        <ele>655</ele>
        <time>2013-12-12T13:12:44Z</time>
      </trkpt>
      <trkpt lat="44.13769" lon="2.9771">
        <ele>655</ele>
        <time>2013-12-12T13:12:49Z</time>
      </trkpt>
      <trkpt lat="44.13769" lon="2.97717">
        <ele>656</ele>
        <time>2013-12-12T13:12:54Z</time>
      </trkpt>
      <trkpt lat="44.13773" lon="2.97722">
        <ele>657</ele>
        <time>2013-12-12T13:12:58Z</time>
      </trkpt>
      <trkpt lat="44.13769" lon="2.97727">
        <ele>659</ele>
        <time>2013-12-12T13:13:05Z</time>
      </trkpt>
      <trkpt lat="44.13765" lon="2.97731">
        <ele>661</ele>
        <time>2013-12-12T13:13:14Z</time>
      </trkpt>
      <trkpt lat="44.13762" lon="2.97741">
        <ele>661</ele>
        <time>2013-12-12T13:13:22Z</time>
      </trkpt>
      <trkpt lat="44.1376" lon="2.97743">
        <ele>659</ele>
        <time>2013-12-12T13:13:29Z</time>
      </trkpt>
      <trkpt lat="44.13758" lon="2.97753">
        <ele>658</ele>
        <time>2013-12-12T13:13:38Z</time>
      </trkpt>
      <trkpt lat="44.13755" lon="2.97761">
        <ele>659</ele>
        <time>2013-12-12T13:13:48Z</time>
      </trkpt>
      <trkpt lat="44.13752" lon="2.97767">
        <ele>661</ele>
        <time>2013-12-12T13:13:53Z</time>
      </trkpt>
      <trkpt lat="44.13751" lon="2.97774">
        <ele>661</ele>
        <time>2013-12-12T13:13:57Z</time>
      </trkpt>
      <trkpt lat="44.13749" lon="2.97779">
        <ele>662</ele>
        <time>2013-12-12T13:14:01Z</time>
      </trkpt>
      <trkpt lat="44.13745" lon="2.97783">
        <ele>663</ele>
        <time>2013-12-12T13:14:05Z</time>
      </trkpt>
      <trkpt lat="44.1374" lon="2.97787">
        <ele>664</ele>
        <time>2013-12-12T13:14:08Z</time>
      </trkpt>
      <trkpt lat="44.13739" lon="2.97794">
        <ele>665</ele>
        <time>2013-12-12T13:14:12Z</time>
      </trkpt>
      <trkpt lat="44.1374" lon="2.978">
        <ele>666</ele>
        <time>2013-12-12T13:14:16Z</time>
      </trkpt>
      <trkpt lat="44.13738" lon="2.97807">
        <ele>667</ele>
        <time>2013-12-12T13:14:20Z</time>
      </trkpt>
      <trkpt lat="44.13734" lon="2.97808">
        <ele>669</ele>
        <time>2013-12-12T13:14:29Z</time>
      </trkpt>
      <trkpt lat="44.1373" lon="2.97803">
        <ele>670</ele>
        <time>2013-12-12T13:14:32Z</time>
      </trkpt>
      <trkpt lat="44.13726" lon="2.97799">
        <ele>672</ele>
        <time>2013-12-12T13:14:36Z</time>
      </trkpt>
      <trkpt lat="44.13723" lon="2.97794">
        <ele>673</ele>
        <time>2013-12-12T13:14:41Z</time>
      </trkpt>
      <trkpt lat="44.13719" lon="2.97791">
        <ele>677</ele>
        <time>2013-12-12T13:14:48Z</time>
      </trkpt>
      <trkpt lat="44.13716" lon="2.97785">
        <ele>680</ele>
        <time>2013-12-12T13:14:55Z</time>
      </trkpt>
      <trkpt lat="44.13715" lon="2.97778">
        <ele>683</ele>
        <time>2013-12-12T13:14:59Z</time>
      </trkpt>
      <trkpt lat="44.13699" lon="2.97748">
        <ele>694</ele>
        <time>2013-12-12T13:15:29Z</time>
      </trkpt>
      <trkpt lat="44.13696" lon="2.97742">
        <ele>695</ele>
        <time>2013-12-12T13:15:33Z</time>
      </trkpt>
      <trkpt lat="44.13691" lon="2.97738">
        <ele>696</ele>
        <time>2013-12-12T13:15:38Z</time>
      </trkpt>
      <trkpt lat="44.13687" lon="2.97734">
        <ele>697</ele>
        <time>2013-12-12T13:15:42Z</time>
      </trkpt>
      <trkpt lat="44.13677" lon="2.97715">
        <ele>705</ele>
        <time>2013-12-12T13:15:53Z</time>
      </trkpt>
      <trkpt lat="44.13678" lon="2.97708">
        <ele>707</ele>
        <time>2013-12-12T13:15:56Z</time>
      </trkpt>
      <trkpt lat="44.13675" lon="2.97701">
        <ele>708</ele>
        <time>2013-12-12T13:15:59Z</time>
      </trkpt>
      <trkpt lat="44.13676" lon="2.97693">
        <ele>708</ele>
        <time>2013-12-12T13:16:14Z</time>
      </trkpt>
      <trkpt lat="44.13673" lon="2.97687">
        <ele>707</ele>
        <time>2013-12-12T13:16:20Z</time>
      </trkpt>
      <trkpt lat="44.13669" lon="2.97681">
        <ele>706</ele>
        <time>2013-12-12T13:16:24Z</time>
      </trkpt>
      <trkpt lat="44.13665" lon="2.97676">
        <ele>707</ele>
        <time>2013-12-12T13:16:27Z</time>
      </trkpt>
      <trkpt lat="44.13663" lon="2.97669">
        <ele>709</ele>
        <time>2013-12-12T13:16:31Z</time>
      </trkpt>
      <trkpt lat="44.13661" lon="2.97661">
        <ele>711</ele>
        <time>2013-12-12T13:16:35Z</time>
      </trkpt>
      <trkpt lat="44.1366" lon="2.97655">
        <ele>712</ele>
        <time>2013-12-12T13:16:38Z</time>
      </trkpt>
      <trkpt lat="44.13659" lon="2.97648">
        <ele>713</ele>
        <time>2013-12-12T13:16:45Z</time>
      </trkpt>
      <trkpt lat="44.13656" lon="2.97644">
        <ele>714</ele>
        <time>2013-12-12T13:16:49Z</time>
      </trkpt>
      <trkpt lat="44.13651" lon="2.97639">
        <ele>715</ele>
        <time>2013-12-12T13:16:52Z</time>
      </trkpt>
      <trkpt lat="44.13648" lon="2.97634">
        <ele>716</ele>
        <time>2013-12-12T13:16:57Z</time>
      </trkpt>
      <trkpt lat="44.13645" lon="2.97635">
        <ele>714</ele>
        <time>2013-12-12T13:17:04Z</time>
      </trkpt>
      <trkpt lat="44.13636" lon="2.97636">
        <ele>714</ele>
        <time>2013-12-12T13:17:11Z</time>
      </trkpt>
      <trkpt lat="44.13631" lon="2.97631">
        <ele>712</ele>
        <time>2013-12-12T13:17:14Z</time>
      </trkpt>
      <trkpt lat="44.13628" lon="2.97623">
        <ele>711</ele>
        <time>2013-12-12T13:17:17Z</time>
      </trkpt>
      <trkpt lat="44.13624" lon="2.97617">
        <ele>711</ele>
        <time>2013-12-12T13:17:20Z</time>
      </trkpt>
      <trkpt lat="44.1362" lon="2.97619">
        <ele>711</ele>
        <time>2013-12-12T13:17:28Z</time>
      </trkpt>
      <trkpt lat="44.13616" lon="2.97617">
        <ele>713</ele>
        <time>2013-12-12T13:17:46Z</time>
      </trkpt>
      <trkpt lat="44.13614" lon="2.97618">
        <ele>714</ele>
        <time>2013-12-12T13:18:21Z</time>
      </trkpt>
      <trkpt lat="44.13615" lon="2.97623">
        <ele>713</ele>
        <time>2013-12-12T13:18:46Z</time>
      </trkpt>
      <trkpt lat="44.13611" lon="2.97624">
        <ele>710</ele>
        <time>2013-12-12T13:19:16Z</time>
      </trkpt>
      <trkpt lat="44.13611" lon="2.97631">
        <ele>708</ele>
        <time>2013-12-12T13:19:30Z</time>
      </trkpt>
      <trkpt lat="44.13616" lon="2.9763">
        <ele>708</ele>
        <time>2013-12-12T13:19:37Z</time>
      </trkpt>
      <trkpt lat="44.13619" lon="2.97627">
        <ele>700</ele>
        <time>2013-12-12T13:21:02Z</time>
      </trkpt>
      <trkpt lat="44.13619" lon="2.97626">
        <ele>700</ele>
        <time>2013-12-12T13:21:20Z</time>
      </trkpt>
      <trkpt lat="44.13619" lon="2.97627">
        <ele>700</ele>
        <time>2013-12-12T13:22:24Z</time>
      </trkpt>
      <trkpt lat="44.13616" lon="2.9762">
        <ele>700</ele>
        <time>2013-12-12T13:22:27Z</time>
      </trkpt>
      <trkpt lat="44.136" lon="2.97563">
        <ele>717</ele>
        <time>2013-12-12T13:22:57Z</time>
      </trkpt>
      <trkpt lat="44.136" lon="2.97556">
        <ele>717</ele>
        <time>2013-12-12T13:23:00Z</time>
      </trkpt>
      <trkpt lat="44.136" lon="2.97549">
        <ele>717</ele>
        <time>2013-12-12T13:23:05Z</time>
      </trkpt>
      <trkpt lat="44.13598" lon="2.97542">
        <ele>718</ele>
        <time>2013-12-12T13:23:10Z</time>
      </trkpt>
      <trkpt lat="44.13597" lon="2.97536">
        <ele>718</ele>
        <time>2013-12-12T13:23:13Z</time>
      </trkpt>
      <trkpt lat="44.13596" lon="2.97527">
        <ele>718</ele>
        <time>2013-12-12T13:23:17Z</time>
      </trkpt>
      <trkpt lat="44.13596" lon="2.97521">
        <ele>718</ele>
        <time>2013-12-12T13:23:21Z</time>
      </trkpt>
      <trkpt lat="44.13594" lon="2.97514">
        <ele>719</ele>
        <time>2013-12-12T13:23:26Z</time>
      </trkpt>
      <trkpt lat="44.13593" lon="2.97506">
        <ele>719</ele>
        <time>2013-12-12T13:23:30Z</time>
      </trkpt>
      <trkpt lat="44.13593" lon="2.97499">
        <ele>719</ele>
        <time>2013-12-12T13:23:35Z</time>
      </trkpt>
      <trkpt lat="44.13591" lon="2.9749">
        <ele>719</ele>
        <time>2013-12-12T13:23:39Z</time>
      </trkpt>
      <trkpt lat="44.1359" lon="2.97484">
        <ele>720</ele>
        <time>2013-12-12T13:23:42Z</time>
      </trkpt>
      <trkpt lat="44.13588" lon="2.97478">
        <ele>721</ele>
        <time>2013-12-12T13:23:44Z</time>
      </trkpt>
      <trkpt lat="44.13584" lon="2.97468">
        <ele>723</ele>
        <time>2013-12-12T13:23:53Z</time>
      </trkpt>
      <trkpt lat="44.13585" lon="2.97461">
        <ele>725</ele>
        <time>2013-12-12T13:23:58Z</time>
      </trkpt>
      <trkpt lat="44.13586" lon="2.97454">
        <ele>726</ele>
        <time>2013-12-12T13:24:03Z</time>
      </trkpt>
      <trkpt lat="44.13588" lon="2.97447">
        <ele>725</ele>
        <time>2013-12-12T13:24:07Z</time>
      </trkpt>
      <trkpt lat="44.1359" lon="2.97441">
        <ele>722</ele>
        <time>2013-12-12T13:24:12Z</time>
      </trkpt>
      <trkpt lat="44.13592" lon="2.97435">
        <ele>721</ele>
        <time>2013-12-12T13:24:17Z</time>
      </trkpt>
      <trkpt lat="44.13592" lon="2.97429">
        <ele>718</ele>
        <time>2013-12-12T13:24:21Z</time>
      </trkpt>
      <trkpt lat="44.13592" lon="2.97422">
        <ele>717</ele>
        <time>2013-12-12T13:24:25Z</time>
      </trkpt>
      <trkpt lat="44.13593" lon="2.97415">
        <ele>717</ele>
        <time>2013-12-12T13:24:29Z</time>
      </trkpt>
      <trkpt lat="44.13593" lon="2.97408">
        <ele>717</ele>
        <time>2013-12-12T13:24:33Z</time>
      </trkpt>
      <trkpt lat="44.13592" lon="2.97401">
        <ele>717</ele>
        <time>2013-12-12T13:24:36Z</time>
      </trkpt>
      <trkpt lat="44.13591" lon="2.97395">
        <ele>716</ele>
        <time>2013-12-12T13:24:39Z</time>
      </trkpt>
      <trkpt lat="44.13592" lon="2.97388">
        <ele>715</ele>
        <time>2013-12-12T13:24:45Z</time>
      </trkpt>
      <trkpt lat="44.1359" lon="2.97381">
        <ele>716</ele>
        <time>2013-12-12T13:24:49Z</time>
      </trkpt>
      <trkpt lat="44.13589" lon="2.97374">
        <ele>716</ele>
        <time>2013-12-12T13:24:53Z</time>
      </trkpt>
      <trkpt lat="44.13589" lon="2.97367">
        <ele>716</ele>
        <time>2013-12-12T13:24:58Z</time>
      </trkpt>
      <trkpt lat="44.1359" lon="2.9736">
        <ele>716</ele>
        <time>2013-12-12T13:25:02Z</time>
      </trkpt>
      <trkpt lat="44.13588" lon="2.97353">
        <ele>717</ele>
        <time>2013-12-12T13:25:05Z</time>
      </trkpt>
      <trkpt lat="44.13584" lon="2.97348">
        <ele>717</ele>
        <time>2013-12-12T13:25:08Z</time>
      </trkpt>
      <trkpt lat="44.13581" lon="2.97344">
        <ele>717</ele>
        <time>2013-12-12T13:25:10Z</time>
      </trkpt>
      <trkpt lat="44.13578" lon="2.97337">
        <ele>717</ele>
        <time>2013-12-12T13:25:14Z</time>
      </trkpt>
      <trkpt lat="44.13577" lon="2.97331">
        <ele>718</ele>
        <time>2013-12-12T13:25:18Z</time>
      </trkpt>
      <trkpt lat="44.13576" lon="2.97324">
        <ele>718</ele>
        <time>2013-12-12T13:25:21Z</time>
      </trkpt>
      <trkpt lat="44.13575" lon="2.97317">
        <ele>718</ele>
        <time>2013-12-12T13:25:24Z</time>
      </trkpt>
      <trkpt lat="44.13575" lon="2.9731">
        <ele>718</ele>
        <time>2013-12-12T13:25:28Z</time>
      </trkpt>
      <trkpt lat="44.13575" lon="2.97303">
        <ele>719</ele>
        <time>2013-12-12T13:25:32Z</time>
      </trkpt>
      <trkpt lat="44.13573" lon="2.97297">
        <ele>720</ele>
        <time>2013-12-12T13:25:36Z</time>
      </trkpt>
      <trkpt lat="44.13572" lon="2.97291">
        <ele>721</ele>
        <time>2013-12-12T13:25:40Z</time>
      </trkpt>
      <trkpt lat="44.13572" lon="2.97284">
        <ele>722</ele>
        <time>2013-12-12T13:25:44Z</time>
      </trkpt>
      <trkpt lat="44.13571" lon="2.97276">
        <ele>722</ele>
        <time>2013-12-12T13:25:48Z</time>
      </trkpt>
      <trkpt lat="44.13568" lon="2.9727">
        <ele>723</ele>
        <time>2013-12-12T13:25:52Z</time>
      </trkpt>
      <trkpt lat="44.13566" lon="2.97263">
        <ele>723</ele>
        <time>2013-12-12T13:25:57Z</time>
      </trkpt>
      <trkpt lat="44.13564" lon="2.97256">
        <ele>723</ele>
        <time>2013-12-12T13:26:02Z</time>
      </trkpt>
      <trkpt lat="44.13562" lon="2.97248">
        <ele>722</ele>
        <time>2013-12-12T13:26:06Z</time>
      </trkpt>
      <trkpt lat="44.13562" lon="2.97241">
        <ele>723</ele>
        <time>2013-12-12T13:26:10Z</time>
      </trkpt>
      <trkpt lat="44.13561" lon="2.97235">
        <ele>723</ele>
        <time>2013-12-12T13:26:14Z</time>
      </trkpt>
      <trkpt lat="44.13562" lon="2.97228">
        <ele>723</ele>
        <time>2013-12-12T13:26:19Z</time>
      </trkpt>
      <trkpt lat="44.13562" lon="2.9722">
        <ele>724</ele>
        <time>2013-12-12T13:26:24Z</time>
      </trkpt>
      <trkpt lat="44.13562" lon="2.97213">
        <ele>724</ele>
        <time>2013-12-12T13:26:28Z</time>
      </trkpt>
      <trkpt lat="44.13561" lon="2.97206">
        <ele>724</ele>
        <time>2013-12-12T13:26:31Z</time>
      </trkpt>
      <trkpt lat="44.13565" lon="2.97202">
        <ele>724</ele>
        <time>2013-12-12T13:26:35Z</time>
      </trkpt>
      <trkpt lat="44.13569" lon="2.97198">
        <ele>723</ele>
        <time>2013-12-12T13:26:40Z</time>
      </trkpt>
      <trkpt lat="44.13571" lon="2.97192">
        <ele>722</ele>
        <time>2013-12-12T13:26:45Z</time>
      </trkpt>
      <trkpt lat="44.13573" lon="2.97185">
        <ele>722</ele>
        <time>2013-12-12T13:26:50Z</time>
      </trkpt>
      <trkpt lat="44.13571" lon="2.97178">
        <ele>723</ele>
        <time>2013-12-12T13:26:55Z</time>
      </trkpt>
      <trkpt lat="44.13568" lon="2.97171">
        <ele>724</ele>
        <time>2013-12-12T13:26:59Z</time>
      </trkpt>
      <trkpt lat="44.13566" lon="2.97166">
        <ele>725</ele>
        <time>2013-12-12T13:27:01Z</time>
      </trkpt>
      <trkpt lat="44.13563" lon="2.97159">
        <ele>725</ele>
        <time>2013-12-12T13:27:04Z</time>
      </trkpt>
      <trkpt lat="44.13561" lon="2.97152">
        <ele>726</ele>
        <time>2013-12-12T13:27:08Z</time>
      </trkpt>
      <trkpt lat="44.13558" lon="2.97145">
        <ele>727</ele>
        <time>2013-12-12T13:27:12Z</time>
      </trkpt>
      <trkpt lat="44.13557" lon="2.97137">
        <ele>728</ele>
        <time>2013-12-12T13:27:16Z</time>
      </trkpt>
      <trkpt lat="44.13558" lon="2.97131">
        <ele>728</ele>
        <time>2013-12-12T13:27:19Z</time>
      </trkpt>
      <trkpt lat="44.1356" lon="2.97124">
        <ele>727</ele>
        <time>2013-12-12T13:27:23Z</time>
      </trkpt>
      <trkpt lat="44.13562" lon="2.97117">
        <ele>725</ele>
        <time>2013-12-12T13:27:27Z</time>
      </trkpt>
      <trkpt lat="44.13569" lon="2.97108">
        <ele>717</ele>
        <time>2013-12-12T13:27:39Z</time>
      </trkpt>
      <trkpt lat="44.13577" lon="2.9707">
        <ele>706</ele>
        <time>2013-12-12T13:28:06Z</time>
      </trkpt>
      <trkpt lat="44.13575" lon="2.97063">
        <ele>706</ele>
        <time>2013-12-12T13:28:10Z</time>
      </trkpt>
      <trkpt lat="44.13573" lon="2.97056">
        <ele>706</ele>
        <time>2013-12-12T13:28:14Z</time>
      </trkpt>
      <trkpt lat="44.13571" lon="2.97049">
        <ele>707</ele>
        <time>2013-12-12T13:28:18Z</time>
      </trkpt>
      <trkpt lat="44.1357" lon="2.97042">
        <ele>707</ele>
        <time>2013-12-12T13:28:22Z</time>
      </trkpt>
      <trkpt lat="44.13569" lon="2.97035">
        <ele>706</ele>
        <time>2013-12-12T13:28:26Z</time>
      </trkpt>
      <trkpt lat="44.13568" lon="2.97028">
        <ele>707</ele>
        <time>2013-12-12T13:28:32Z</time>
      </trkpt>
      <trkpt lat="44.13567" lon="2.97021">
        <ele>706</ele>
        <time>2013-12-12T13:28:37Z</time>
      </trkpt>
      <trkpt lat="44.13565" lon="2.97016">
        <ele>706</ele>
        <time>2013-12-12T13:28:42Z</time>
      </trkpt>
      <trkpt lat="44.13562" lon="2.9701">
        <ele>706</ele>
        <time>2013-12-12T13:28:47Z</time>
      </trkpt>
      <trkpt lat="44.13559" lon="2.97004">
        <ele>706</ele>
        <time>2013-12-12T13:28:50Z</time>
      </trkpt>
      <trkpt lat="44.13556" lon="2.96998">
        <ele>707</ele>
        <time>2013-12-12T13:28:53Z</time>
      </trkpt>
      <trkpt lat="44.13556" lon="2.96991">
        <ele>707</ele>
        <time>2013-12-12T13:28:56Z</time>
      </trkpt>
      <trkpt lat="44.13559" lon="2.96985">
        <ele>705</ele>
        <time>2013-12-12T13:28:59Z</time>
      </trkpt>
      <trkpt lat="44.13563" lon="2.96981">
        <ele>705</ele>
        <time>2013-12-12T13:29:03Z</time>
      </trkpt>
      <trkpt lat="44.13565" lon="2.96975">
        <ele>704</ele>
        <time>2013-12-12T13:29:07Z</time>
      </trkpt>
      <trkpt lat="44.13566" lon="2.96968">
        <ele>704</ele>
        <time>2013-12-12T13:29:10Z</time>
      </trkpt>
      <trkpt lat="44.13568" lon="2.96962">
        <ele>703</ele>
        <time>2013-12-12T13:29:15Z</time>
      </trkpt>
      <trkpt lat="44.13571" lon="2.96957">
        <ele>703</ele>
        <time>2013-12-12T13:29:20Z</time>
      </trkpt>
      <trkpt lat="44.13573" lon="2.96951">
        <ele>702</ele>
        <time>2013-12-12T13:29:25Z</time>
      </trkpt>
      <trkpt lat="44.13573" lon="2.96944">
        <ele>701</ele>
        <time>2013-12-12T13:29:31Z</time>
      </trkpt>
      <trkpt lat="44.13574" lon="2.96937">
        <ele>699</ele>
        <time>2013-12-12T13:29:36Z</time>
      </trkpt>
      <trkpt lat="44.13577" lon="2.96929">
        <ele>699</ele>
        <time>2013-12-12T13:29:41Z</time>
      </trkpt>
      <trkpt lat="44.13579" lon="2.96922">
        <ele>700</ele>
        <time>2013-12-12T13:29:45Z</time>
      </trkpt>
      <trkpt lat="44.13578" lon="2.96915">
        <ele>700</ele>
        <time>2013-12-12T13:29:49Z</time>
      </trkpt>
      <trkpt lat="44.13578" lon="2.96908">
        <ele>701</ele>
        <time>2013-12-12T13:29:57Z</time>
      </trkpt>
      <trkpt lat="44.13579" lon="2.969">
        <ele>701</ele>
        <time>2013-12-12T13:30:03Z</time>
      </trkpt>
      <trkpt lat="44.1358" lon="2.96893">
        <ele>701</ele>
        <time>2013-12-12T13:30:08Z</time>
      </trkpt>
      <trkpt lat="44.1358" lon="2.96886">
        <ele>702</ele>
        <time>2013-12-12T13:30:13Z</time>
      </trkpt>
      <trkpt lat="44.13581" lon="2.96879">
        <ele>702</ele>
        <time>2013-12-12T13:30:17Z</time>
      </trkpt>
      <trkpt lat="44.13584" lon="2.96873">
        <ele>703</ele>
        <time>2013-12-12T13:30:23Z</time>
      </trkpt>
      <trkpt lat="44.13587" lon="2.96869">
        <ele>703</ele>
        <time>2013-12-12T13:30:31Z</time>
      </trkpt>
      <trkpt lat="44.1359" lon="2.96862">
        <ele>706</ele>
        <time>2013-12-12T13:30:38Z</time>
      </trkpt>
      <trkpt lat="44.1359" lon="2.96855">
        <ele>707</ele>
        <time>2013-12-12T13:30:42Z</time>
      </trkpt>
      <trkpt lat="44.1359" lon="2.96848">
        <ele>708</ele>
        <time>2013-12-12T13:30:46Z</time>
      </trkpt>
      <trkpt lat="44.13592" lon="2.96841">
        <ele>708</ele>
        <time>2013-12-12T13:30:51Z</time>
      </trkpt>
      <trkpt lat="44.13594" lon="2.96835">
        <ele>709</ele>
        <time>2013-12-12T13:30:55Z</time>
      </trkpt>
      <trkpt lat="44.13597" lon="2.9683">
        <ele>710</ele>
        <time>2013-12-12T13:31:01Z</time>
      </trkpt>
      <trkpt lat="44.13598" lon="2.96823">
        <ele>710</ele>
        <time>2013-12-12T13:31:07Z</time>
      </trkpt>
      <trkpt lat="44.136" lon="2.96817">
        <ele>711</ele>
        <time>2013-12-12T13:31:12Z</time>
      </trkpt>
      <trkpt lat="44.13601" lon="2.9681">
        <ele>712</ele>
        <time>2013-12-12T13:31:19Z</time>
      </trkpt>
      <trkpt lat="44.13603" lon="2.96803">
        <ele>713</ele>
        <time>2013-12-12T13:31:24Z</time>
      </trkpt>
      <trkpt lat="44.13606" lon="2.96797">
        <ele>714</ele>
        <time>2013-12-12T13:31:30Z</time>
      </trkpt>
      <trkpt lat="44.13609" lon="2.96783">
        <ele>720</ele>
        <time>2013-12-12T13:31:40Z</time>
      </trkpt>
      <trkpt lat="44.13613" lon="2.96779">
        <ele>722</ele>
        <time>2013-12-12T13:31:49Z</time>
      </trkpt>
      <trkpt lat="44.13617" lon="2.96775">
        <ele>722</ele>
        <time>2013-12-12T13:31:54Z</time>
      </trkpt>
      <trkpt lat="44.13619" lon="2.96769">
        <ele>721</ele>
        <time>2013-12-12T13:31:58Z</time>
      </trkpt>
      <trkpt lat="44.1362" lon="2.96763">
        <ele>721</ele>
        <time>2013-12-12T13:32:02Z</time>
      </trkpt>
      <trkpt lat="44.13621" lon="2.96756">
        <ele>720</ele>
        <time>2013-12-12T13:32:07Z</time>
      </trkpt>
      <trkpt lat="44.13625" lon="2.96751">
        <ele>720</ele>
        <time>2013-12-12T13:32:12Z</time>
      </trkpt>
      <trkpt lat="44.13629" lon="2.96748">
        <ele>720</ele>
        <time>2013-12-12T13:32:18Z</time>
      </trkpt>
      <trkpt lat="44.13632" lon="2.96743">
        <ele>720</ele>
        <time>2013-12-12T13:32:23Z</time>
      </trkpt>
      <trkpt lat="44.13634" lon="2.96737">
        <ele>719</ele>
        <time>2013-12-12T13:32:28Z</time>
      </trkpt>
      <trkpt lat="44.13634" lon="2.9673">
        <ele>719</ele>
        <time>2013-12-12T13:32:34Z</time>
      </trkpt>
      <trkpt lat="44.13629" lon="2.96727">
        <ele>720</ele>
        <time>2013-12-12T13:32:42Z</time>
      </trkpt>
      <trkpt lat="44.13625" lon="2.96723">
        <ele>720</ele>
        <time>2013-12-12T13:32:47Z</time>
      </trkpt>
      <trkpt lat="44.13626" lon="2.96716">
        <ele>721</ele>
        <time>2013-12-12T13:32:52Z</time>
      </trkpt>
      <trkpt lat="44.13628" lon="2.9671">
        <ele>721</ele>
        <time>2013-12-12T13:32:59Z</time>
      </trkpt>
      <trkpt lat="44.13626" lon="2.96702">
        <ele>723</ele>
        <time>2013-12-12T13:33:17Z</time>
      </trkpt>
      <trkpt lat="44.13626" lon="2.96698">
        <ele>723</ele>
        <time>2013-12-12T13:33:23Z</time>
      </trkpt>
      <trkpt lat="44.13621" lon="2.96698">
        <ele>723</ele>
        <time>2013-12-12T13:33:29Z</time>
      </trkpt>
      <trkpt lat="44.13615" lon="2.96695">
        <ele>724</ele>
        <time>2013-12-12T13:33:43Z</time>
      </trkpt>
      <trkpt lat="44.13613" lon="2.96694">
        <ele>724</ele>
        <time>2013-12-12T13:33:49Z</time>
      </trkpt>
      <trkpt lat="44.13606" lon="2.96694">
        <ele>726</ele>
        <time>2013-12-12T13:33:59Z</time>
      </trkpt>
      <trkpt lat="44.13602" lon="2.96691">
        <ele>727</ele>
        <time>2013-12-12T13:34:06Z</time>
      </trkpt>
      <trkpt lat="44.13598" lon="2.96689">
        <ele>728</ele>
        <time>2013-12-12T13:34:10Z</time>
      </trkpt>
      <trkpt lat="44.13593" lon="2.96689">
        <ele>729</ele>
        <time>2013-12-12T13:34:15Z</time>
      </trkpt>
      <trkpt lat="44.1359" lon="2.96684">
        <ele>732</ele>
        <time>2013-12-12T13:34:21Z</time>
      </trkpt>
      <trkpt lat="44.1359" lon="2.96677">
        <ele>732</ele>
        <time>2013-12-12T13:34:28Z</time>
      </trkpt>
      <trkpt lat="44.13588" lon="2.96671">
        <ele>732</ele>
        <time>2013-12-12T13:34:37Z</time>
      </trkpt>
      <trkpt lat="44.13586" lon="2.96668">
        <ele>732</ele>
        <time>2013-12-12T13:34:45Z</time>
      </trkpt>
      <trkpt lat="44.13584" lon="2.96678">
        <ele>727</ele>
        <time>2013-12-12T13:37:26Z</time>
      </trkpt>
      <trkpt lat="44.13582" lon="2.96684">
        <ele>727</ele>
        <time>2013-12-12T13:37:31Z</time>
      </trkpt>
      <trkpt lat="44.13583" lon="2.96691">
        <ele>720</ele>
        <time>2013-12-12T13:37:39Z</time>
      </trkpt>
      <trkpt lat="44.13583" lon="2.96698">
        <ele>718</ele>
        <time>2013-12-12T13:37:47Z</time>
      </trkpt>
      <trkpt lat="44.13582" lon="2.96702">
        <ele>716</ele>
        <time>2013-12-12T13:37:58Z</time>
      </trkpt>
      <trkpt lat="44.13581" lon="2.96709">
        <ele>715</ele>
        <time>2013-12-12T13:38:04Z</time>
      </trkpt>
      <trkpt lat="44.13579" lon="2.96715">
        <ele>714</ele>
        <time>2013-12-12T13:38:12Z</time>
      </trkpt>
      <trkpt lat="44.13579" lon="2.96722">
        <ele>714</ele>
        <time>2013-12-12T13:38:16Z</time>
      </trkpt>
      <trkpt lat="44.13579" lon="2.96729">
        <ele>712</ele>
        <time>2013-12-12T13:38:23Z</time>
      </trkpt>
      <trkpt lat="44.13576" lon="2.96735">
        <ele>711</ele>
        <time>2013-12-12T13:38:27Z</time>
      </trkpt>
      <trkpt lat="44.13573" lon="2.96741">
        <ele>709</ele>
        <time>2013-12-12T13:38:33Z</time>
      </trkpt>
      <trkpt lat="44.13571" lon="2.96747">
        <ele>707</ele>
        <time>2013-12-12T13:38:38Z</time>
      </trkpt>
      <trkpt lat="44.13568" lon="2.96751">
        <ele>705</ele>
        <time>2013-12-12T13:38:47Z</time>
      </trkpt>
      <trkpt lat="44.13564" lon="2.96755">
        <ele>705</ele>
        <time>2013-12-12T13:38:50Z</time>
      </trkpt>
      <trkpt lat="44.1356" lon="2.96759">
        <ele>704</ele>
        <time>2013-12-12T13:38:55Z</time>
      </trkpt>
      <trkpt lat="44.1356" lon="2.96766">
        <ele>702</ele>
        <time>2013-12-12T13:39:03Z</time>
      </trkpt>
      <trkpt lat="44.13558" lon="2.96775">
        <ele>698</ele>
        <time>2013-12-12T13:39:20Z</time>
      </trkpt>
      <trkpt lat="44.13556" lon="2.96781">
        <ele>697</ele>
        <time>2013-12-12T13:39:27Z</time>
      </trkpt>
      <trkpt lat="44.13553" lon="2.96788">
        <ele>696</ele>
        <time>2013-12-12T13:39:31Z</time>
      </trkpt>
      <trkpt lat="44.1355" lon="2.96794">
        <ele>695</ele>
        <time>2013-12-12T13:39:34Z</time>
      </trkpt>
      <trkpt lat="44.13548" lon="2.96802">
        <ele>695</ele>
        <time>2013-12-12T13:39:37Z</time>
      </trkpt>
      <trkpt lat="44.13546" lon="2.96808">
        <ele>696</ele>
        <time>2013-12-12T13:39:41Z</time>
      </trkpt>
      <trkpt lat="44.13543" lon="2.96814">
        <ele>696</ele>
        <time>2013-12-12T13:39:46Z</time>
      </trkpt>
      <trkpt lat="44.13542" lon="2.96822">
        <ele>697</ele>
        <time>2013-12-12T13:39:51Z</time>
      </trkpt>
      <trkpt lat="44.13542" lon="2.96829">
        <ele>698</ele>
        <time>2013-12-12T13:39:55Z</time>
      </trkpt>
      <trkpt lat="44.13538" lon="2.96836">
        <ele>698</ele>
        <time>2013-12-12T13:39:58Z</time>
      </trkpt>
      <trkpt lat="44.13534" lon="2.96841">
        <ele>696</ele>
        <time>2013-12-12T13:40:02Z</time>
      </trkpt>
      <trkpt lat="44.13535" lon="2.96848">
        <ele>696</ele>
        <time>2013-12-12T13:40:06Z</time>
      </trkpt>
      <trkpt lat="44.13534" lon="2.96855">
        <ele>696</ele>
        <time>2013-12-12T13:40:11Z</time>
      </trkpt>
      <trkpt lat="44.13532" lon="2.96862">
        <ele>697</ele>
        <time>2013-12-12T13:40:15Z</time>
      </trkpt>
      <trkpt lat="44.13528" lon="2.96866">
        <ele>698</ele>
        <time>2013-12-12T13:40:21Z</time>
      </trkpt>
      <trkpt lat="44.13525" lon="2.96872">
        <ele>698</ele>
        <time>2013-12-12T13:40:26Z</time>
      </trkpt>
      <trkpt lat="44.13524" lon="2.9688">
        <ele>698</ele>
        <time>2013-12-12T13:40:31Z</time>
      </trkpt>
      <trkpt lat="44.13524" lon="2.96887">
        <ele>698</ele>
        <time>2013-12-12T13:40:35Z</time>
      </trkpt>
      <trkpt lat="44.13522" lon="2.96893">
        <ele>697</ele>
        <time>2013-12-12T13:40:42Z</time>
      </trkpt>
      <trkpt lat="44.13521" lon="2.969">
        <ele>698</ele>
        <time>2013-12-12T13:40:47Z</time>
      </trkpt>
      <trkpt lat="44.13519" lon="2.96907">
        <ele>698</ele>
        <time>2013-12-12T13:40:51Z</time>
      </trkpt>
      <trkpt lat="44.13516" lon="2.96913">
        <ele>697</ele>
        <time>2013-12-12T13:40:55Z</time>
      </trkpt>
      <trkpt lat="44.13512" lon="2.96916">
        <ele>695</ele>
        <time>2013-12-12T13:41:01Z</time>
      </trkpt>
      <trkpt lat="44.13511" lon="2.96922">
        <ele>695</ele>
        <time>2013-12-12T13:41:05Z</time>
      </trkpt>
      <trkpt lat="44.1351" lon="2.96928">
        <ele>694</ele>
        <time>2013-12-12T13:41:10Z</time>
      </trkpt>
      <trkpt lat="44.13511" lon="2.96936">
        <ele>693</ele>
        <time>2013-12-12T13:41:15Z</time>
      </trkpt>
      <trkpt lat="44.13509" lon="2.96943">
        <ele>692</ele>
        <time>2013-12-12T13:41:21Z</time>
      </trkpt>
      <trkpt lat="44.13506" lon="2.96948">
        <ele>691</ele>
        <time>2013-12-12T13:41:25Z</time>
      </trkpt>
      <trkpt lat="44.13504" lon="2.96954">
        <ele>691</ele>
        <time>2013-12-12T13:41:28Z</time>
      </trkpt>
      <trkpt lat="44.13502" lon="2.9696">
        <ele>690</ele>
        <time>2013-12-12T13:41:32Z</time>
      </trkpt>
      <trkpt lat="44.13499" lon="2.96967">
        <ele>690</ele>
        <time>2013-12-12T13:41:36Z</time>
      </trkpt>
      <trkpt lat="44.13499" lon="2.96974">
        <ele>689</ele>
        <time>2013-12-12T13:41:39Z</time>
      </trkpt>
      <trkpt lat="44.135" lon="2.96982">
        <ele>689</ele>
        <time>2013-12-12T13:41:43Z</time>
      </trkpt>
      <trkpt lat="44.13499" lon="2.96989">
        <ele>689</ele>
        <time>2013-12-12T13:41:46Z</time>
      </trkpt>
      <trkpt lat="44.13498" lon="2.96996">
        <ele>689</ele>
        <time>2013-12-12T13:41:50Z</time>
      </trkpt>
      <trkpt lat="44.13497" lon="2.97003">
        <ele>688</ele>
        <time>2013-12-12T13:41:54Z</time>
      </trkpt>
      <trkpt lat="44.13495" lon="2.97009">
        <ele>688</ele>
        <time>2013-12-12T13:41:58Z</time>
      </trkpt>
      <trkpt lat="44.13493" lon="2.97016">
        <ele>689</ele>
        <time>2013-12-12T13:42:02Z</time>
      </trkpt>
      <trkpt lat="44.13491" lon="2.97023">
        <ele>689</ele>
        <time>2013-12-12T13:42:05Z</time>
      </trkpt>
      <trkpt lat="44.1349" lon="2.9703">
        <ele>689</ele>
        <time>2013-12-12T13:42:09Z</time>
      </trkpt>
      <trkpt lat="44.13489" lon="2.97037">
        <ele>689</ele>
        <time>2013-12-12T13:42:14Z</time>
      </trkpt>
      <trkpt lat="44.13488" lon="2.97043">
        <ele>689</ele>
        <time>2013-12-12T13:42:19Z</time>
      </trkpt>
      <trkpt lat="44.13488" lon="2.9705">
        <ele>689</ele>
        <time>2013-12-12T13:42:23Z</time>
      </trkpt>
      <trkpt lat="44.13487" lon="2.97057">
        <ele>689</ele>
        <time>2013-12-12T13:42:27Z</time>
      </trkpt>
      <trkpt lat="44.13485" lon="2.97063">
        <ele>689</ele>
        <time>2013-12-12T13:42:31Z</time>
      </trkpt>
      <trkpt lat="44.13485" lon="2.97069">
        <ele>689</ele>
        <time>2013-12-12T13:42:34Z</time>
      </trkpt>
      <trkpt lat="44.13485" lon="2.97076">
        <ele>689</ele>
        <time>2013-12-12T13:42:38Z</time>
      </trkpt>
      <trkpt lat="44.13485" lon="2.97083">
        <ele>689</ele>
        <time>2013-12-12T13:42:42Z</time>
      </trkpt>
      <trkpt lat="44.13485" lon="2.9709">
        <ele>690</ele>
        <time>2013-12-12T13:42:45Z</time>
      </trkpt>
      <trkpt lat="44.13485" lon="2.97097">
        <ele>691</ele>
        <time>2013-12-12T13:42:50Z</time>
      </trkpt>
      <trkpt lat="44.13483" lon="2.97103">
        <ele>692</ele>
        <time>2013-12-12T13:42:54Z</time>
      </trkpt>
      <trkpt lat="44.13482" lon="2.97109">
        <ele>691</ele>
        <time>2013-12-12T13:43:00Z</time>
      </trkpt>
      <trkpt lat="44.1348" lon="2.97116">
        <ele>690</ele>
        <time>2013-12-12T13:43:06Z</time>
      </trkpt>
      <trkpt lat="44.13478" lon="2.97122">
        <ele>688</ele>
        <time>2013-12-12T13:43:12Z</time>
      </trkpt>
      <trkpt lat="44.13475" lon="2.97128">
        <ele>687</ele>
        <time>2013-12-12T13:43:21Z</time>
      </trkpt>
      <trkpt lat="44.13475" lon="2.97136">
        <ele>686</ele>
        <time>2013-12-12T13:43:26Z</time>
      </trkpt>
      <trkpt lat="44.13473" lon="2.97144">
        <ele>688</ele>
        <time>2013-12-12T13:43:30Z</time>
      </trkpt>
      <trkpt lat="44.13471" lon="2.97151">
        <ele>689</ele>
        <time>2013-12-12T13:43:33Z</time>
      </trkpt>
      <trkpt lat="44.13471" lon="2.97156">
        <ele>688</ele>
        <time>2013-12-12T13:43:50Z</time>
      </trkpt>
      <trkpt lat="44.13469" lon="2.97163">
        <ele>688</ele>
        <time>2013-12-12T13:43:56Z</time>
      </trkpt>
      <trkpt lat="44.13467" lon="2.97169">
        <ele>687</ele>
        <time>2013-12-12T13:43:59Z</time>
      </trkpt>
      <trkpt lat="44.13467" lon="2.97176">
        <ele>685</ele>
        <time>2013-12-12T13:44:03Z</time>
      </trkpt>
      <trkpt lat="44.13466" lon="2.97184">
        <ele>683</ele>
        <time>2013-12-12T13:44:07Z</time>
      </trkpt>
      <trkpt lat="44.13466" lon="2.97191">
        <ele>683</ele>
        <time>2013-12-12T13:44:12Z</time>
      </trkpt>
      <trkpt lat="44.13464" lon="2.97199">
        <ele>682</ele>
        <time>2013-12-12T13:44:17Z</time>
      </trkpt>
      <trkpt lat="44.13463" lon="2.97206">
        <ele>682</ele>
        <time>2013-12-12T13:44:20Z</time>
      </trkpt>
      <trkpt lat="44.13462" lon="2.97214">
        <ele>682</ele>
        <time>2013-12-12T13:44:23Z</time>
      </trkpt>
      <trkpt lat="44.13461" lon="2.97221">
        <ele>682</ele>
        <time>2013-12-12T13:44:26Z</time>
      </trkpt>
      <trkpt lat="44.13459" lon="2.97228">
        <ele>681</ele>
        <time>2013-12-12T13:44:30Z</time>
      </trkpt>
      <trkpt lat="44.13456" lon="2.97235">
        <ele>681</ele>
        <time>2013-12-12T13:44:35Z</time>
      </trkpt>
      <trkpt lat="44.13454" lon="2.97241">
        <ele>681</ele>
        <time>2013-12-12T13:44:39Z</time>
      </trkpt>
      <trkpt lat="44.13452" lon="2.97246">
        <ele>680</ele>
        <time>2013-12-12T13:44:43Z</time>
      </trkpt>
      <trkpt lat="44.13449" lon="2.97253">
        <ele>679</ele>
        <time>2013-12-12T13:44:47Z</time>
      </trkpt>
      <trkpt lat="44.13446" lon="2.9726">
        <ele>679</ele>
        <time>2013-12-12T13:44:51Z</time>
      </trkpt>
      <trkpt lat="44.13443" lon="2.97267">
        <ele>679</ele>
        <time>2013-12-12T13:44:54Z</time>
      </trkpt>
      <trkpt lat="44.1344" lon="2.97274">
        <ele>679</ele>
        <time>2013-12-12T13:44:57Z</time>
      </trkpt>
      <trkpt lat="44.13435" lon="2.97273">
        <ele>678</ele>
        <time>2013-12-12T13:45:09Z</time>
      </trkpt>
      <trkpt lat="44.13431" lon="2.9727">
        <ele>678</ele>
        <time>2013-12-12T13:45:11Z</time>
      </trkpt>
      <trkpt lat="44.13426" lon="2.97272">
        <ele>678</ele>
        <time>2013-12-12T13:45:15Z</time>
      </trkpt>
      <trkpt lat="44.13421" lon="2.97275">
        <ele>679</ele>
        <time>2013-12-12T13:45:19Z</time>
      </trkpt>
      <trkpt lat="44.13416" lon="2.97274">
        <ele>680</ele>
        <time>2013-12-12T13:45:24Z</time>
      </trkpt>
      <trkpt lat="44.13413" lon="2.97272">
        <ele>680</ele>
        <time>2013-12-12T13:45:35Z</time>
      </trkpt>
      <trkpt lat="44.13411" lon="2.97268">
        <ele>679</ele>
        <time>2013-12-12T13:45:43Z</time>
      </trkpt>
      <trkpt lat="44.13407" lon="2.97272">
        <ele>679</ele>
        <time>2013-12-12T13:45:52Z</time>
      </trkpt>
      <trkpt lat="44.13402" lon="2.9727">
        <ele>681</ele>
        <time>2013-12-12T13:45:56Z</time>
      </trkpt>
      <trkpt lat="44.13398" lon="2.97266">
        <ele>683</ele>
        <time>2013-12-12T13:46:03Z</time>
      </trkpt>
      <trkpt lat="44.13393" lon="2.97263">
        <ele>683</ele>
        <time>2013-12-12T13:46:08Z</time>
      </trkpt>
      <trkpt lat="44.1338" lon="2.97253">
        <ele>692</ele>
        <time>2013-12-12T13:46:19Z</time>
      </trkpt>
      <trkpt lat="44.13375" lon="2.97253">
        <ele>695</ele>
        <time>2013-12-12T13:46:25Z</time>
      </trkpt>
      <trkpt lat="44.13372" lon="2.97252">
        <ele>696</ele>
        <time>2013-12-12T13:46:31Z</time>
      </trkpt>
      <trkpt lat="44.13369" lon="2.97248">
        <ele>697</ele>
        <time>2013-12-12T13:46:38Z</time>
      </trkpt>
      <trkpt lat="44.13365" lon="2.97247">
        <ele>697</ele>
        <time>2013-12-12T13:46:43Z</time>
      </trkpt>
      <trkpt lat="44.1336" lon="2.97246">
        <ele>698</ele>
        <time>2013-12-12T13:46:48Z</time>
      </trkpt>
      <trkpt lat="44.13355" lon="2.97244">
        <ele>700</ele>
        <time>2013-12-12T13:46:56Z</time>
      </trkpt>
      <trkpt lat="44.1335" lon="2.97243">
        <ele>701</ele>
        <time>2013-12-12T13:47:02Z</time>
      </trkpt>
      <trkpt lat="44.13345" lon="2.97242">
        <ele>703</ele>
        <time>2013-12-12T13:47:08Z</time>
      </trkpt>
      <trkpt lat="44.13341" lon="2.9724">
        <ele>703</ele>
        <time>2013-12-12T13:47:14Z</time>
      </trkpt>
      <trkpt lat="44.13336" lon="2.9724">
        <ele>704</ele>
        <time>2013-12-12T13:47:21Z</time>
      </trkpt>
      <trkpt lat="44.13331" lon="2.9724">
        <ele>704</ele>
        <time>2013-12-12T13:47:26Z</time>
      </trkpt>
      <trkpt lat="44.13326" lon="2.97238">
        <ele>706</ele>
        <time>2013-12-12T13:47:30Z</time>
      </trkpt>
      <trkpt lat="44.1332" lon="2.97236">
        <ele>706</ele>
        <time>2013-12-12T13:47:35Z</time>
      </trkpt>
      <trkpt lat="44.13316" lon="2.97232">
        <ele>706</ele>
        <time>2013-12-12T13:47:39Z</time>
      </trkpt>
      <trkpt lat="44.13311" lon="2.9723">
        <ele>707</ele>
        <time>2013-12-12T13:47:44Z</time>
      </trkpt>
      <trkpt lat="44.13304" lon="2.97228">
        <ele>708</ele>
        <time>2013-12-12T13:47:55Z</time>
      </trkpt>
      <trkpt lat="44.13301" lon="2.97223">
        <ele>709</ele>
        <time>2013-12-12T13:48:02Z</time>
      </trkpt>
      <trkpt lat="44.13296" lon="2.97221">
        <ele>710</ele>
        <time>2013-12-12T13:48:08Z</time>
      </trkpt>
      <trkpt lat="44.13291" lon="2.97219">
        <ele>714</ele>
        <time>2013-12-12T13:48:12Z</time>
      </trkpt>
      <trkpt lat="44.13287" lon="2.97215">
        <ele>714</ele>
        <time>2013-12-12T13:48:18Z</time>
      </trkpt>
      <trkpt lat="44.13282" lon="2.97213">
        <ele>714</ele>
        <time>2013-12-12T13:48:23Z</time>
      </trkpt>
      <trkpt lat="44.13277" lon="2.97214">
        <ele>714</ele>
        <time>2013-12-12T13:48:27Z</time>
      </trkpt>
      <trkpt lat="44.13271" lon="2.97214">
        <ele>714</ele>
        <time>2013-12-12T13:48:30Z</time>
      </trkpt>
      <trkpt lat="44.13266" lon="2.97212">
        <ele>713</ele>
        <time>2013-12-12T13:48:35Z</time>
      </trkpt>
      <trkpt lat="44.13262" lon="2.97208">
        <ele>712</ele>
        <time>2013-12-12T13:48:42Z</time>
      </trkpt>
      <trkpt lat="44.13258" lon="2.97205">
        <ele>711</ele>
        <time>2013-12-12T13:48:48Z</time>
      </trkpt>
      <trkpt lat="44.13253" lon="2.97203">
        <ele>710</ele>
        <time>2013-12-12T13:48:55Z</time>
      </trkpt>
      <trkpt lat="44.13249" lon="2.972">
        <ele>709</ele>
        <time>2013-12-12T13:49:00Z</time>
      </trkpt>
      <trkpt lat="44.13245" lon="2.97197">
        <ele>708</ele>
        <time>2013-12-12T13:49:05Z</time>
      </trkpt>
      <trkpt lat="44.13241" lon="2.97194">
        <ele>706</ele>
        <time>2013-12-12T13:49:11Z</time>
      </trkpt>
      <trkpt lat="44.13236" lon="2.97191">
        <ele>705</ele>
        <time>2013-12-12T13:49:16Z</time>
      </trkpt>
      <trkpt lat="44.13231" lon="2.9719">
        <ele>704</ele>
        <time>2013-12-12T13:49:21Z</time>
      </trkpt>
      <trkpt lat="44.13227" lon="2.97188">
        <ele>704</ele>
        <time>2013-12-12T13:49:27Z</time>
      </trkpt>
      <trkpt lat="44.13222" lon="2.97185">
        <ele>704</ele>
        <time>2013-12-12T13:49:31Z</time>
      </trkpt>
      <trkpt lat="44.13218" lon="2.97182">
        <ele>704</ele>
        <time>2013-12-12T13:49:35Z</time>
      </trkpt>
      <trkpt lat="44.13213" lon="2.97181">
        <ele>703</ele>
        <time>2013-12-12T13:49:40Z</time>
      </trkpt>
      <trkpt lat="44.13208" lon="2.9718">
        <ele>703</ele>
        <time>2013-12-12T13:49:45Z</time>
      </trkpt>
      <trkpt lat="44.13203" lon="2.9718">
        <ele>701</ele>
        <time>2013-12-12T13:49:51Z</time>
      </trkpt>
      <trkpt lat="44.13198" lon="2.97179">
        <ele>700</ele>
        <time>2013-12-12T13:49:54Z</time>
      </trkpt>
      <trkpt lat="44.13194" lon="2.9718">
        <ele>699</ele>
        <time>2013-12-12T13:50:02Z</time>
      </trkpt>
      <trkpt lat="44.13189" lon="2.97177">
        <ele>699</ele>
        <time>2013-12-12T13:50:07Z</time>
      </trkpt>
      <trkpt lat="44.13184" lon="2.97173">
        <ele>700</ele>
        <time>2013-12-12T13:50:10Z</time>
      </trkpt>
      <trkpt lat="44.13179" lon="2.97173">
        <ele>700</ele>
        <time>2013-12-12T13:50:14Z</time>
      </trkpt>
      <trkpt lat="44.13174" lon="2.97175">
        <ele>699</ele>
        <time>2013-12-12T13:50:17Z</time>
      </trkpt>
      <trkpt lat="44.1317" lon="2.97175">
        <ele>699</ele>
        <time>2013-12-12T13:50:21Z</time>
      </trkpt>
      <trkpt lat="44.13165" lon="2.97173">
        <ele>698</ele>
        <time>2013-12-12T13:50:25Z</time>
      </trkpt>
      <trkpt lat="44.13159" lon="2.9717">
        <ele>698</ele>
        <time>2013-12-12T13:50:28Z</time>
      </trkpt>
      <trkpt lat="44.13154" lon="2.97171">
        <ele>699</ele>
        <time>2013-12-12T13:50:32Z</time>
      </trkpt>
      <trkpt lat="44.1315" lon="2.97174">
        <ele>698</ele>
        <time>2013-12-12T13:50:36Z</time>
      </trkpt>
      <trkpt lat="44.13146" lon="2.9717">
        <ele>696</ele>
        <time>2013-12-12T13:50:43Z</time>
      </trkpt>
      <trkpt lat="44.13141" lon="2.9717">
        <ele>695</ele>
        <time>2013-12-12T13:50:48Z</time>
      </trkpt>
      <trkpt lat="44.13136" lon="2.9717">
        <ele>693</ele>
        <time>2013-12-12T13:50:53Z</time>
      </trkpt>
      <trkpt lat="44.1313" lon="2.9717">
        <ele>693</ele>
        <time>2013-12-12T13:50:57Z</time>
      </trkpt>
      <trkpt lat="44.13125" lon="2.97171">
        <ele>693</ele>
        <time>2013-12-12T13:51:02Z</time>
      </trkpt>
      <trkpt lat="44.13118" lon="2.97173">
        <ele>688</ele>
        <time>2013-12-12T13:51:17Z</time>
      </trkpt>
      <trkpt lat="44.13114" lon="2.97177">
        <ele>687</ele>
        <time>2013-12-12T13:51:21Z</time>
      </trkpt>
      <trkpt lat="44.13112" lon="2.97183">
        <ele>686</ele>
        <time>2013-12-12T13:51:24Z</time>
      </trkpt>
      <trkpt lat="44.13109" lon="2.97188">
        <ele>686</ele>
        <time>2013-12-12T13:51:27Z</time>
      </trkpt>
      <trkpt lat="44.13104" lon="2.9719">
        <ele>684</ele>
        <time>2013-12-12T13:51:31Z</time>
      </trkpt>
      <trkpt lat="44.131" lon="2.97192">
        <ele>683</ele>
        <time>2013-12-12T13:51:37Z</time>
      </trkpt>
      <trkpt lat="44.13095" lon="2.97194">
        <ele>684</ele>
        <time>2013-12-12T13:51:42Z</time>
      </trkpt>
      <trkpt lat="44.13092" lon="2.972">
        <ele>684</ele>
        <time>2013-12-12T13:51:46Z</time>
      </trkpt>
      <trkpt lat="44.13089" lon="2.97205">
        <ele>685</ele>
        <time>2013-12-12T13:51:52Z</time>
      </trkpt>
      <trkpt lat="44.13086" lon="2.9721">
        <ele>685</ele>
        <time>2013-12-12T13:51:56Z</time>
      </trkpt>
      <trkpt lat="44.13082" lon="2.9721">
        <ele>683</ele>
        <time>2013-12-12T13:52:11Z</time>
      </trkpt>
      <trkpt lat="44.13078" lon="2.97215">
        <ele>681</ele>
        <time>2013-12-12T13:52:17Z</time>
      </trkpt>
      <trkpt lat="44.13073" lon="2.97216">
        <ele>680</ele>
        <time>2013-12-12T13:52:21Z</time>
      </trkpt>
      <trkpt lat="44.13068" lon="2.97219">
        <ele>680</ele>
        <time>2013-12-12T13:52:24Z</time>
      </trkpt>
      <trkpt lat="44.13064" lon="2.97221">
        <ele>680</ele>
        <time>2013-12-12T13:52:27Z</time>
      </trkpt>
      <trkpt lat="44.13059" lon="2.97221">
        <ele>680</ele>
        <time>2013-12-12T13:52:32Z</time>
      </trkpt>
      <trkpt lat="44.13054" lon="2.97218">
        <ele>682</ele>
        <time>2013-12-12T13:52:37Z</time>
      </trkpt>
      <trkpt lat="44.1305" lon="2.97213">
        <ele>682</ele>
        <time>2013-12-12T13:52:41Z</time>
      </trkpt>
      <trkpt lat="44.13044" lon="2.97209">
        <ele>684</ele>
        <time>2013-12-12T13:52:42Z</time>
      </trkpt>
      <trkpt lat="44.1304" lon="2.97204">
        <ele>687</ele>
        <time>2013-12-12T13:52:46Z</time>
      </trkpt>
      <trkpt lat="44.13036" lon="2.97201">
        <ele>687</ele>
        <time>2013-12-12T13:52:51Z</time>
      </trkpt>
      <trkpt lat="44.13032" lon="2.97198">
        <ele>687</ele>
        <time>2013-12-12T13:52:55Z</time>
      </trkpt>
      <trkpt lat="44.13028" lon="2.97194">
        <ele>685</ele>
        <time>2013-12-12T13:53:02Z</time>
      </trkpt>
      <trkpt lat="44.13023" lon="2.97192">
        <ele>685</ele>
        <time>2013-12-12T13:53:06Z</time>
      </trkpt>
      <trkpt lat="44.13019" lon="2.97191">
        <ele>684</ele>
        <time>2013-12-12T13:53:11Z</time>
      </trkpt>
      <trkpt lat="44.13014" lon="2.97187">
        <ele>685</ele>
        <time>2013-12-12T13:53:17Z</time>
      </trkpt>
      <trkpt lat="44.1301" lon="2.97186">
        <ele>685</ele>
        <time>2013-12-12T13:53:21Z</time>
      </trkpt>
      <trkpt lat="44.13005" lon="2.97184">
        <ele>685</ele>
        <time>2013-12-12T13:53:27Z</time>
      </trkpt>
      <trkpt lat="44.13001" lon="2.9718">
        <ele>681</ele>
        <time>2013-12-12T13:53:34Z</time>
      </trkpt>
      <trkpt lat="44.12996" lon="2.97179">
        <ele>680</ele>
        <time>2013-12-12T13:53:40Z</time>
      </trkpt>
      <trkpt lat="44.1299" lon="2.97179">
        <ele>677</ele>
        <time>2013-12-12T13:54:22Z</time>
      </trkpt>
      <trkpt lat="44.12984" lon="2.97179">
        <ele>676</ele>
        <time>2013-12-12T13:54:29Z</time>
      </trkpt>
      <trkpt lat="44.12979" lon="2.9718">
        <ele>676</ele>
        <time>2013-12-12T13:54:34Z</time>
      </trkpt>
      <trkpt lat="44.12975" lon="2.97181">
        <ele>676</ele>
        <time>2013-12-12T13:54:37Z</time>
      </trkpt>
      <trkpt lat="44.12969" lon="2.97182">
        <ele>675</ele>
        <time>2013-12-12T13:54:43Z</time>
      </trkpt>
      <trkpt lat="44.12965" lon="2.97185">
        <ele>675</ele>
        <time>2013-12-12T13:54:47Z</time>
      </trkpt>
      <trkpt lat="44.12961" lon="2.97188">
        <ele>675</ele>
        <time>2013-12-12T13:54:56Z</time>
      </trkpt>
      <trkpt lat="44.12957" lon="2.97183">
        <ele>676</ele>
        <time>2013-12-12T13:55:05Z</time>
      </trkpt>
      <trkpt lat="44.12952" lon="2.97182">
        <ele>676</ele>
        <time>2013-12-12T13:55:09Z</time>
      </trkpt>
      <trkpt lat="44.12948" lon="2.97184">
        <ele>677</ele>
        <time>2013-12-12T13:55:13Z</time>
      </trkpt>
      <trkpt lat="44.12943" lon="2.97189">
        <ele>678</ele>
        <time>2013-12-12T13:55:29Z</time>
      </trkpt>
      <trkpt lat="44.12939" lon="2.97192">
        <ele>679</ele>
        <time>2013-12-12T13:55:34Z</time>
      </trkpt>
      <trkpt lat="44.12934" lon="2.97192">
        <ele>679</ele>
        <time>2013-12-12T13:55:38Z</time>
      </trkpt>
      <trkpt lat="44.1293" lon="2.97187">
        <ele>679</ele>
        <time>2013-12-12T13:55:42Z</time>
      </trkpt>
      <trkpt lat="44.12925" lon="2.97185">
        <ele>679</ele>
        <time>2013-12-12T13:55:46Z</time>
      </trkpt>
      <trkpt lat="44.12918" lon="2.97185">
        <ele>680</ele>
        <time>2013-12-12T13:55:49Z</time>
      </trkpt>
      <trkpt lat="44.12911" lon="2.97184">
        <ele>680</ele>
        <time>2013-12-12T13:55:52Z</time>
      </trkpt>
      <trkpt lat="44.12906" lon="2.97184">
        <ele>681</ele>
        <time>2013-12-12T13:55:55Z</time>
      </trkpt>
      <trkpt lat="44.12901" lon="2.97182">
        <ele>682</ele>
        <time>2013-12-12T13:56:00Z</time>
      </trkpt>
      <trkpt lat="44.12896" lon="2.97182">
        <ele>684</ele>
        <time>2013-12-12T13:56:04Z</time>
      </trkpt>
      <trkpt lat="44.12892" lon="2.97181">
        <ele>685</ele>
        <time>2013-12-12T13:56:09Z</time>
      </trkpt>
      <trkpt lat="44.12887" lon="2.9718">
        <ele>685</ele>
        <time>2013-12-12T13:56:12Z</time>
      </trkpt>
      <trkpt lat="44.12881" lon="2.97178">
        <ele>686</ele>
        <time>2013-12-12T13:56:17Z</time>
      </trkpt>
      <trkpt lat="44.12879" lon="2.9718">
        <ele>687</ele>
        <time>2013-12-12T13:56:45Z</time>
      </trkpt>
      <trkpt lat="44.12877" lon="2.97174">
        <ele>687</ele>
        <time>2013-12-12T13:56:59Z</time>
      </trkpt>
      <trkpt lat="44.12878" lon="2.9717">
        <ele>687</ele>
        <time>2013-12-12T13:57:20Z</time>
      </trkpt>
      <trkpt lat="44.12882" lon="2.97169">
        <ele>687</ele>
        <time>2013-12-12T13:57:32Z</time>
      </trkpt>
      <trkpt lat="44.12881" lon="2.97166">
        <ele>687</ele>
        <time>2013-12-12T13:57:47Z</time>
      </trkpt>
      <trkpt lat="44.12883" lon="2.9716">
        <ele>687</ele>
        <time>2013-12-12T13:57:55Z</time>
      </trkpt>
      <trkpt lat="44.12887" lon="2.97155">
        <ele>686</ele>
        <time>2013-12-12T13:58:03Z</time>
      </trkpt>
      <trkpt lat="44.12889" lon="2.97148">
        <ele>687</ele>
        <time>2013-12-12T13:58:08Z</time>
      </trkpt>
      <trkpt lat="44.1289" lon="2.9714">
        <ele>687</ele>
        <time>2013-12-12T13:58:12Z</time>
      </trkpt>
      <trkpt lat="44.1289" lon="2.97133">
        <ele>688</ele>
        <time>2013-12-12T13:58:16Z</time>
      </trkpt>
      <trkpt lat="44.12892" lon="2.97126">
        <ele>691</ele>
        <time>2013-12-12T13:58:21Z</time>
      </trkpt>
      <trkpt lat="44.12894" lon="2.9712">
        <ele>690</ele>
        <time>2013-12-12T13:58:28Z</time>
      </trkpt>
      <trkpt lat="44.12894" lon="2.97117">
        <ele>689</ele>
        <time>2013-12-12T13:58:34Z</time>
      </trkpt>
      <trkpt lat="44.12891" lon="2.97109">
        <ele>688</ele>
        <time>2013-12-12T13:58:46Z</time>
      </trkpt>
      <trkpt lat="44.12888" lon="2.97104">
        <ele>689</ele>
        <time>2013-12-12T13:58:51Z</time>
      </trkpt>
      <trkpt lat="44.12885" lon="2.97099">
        <ele>691</ele>
        <time>2013-12-12T13:58:57Z</time>
      </trkpt>
      <trkpt lat="44.12881" lon="2.97096">
        <ele>692</ele>
        <time>2013-12-12T13:59:04Z</time>
      </trkpt>
      <trkpt lat="44.12878" lon="2.9709">
        <ele>694</ele>
        <time>2013-12-12T13:59:10Z</time>
      </trkpt>
      <trkpt lat="44.12882" lon="2.97085">
        <ele>698</ele>
        <time>2013-12-12T13:59:20Z</time>
      </trkpt>
      <trkpt lat="44.12883" lon="2.9708">
        <ele>702</ele>
        <time>2013-12-12T13:59:27Z</time>
      </trkpt>
      <trkpt lat="44.12881" lon="2.97078">
        <ele>704</ele>
        <time>2013-12-12T13:59:38Z</time>
      </trkpt>
      <trkpt lat="44.12884" lon="2.97073">
        <ele>704</ele>
        <time>2013-12-12T13:59:47Z</time>
      </trkpt>
      <trkpt lat="44.12889" lon="2.97075">
        <ele>703</ele>
        <time>2013-12-12T13:59:55Z</time>
      </trkpt>
      <trkpt lat="44.12894" lon="2.97073">
        <ele>701</ele>
        <time>2013-12-12T14:00:02Z</time>
      </trkpt>
      <trkpt lat="44.129" lon="2.97073">
        <ele>701</ele>
        <time>2013-12-12T14:00:07Z</time>
      </trkpt>
      <trkpt lat="44.12903" lon="2.97069">
        <ele>700</ele>
        <time>2013-12-12T14:00:13Z</time>
      </trkpt>
      <trkpt lat="44.12903" lon="2.97062">
        <ele>700</ele>
        <time>2013-12-12T14:00:19Z</time>
      </trkpt>
      <trkpt lat="44.12905" lon="2.97055">
        <ele>701</ele>
        <time>2013-12-12T14:00:23Z</time>
      </trkpt>
      <trkpt lat="44.12909" lon="2.97051">
        <ele>701</ele>
        <time>2013-12-12T14:00:29Z</time>
      </trkpt>
      <trkpt lat="44.12914" lon="2.9705">
        <ele>701</ele>
        <time>2013-12-12T14:00:32Z</time>
      </trkpt>
      <trkpt lat="44.12919" lon="2.97046">
        <ele>702</ele>
        <time>2013-12-12T14:00:35Z</time>
      </trkpt>
      <trkpt lat="44.12923" lon="2.97041">
        <ele>701</ele>
        <time>2013-12-12T14:00:38Z</time>
      </trkpt>
      <trkpt lat="44.12925" lon="2.97033">
        <ele>701</ele>
        <time>2013-12-12T14:00:40Z</time>
      </trkpt>
      <trkpt lat="44.12927" lon="2.97027">
        <ele>701</ele>
        <time>2013-12-12T14:00:42Z</time>
      </trkpt>
      <trkpt lat="44.12926" lon="2.97025">
        <ele>701</ele>
        <time>2013-12-12T14:00:50Z</time>
      </trkpt>
      <trkpt lat="44.12927" lon="2.97018">
        <ele>701</ele>
        <time>2013-12-12T14:00:59Z</time>
      </trkpt>
      <trkpt lat="44.12931" lon="2.97014">
        <ele>701</ele>
        <time>2013-12-12T14:01:03Z</time>
      </trkpt>
      <trkpt lat="44.12935" lon="2.9701">
        <ele>702</ele>
        <time>2013-12-12T14:01:07Z</time>
      </trkpt>
      <trkpt lat="44.12939" lon="2.97005">
        <ele>703</ele>
        <time>2013-12-12T14:01:11Z</time>
      </trkpt>
      <trkpt lat="44.12943" lon="2.97001">
        <ele>703</ele>
        <time>2013-12-12T14:01:15Z</time>
      </trkpt>
      <trkpt lat="44.12947" lon="2.96998">
        <ele>704</ele>
        <time>2013-12-12T14:01:20Z</time>
      </trkpt>
      <trkpt lat="44.12952" lon="2.96996">
        <ele>706</ele>
        <time>2013-12-12T14:01:47Z</time>
      </trkpt>
      <trkpt lat="44.12954" lon="2.96989">
        <ele>705</ele>
        <time>2013-12-12T14:01:53Z</time>
      </trkpt>
      <trkpt lat="44.12954" lon="2.96982">
        <ele>704</ele>
        <time>2013-12-12T14:01:59Z</time>
      </trkpt>
      <trkpt lat="44.12955" lon="2.96976">
        <ele>704</ele>
        <time>2013-12-12T14:02:06Z</time>
      </trkpt>
      <trkpt lat="44.12959" lon="2.96972">
        <ele>705</ele>
        <time>2013-12-12T14:02:11Z</time>
      </trkpt>
      <trkpt lat="44.1296" lon="2.96964">
        <ele>708</ele>
        <time>2013-12-12T14:02:38Z</time>
      </trkpt>
      <trkpt lat="44.1296" lon="2.96957">
        <ele>709</ele>
        <time>2013-12-12T14:02:41Z</time>
      </trkpt>
      <trkpt lat="44.12961" lon="2.96942">
        <ele>715</ele>
        <time>2013-12-12T14:02:53Z</time>
      </trkpt>
      <trkpt lat="44.1296" lon="2.96936">
        <ele>715</ele>
        <time>2013-12-12T14:03:02Z</time>
      </trkpt>
      <trkpt lat="44.1296" lon="2.96929">
        <ele>717</ele>
        <time>2013-12-12T14:03:08Z</time>
      </trkpt>
      <trkpt lat="44.12959" lon="2.96922">
        <ele>718</ele>
        <time>2013-12-12T14:03:12Z</time>
      </trkpt>
      <trkpt lat="44.12959" lon="2.96915">
        <ele>719</ele>
        <time>2013-12-12T14:03:17Z</time>
      </trkpt>
      <trkpt lat="44.12959" lon="2.96909">
        <ele>720</ele>
        <time>2013-12-12T14:03:21Z</time>
      </trkpt>
      <trkpt lat="44.1296" lon="2.96905">
        <ele>719</ele>
        <time>2013-12-12T14:03:31Z</time>
      </trkpt>
      <trkpt lat="44.1296" lon="2.96897">
        <ele>720</ele>
        <time>2013-12-12T14:03:37Z</time>
      </trkpt>
      <trkpt lat="44.1296" lon="2.96891">
        <ele>720</ele>
        <time>2013-12-12T14:03:41Z</time>
      </trkpt>
      <trkpt lat="44.12959" lon="2.96884">
        <ele>720</ele>
        <time>2013-12-12T14:03:46Z</time>
      </trkpt>
      <trkpt lat="44.1296" lon="2.96878">
        <ele>720</ele>
        <time>2013-12-12T14:03:51Z</time>
      </trkpt>
      <trkpt lat="44.1296" lon="2.96871">
        <ele>720</ele>
        <time>2013-12-12T14:03:56Z</time>
      </trkpt>
      <trkpt lat="44.1296" lon="2.96864">
        <ele>722</ele>
        <time>2013-12-12T14:04:02Z</time>
      </trkpt>
      <trkpt lat="44.12959" lon="2.96858">
        <ele>722</ele>
        <time>2013-12-12T14:04:07Z</time>
      </trkpt>
      <trkpt lat="44.12958" lon="2.96851">
        <ele>723</ele>
        <time>2013-12-12T14:04:13Z</time>
      </trkpt>
      <trkpt lat="44.12958" lon="2.96845">
        <ele>723</ele>
        <time>2013-12-12T14:04:20Z</time>
      </trkpt>
      <trkpt lat="44.12958" lon="2.96837">
        <ele>723</ele>
        <time>2013-12-12T14:04:25Z</time>
      </trkpt>
      <trkpt lat="44.12958" lon="2.9683">
        <ele>723</ele>
        <time>2013-12-12T14:04:29Z</time>
      </trkpt>
      <trkpt lat="44.12958" lon="2.96823">
        <ele>723</ele>
        <time>2013-12-12T14:04:35Z</time>
      </trkpt>
      <trkpt lat="44.12957" lon="2.96817">
        <ele>723</ele>
        <time>2013-12-12T14:04:40Z</time>
      </trkpt>
      <trkpt lat="44.12957" lon="2.96811">
        <ele>724</ele>
        <time>2013-12-12T14:04:44Z</time>
      </trkpt>
      <trkpt lat="44.12954" lon="2.96804">
        <ele>725</ele>
        <time>2013-12-12T14:04:48Z</time>
      </trkpt>
      <trkpt lat="44.12954" lon="2.96797">
        <ele>725</ele>
        <time>2013-12-12T14:04:53Z</time>
      </trkpt>
      <trkpt lat="44.12955" lon="2.96791">
        <ele>725</ele>
        <time>2013-12-12T14:04:59Z</time>
      </trkpt>
      <trkpt lat="44.12957" lon="2.96785">
        <ele>723</ele>
        <time>2013-12-12T14:05:06Z</time>
      </trkpt>
      <trkpt lat="44.12957" lon="2.96778">
        <ele>723</ele>
        <time>2013-12-12T14:05:10Z</time>
      </trkpt>
      <trkpt lat="44.12957" lon="2.96771">
        <ele>725</ele>
        <time>2013-12-12T14:05:15Z</time>
      </trkpt>
      <trkpt lat="44.12958" lon="2.96764">
        <ele>726</ele>
        <time>2013-12-12T14:05:23Z</time>
      </trkpt>
      <trkpt lat="44.12958" lon="2.96757">
        <ele>727</ele>
        <time>2013-12-12T14:05:26Z</time>
      </trkpt>
      <trkpt lat="44.12957" lon="2.9675">
        <ele>730</ele>
        <time>2013-12-12T14:05:31Z</time>
      </trkpt>
      <trkpt lat="44.12957" lon="2.96743">
        <ele>731</ele>
        <time>2013-12-12T14:05:38Z</time>
      </trkpt>
      <trkpt lat="44.12957" lon="2.96736">
        <ele>732</ele>
        <time>2013-12-12T14:05:43Z</time>
      </trkpt>
      <trkpt lat="44.12955" lon="2.9673">
        <ele>732</ele>
        <time>2013-12-12T14:05:47Z</time>
      </trkpt>
      <trkpt lat="44.12954" lon="2.96723">
        <ele>732</ele>
        <time>2013-12-12T14:05:52Z</time>
      </trkpt>
      <trkpt lat="44.12954" lon="2.96717">
        <ele>733</ele>
        <time>2013-12-12T14:05:58Z</time>
      </trkpt>
      <trkpt lat="44.12953" lon="2.96709">
        <ele>737</ele>
        <time>2013-12-12T14:06:04Z</time>
      </trkpt>
      <trkpt lat="44.12952" lon="2.96702">
        <ele>738</ele>
        <time>2013-12-12T14:06:10Z</time>
      </trkpt>
      <trkpt lat="44.1295" lon="2.96696">
        <ele>740</ele>
        <time>2013-12-12T14:06:15Z</time>
      </trkpt>
      <trkpt lat="44.12948" lon="2.9669">
        <ele>740</ele>
        <time>2013-12-12T14:06:20Z</time>
      </trkpt>
      <trkpt lat="44.12947" lon="2.96684">
        <ele>741</ele>
        <time>2013-12-12T14:06:25Z</time>
      </trkpt>
      <trkpt lat="44.12944" lon="2.96679">
        <ele>742</ele>
        <time>2013-12-12T14:06:31Z</time>
      </trkpt>
      <trkpt lat="44.1294" lon="2.96675">
        <ele>740</ele>
        <time>2013-12-12T14:06:39Z</time>
      </trkpt>
      <trkpt lat="44.12935" lon="2.96673">
        <ele>741</ele>
        <time>2013-12-12T14:06:44Z</time>
      </trkpt>
      <trkpt lat="44.1293" lon="2.96671">
        <ele>741</ele>
        <time>2013-12-12T14:06:49Z</time>
      </trkpt>
      <trkpt lat="44.12925" lon="2.9667">
        <ele>741</ele>
        <time>2013-12-12T14:06:54Z</time>
      </trkpt>
      <trkpt lat="44.1292" lon="2.96667">
        <ele>742</ele>
        <time>2013-12-12T14:07:02Z</time>
      </trkpt>
      <trkpt lat="44.12916" lon="2.96669">
        <ele>742</ele>
        <time>2013-12-12T14:07:07Z</time>
      </trkpt>
      <trkpt lat="44.12915" lon="2.96673">
        <ele>742</ele>
        <time>2013-12-12T14:07:16Z</time>
      </trkpt>
      <trkpt lat="44.12913" lon="2.96673">
        <ele>743</ele>
        <time>2013-12-12T14:07:35Z</time>
      </trkpt>
      <trkpt lat="44.12907" lon="2.96672">
        <ele>743</ele>
        <time>2013-12-12T14:07:39Z</time>
      </trkpt>
      <trkpt lat="44.12903" lon="2.96674">
        <ele>743</ele>
        <time>2013-12-12T14:07:44Z</time>
      </trkpt>
      <trkpt lat="44.12893" lon="2.96679">
        <ele>737</ele>
        <time>2013-12-12T14:07:56Z</time>
      </trkpt>
      <trkpt lat="44.12889" lon="2.96683">
        <ele>737</ele>
        <time>2013-12-12T14:08:02Z</time>
      </trkpt>
      <trkpt lat="44.12885" lon="2.96689">
        <ele>737</ele>
        <time>2013-12-12T14:08:19Z</time>
      </trkpt>
      <trkpt lat="44.12882" lon="2.96695">
        <ele>737</ele>
        <time>2013-12-12T14:08:23Z</time>
      </trkpt>
      <trkpt lat="44.12879" lon="2.967">
        <ele>738</ele>
        <time>2013-12-12T14:08:26Z</time>
      </trkpt>
      <trkpt lat="44.12876" lon="2.96704">
        <ele>737</ele>
        <time>2013-12-12T14:08:30Z</time>
      </trkpt>
      <trkpt lat="44.12873" lon="2.9671">
        <ele>737</ele>
        <time>2013-12-12T14:08:35Z</time>
      </trkpt>
      <trkpt lat="44.12869" lon="2.96715">
        <ele>738</ele>
        <time>2013-12-12T14:08:42Z</time>
      </trkpt>
      <trkpt lat="44.12867" lon="2.96721">
        <ele>739</ele>
        <time>2013-12-12T14:08:45Z</time>
      </trkpt>
      <trkpt lat="44.12863" lon="2.96726">
        <ele>739</ele>
        <time>2013-12-12T14:08:50Z</time>
      </trkpt>
      <trkpt lat="44.1286" lon="2.96732">
        <ele>739</ele>
        <time>2013-12-12T14:08:54Z</time>
      </trkpt>
      <trkpt lat="44.12856" lon="2.96736">
        <ele>740</ele>
        <time>2013-12-12T14:09:00Z</time>
      </trkpt>
      <trkpt lat="44.12851" lon="2.96738">
        <ele>740</ele>
        <time>2013-12-12T14:09:04Z</time>
      </trkpt>
      <trkpt lat="44.12847" lon="2.96741">
        <ele>739</ele>
        <time>2013-12-12T14:09:08Z</time>
      </trkpt>
      <trkpt lat="44.12843" lon="2.96745">
        <ele>738</ele>
        <time>2013-12-12T14:09:13Z</time>
      </trkpt>
      <trkpt lat="44.12839" lon="2.96747">
        <ele>737</ele>
        <time>2013-12-12T14:09:15Z</time>
      </trkpt>
      <trkpt lat="44.12834" lon="2.9675">
        <ele>737</ele>
        <time>2013-12-12T14:09:19Z</time>
      </trkpt>
      <trkpt lat="44.12829" lon="2.96753">
        <ele>737</ele>
        <time>2013-12-12T14:09:23Z</time>
      </trkpt>
      <trkpt lat="44.12825" lon="2.9675">
        <ele>738</ele>
        <time>2013-12-12T14:09:28Z</time>
      </trkpt>
      <trkpt lat="44.12821" lon="2.96754">
        <ele>739</ele>
        <time>2013-12-12T14:09:33Z</time>
      </trkpt>
      <trkpt lat="44.12818" lon="2.96759">
        <ele>740</ele>
        <time>2013-12-12T14:09:36Z</time>
      </trkpt>
      <trkpt lat="44.12815" lon="2.96764">
        <ele>740</ele>
        <time>2013-12-12T14:09:38Z</time>
      </trkpt>
      <trkpt lat="44.12811" lon="2.9677">
        <ele>740</ele>
        <time>2013-12-12T14:09:41Z</time>
      </trkpt>
      <trkpt lat="44.12806" lon="2.96771">
        <ele>738</ele>
        <time>2013-12-12T14:09:47Z</time>
      </trkpt>
      <trkpt lat="44.12801" lon="2.9677">
        <ele>737</ele>
        <time>2013-12-12T14:09:52Z</time>
      </trkpt>
      <trkpt lat="44.12797" lon="2.96773">
        <ele>736</ele>
        <time>2013-12-12T14:09:56Z</time>
      </trkpt>
      <trkpt lat="44.12793" lon="2.96776">
        <ele>737</ele>
        <time>2013-12-12T14:09:58Z</time>
      </trkpt>
      <trkpt lat="44.12788" lon="2.96778">
        <ele>738</ele>
        <time>2013-12-12T14:10:03Z</time>
      </trkpt>
      <trkpt lat="44.12782" lon="2.96779">
        <ele>738</ele>
        <time>2013-12-12T14:10:08Z</time>
      </trkpt>
      <trkpt lat="44.12777" lon="2.96779">
        <ele>739</ele>
        <time>2013-12-12T14:10:11Z</time>
      </trkpt>
      <trkpt lat="44.12772" lon="2.96781">
        <ele>739</ele>
        <time>2013-12-12T14:10:15Z</time>
      </trkpt>
      <trkpt lat="44.12769" lon="2.96788">
        <ele>739</ele>
        <time>2013-12-12T14:10:17Z</time>
      </trkpt>
      <trkpt lat="44.12764" lon="2.96793">
        <ele>740</ele>
        <time>2013-12-12T14:10:21Z</time>
      </trkpt>
      <trkpt lat="44.1276" lon="2.96795">
        <ele>740</ele>
        <time>2013-12-12T14:10:28Z</time>
      </trkpt>
      <trkpt lat="44.12754" lon="2.96794">
        <ele>739</ele>
        <time>2013-12-12T14:10:38Z</time>
      </trkpt>
      <trkpt lat="44.12747" lon="2.96793">
        <ele>739</ele>
        <time>2013-12-12T14:10:42Z</time>
      </trkpt>
      <trkpt lat="44.12742" lon="2.96795">
        <ele>739</ele>
        <time>2013-12-12T14:10:44Z</time>
      </trkpt>
      <trkpt lat="44.12737" lon="2.96798">
        <ele>740</ele>
        <time>2013-12-12T14:10:47Z</time>
      </trkpt>
      <trkpt lat="44.12732" lon="2.96798">
        <ele>740</ele>
        <time>2013-12-12T14:10:50Z</time>
      </trkpt>
      <trkpt lat="44.12727" lon="2.96795">
        <ele>739</ele>
        <time>2013-12-12T14:10:54Z</time>
      </trkpt>
      <trkpt lat="44.12724" lon="2.9679">
        <ele>739</ele>
        <time>2013-12-12T14:10:59Z</time>
      </trkpt>
      <trkpt lat="44.12719" lon="2.9679">
        <ele>739</ele>
        <time>2013-12-12T14:11:05Z</time>
      </trkpt>
      <trkpt lat="44.12713" lon="2.96789">
        <ele>739</ele>
        <time>2013-12-12T14:11:11Z</time>
      </trkpt>
      <trkpt lat="44.12708" lon="2.96788">
        <ele>739</ele>
        <time>2013-12-12T14:11:16Z</time>
      </trkpt>
      <trkpt lat="44.12703" lon="2.96784">
        <ele>740</ele>
        <time>2013-12-12T14:11:22Z</time>
      </trkpt>
      <trkpt lat="44.12699" lon="2.96782">
        <ele>740</ele>
        <time>2013-12-12T14:11:28Z</time>
      </trkpt>
      <trkpt lat="44.12694" lon="2.96779">
        <ele>740</ele>
        <time>2013-12-12T14:11:33Z</time>
      </trkpt>
      <trkpt lat="44.1269" lon="2.96776">
        <ele>740</ele>
        <time>2013-12-12T14:11:40Z</time>
      </trkpt>
      <trkpt lat="44.12685" lon="2.96773">
        <ele>740</ele>
        <time>2013-12-12T14:11:44Z</time>
      </trkpt>
      <trkpt lat="44.12681" lon="2.9677">
        <ele>740</ele>
        <time>2013-12-12T14:11:49Z</time>
      </trkpt>
      <trkpt lat="44.12676" lon="2.96768">
        <ele>741</ele>
        <time>2013-12-12T14:11:56Z</time>
      </trkpt>
      <trkpt lat="44.12671" lon="2.96765">
        <ele>741</ele>
        <time>2013-12-12T14:12:00Z</time>
      </trkpt>
      <trkpt lat="44.12666" lon="2.96763">
        <ele>742</ele>
        <time>2013-12-12T14:12:04Z</time>
      </trkpt>
      <trkpt lat="44.12661" lon="2.96761">
        <ele>741</ele>
        <time>2013-12-12T14:12:09Z</time>
      </trkpt>
      <trkpt lat="44.1265" lon="2.9676">
        <ele>747</ele>
        <time>2013-12-12T14:12:31Z</time>
      </trkpt>
      <trkpt lat="44.12648" lon="2.9676">
        <ele>746</ele>
        <time>2013-12-12T14:12:37Z</time>
      </trkpt>
      <trkpt lat="44.12643" lon="2.96756">
        <ele>746</ele>
        <time>2013-12-12T14:12:49Z</time>
      </trkpt>
      <trkpt lat="44.12638" lon="2.96753">
        <ele>746</ele>
        <time>2013-12-12T14:12:52Z</time>
      </trkpt>
      <trkpt lat="44.12634" lon="2.9675">
        <ele>746</ele>
        <time>2013-12-12T14:12:56Z</time>
      </trkpt>
      <trkpt lat="44.12629" lon="2.96749">
        <ele>745</ele>
        <time>2013-12-12T14:13:03Z</time>
      </trkpt>
      <trkpt lat="44.12624" lon="2.96747">
        <ele>746</ele>
        <time>2013-12-12T14:13:08Z</time>
      </trkpt>
      <trkpt lat="44.1262" lon="2.96744">
        <ele>746</ele>
        <time>2013-12-12T14:13:11Z</time>
      </trkpt>
      <trkpt lat="44.12617" lon="2.96739">
        <ele>746</ele>
        <time>2013-12-12T14:13:20Z</time>
      </trkpt>
      <trkpt lat="44.12612" lon="2.96736">
        <ele>747</ele>
        <time>2013-12-12T14:13:24Z</time>
      </trkpt>
      <trkpt lat="44.12608" lon="2.96732">
        <ele>747</ele>
        <time>2013-12-12T14:13:28Z</time>
      </trkpt>
      <trkpt lat="44.12604" lon="2.96727">
        <ele>746</ele>
        <time>2013-12-12T14:13:32Z</time>
      </trkpt>
      <trkpt lat="44.12601" lon="2.96722">
        <ele>747</ele>
        <time>2013-12-12T14:13:36Z</time>
      </trkpt>
      <trkpt lat="44.12598" lon="2.96717">
        <ele>746</ele>
        <time>2013-12-12T14:13:42Z</time>
      </trkpt>
      <trkpt lat="44.12594" lon="2.96713">
        <ele>745</ele>
        <time>2013-12-12T14:13:46Z</time>
      </trkpt>
      <trkpt lat="44.1259" lon="2.9671">
        <ele>744</ele>
        <time>2013-12-12T14:13:48Z</time>
      </trkpt>
      <trkpt lat="44.12586" lon="2.96707">
        <ele>744</ele>
        <time>2013-12-12T14:13:50Z</time>
      </trkpt>
      <trkpt lat="44.12581" lon="2.96705">
        <ele>744</ele>
        <time>2013-12-12T14:13:54Z</time>
      </trkpt>
      <trkpt lat="44.12576" lon="2.96708">
        <ele>744</ele>
        <time>2013-12-12T14:14:00Z</time>
      </trkpt>
      <trkpt lat="44.12571" lon="2.96709">
        <ele>744</ele>
        <time>2013-12-12T14:14:06Z</time>
      </trkpt>
      <trkpt lat="44.12567" lon="2.96713">
        <ele>744</ele>
        <time>2013-12-12T14:14:10Z</time>
      </trkpt>
      <trkpt lat="44.12545" lon="2.96726">
        <ele>761</ele>
        <time>2013-12-12T14:14:43Z</time>
      </trkpt>
      <trkpt lat="44.1254" lon="2.96729">
        <ele>762</ele>
        <time>2013-12-12T14:14:48Z</time>
      </trkpt>
      <trkpt lat="44.12536" lon="2.96732">
        <ele>762</ele>
        <time>2013-12-12T14:14:52Z</time>
      </trkpt>
      <trkpt lat="44.12531" lon="2.96733">
        <ele>762</ele>
        <time>2013-12-12T14:14:58Z</time>
      </trkpt>
      <trkpt lat="44.12528" lon="2.96739">
        <ele>763</ele>
        <time>2013-12-12T14:15:05Z</time>
      </trkpt>
      <trkpt lat="44.12525" lon="2.96744">
        <ele>764</ele>
        <time>2013-12-12T14:15:09Z</time>
      </trkpt>
      <trkpt lat="44.1252" lon="2.96748">
        <ele>764</ele>
        <time>2013-12-12T14:15:15Z</time>
      </trkpt>
      <trkpt lat="44.12519" lon="2.96754">
        <ele>765</ele>
        <time>2013-12-12T14:15:19Z</time>
      </trkpt>
      <trkpt lat="44.12514" lon="2.9676">
        <ele>765</ele>
        <time>2013-12-12T14:15:23Z</time>
      </trkpt>
      <trkpt lat="44.12509" lon="2.96763">
        <ele>764</ele>
        <time>2013-12-12T14:15:25Z</time>
      </trkpt>
      <trkpt lat="44.12505" lon="2.96766">
        <ele>764</ele>
        <time>2013-12-12T14:15:29Z</time>
      </trkpt>
      <trkpt lat="44.12501" lon="2.96771">
        <ele>765</ele>
        <time>2013-12-12T14:15:33Z</time>
      </trkpt>
      <trkpt lat="44.12496" lon="2.96773">
        <ele>764</ele>
        <time>2013-12-12T14:15:41Z</time>
      </trkpt>
      <trkpt lat="44.12491" lon="2.96776">
        <ele>764</ele>
        <time>2013-12-12T14:15:46Z</time>
      </trkpt>
      <trkpt lat="44.12487" lon="2.96781">
        <ele>765</ele>
        <time>2013-12-12T14:15:51Z</time>
      </trkpt>
      <trkpt lat="44.12482" lon="2.96784">
        <ele>765</ele>
        <time>2013-12-12T14:15:55Z</time>
      </trkpt>
      <trkpt lat="44.12477" lon="2.96785">
        <ele>765</ele>
        <time>2013-12-12T14:15:59Z</time>
      </trkpt>
      <trkpt lat="44.12474" lon="2.96789">
        <ele>765</ele>
        <time>2013-12-12T14:16:06Z</time>
      </trkpt>
      <trkpt lat="44.1247" lon="2.96793">
        <ele>765</ele>
        <time>2013-12-12T14:16:11Z</time>
      </trkpt>
      <trkpt lat="44.12467" lon="2.96798">
        <ele>766</ele>
        <time>2013-12-12T14:16:14Z</time>
      </trkpt>
      <trkpt lat="44.12464" lon="2.96803">
        <ele>766</ele>
        <time>2013-12-12T14:16:19Z</time>
      </trkpt>
      <trkpt lat="44.12464" lon="2.96805">
        <ele>765</ele>
        <time>2013-12-12T14:16:35Z</time>
      </trkpt>
      <trkpt lat="44.12463" lon="2.96812">
        <ele>765</ele>
        <time>2013-12-12T14:16:39Z</time>
      </trkpt>
      <trkpt lat="44.1246" lon="2.96818">
        <ele>763</ele>
        <time>2013-12-12T14:16:43Z</time>
      </trkpt>
      <trkpt lat="44.12456" lon="2.96823">
        <ele>763</ele>
        <time>2013-12-12T14:16:49Z</time>
      </trkpt>
      <trkpt lat="44.12451" lon="2.96826">
        <ele>765</ele>
        <time>2013-12-12T14:16:54Z</time>
      </trkpt>
      <trkpt lat="44.12447" lon="2.96829">
        <ele>766</ele>
        <time>2013-12-12T14:16:58Z</time>
      </trkpt>
      <trkpt lat="44.12442" lon="2.96831">
        <ele>768</ele>
        <time>2013-12-12T14:17:02Z</time>
      </trkpt>
      <trkpt lat="44.12438" lon="2.96833">
        <ele>769</ele>
        <time>2013-12-12T14:17:06Z</time>
      </trkpt>
      <trkpt lat="44.12432" lon="2.96835">
        <ele>770</ele>
        <time>2013-12-12T14:17:10Z</time>
      </trkpt>
      <trkpt lat="44.12428" lon="2.96835">
        <ele>771</ele>
        <time>2013-12-12T14:17:14Z</time>
      </trkpt>
      <trkpt lat="44.12423" lon="2.96835">
        <ele>771</ele>
        <time>2013-12-12T14:17:21Z</time>
      </trkpt>
      <trkpt lat="44.12418" lon="2.9684">
        <ele>772</ele>
        <time>2013-12-12T14:17:27Z</time>
      </trkpt>
      <trkpt lat="44.12414" lon="2.96843">
        <ele>772</ele>
        <time>2013-12-12T14:17:34Z</time>
      </trkpt>
      <trkpt lat="44.12409" lon="2.96846">
        <ele>773</ele>
        <time>2013-12-12T14:17:37Z</time>
      </trkpt>
      <trkpt lat="44.12405" lon="2.96853">
        <ele>775</ele>
        <time>2013-12-12T14:17:40Z</time>
      </trkpt>
      <trkpt lat="44.12401" lon="2.96857">
        <ele>777</ele>
        <time>2013-12-12T14:17:43Z</time>
      </trkpt>
      <trkpt lat="44.12396" lon="2.96857">
        <ele>777</ele>
        <time>2013-12-12T14:17:47Z</time>
      </trkpt>
      <trkpt lat="44.12391" lon="2.96858">
        <ele>775</ele>
        <time>2013-12-12T14:17:51Z</time>
      </trkpt>
      <trkpt lat="44.12392" lon="2.96862">
        <ele>774</ele>
        <time>2013-12-12T14:17:57Z</time>
      </trkpt>
      <trkpt lat="44.12387" lon="2.96865">
        <ele>775</ele>
        <time>2013-12-12T14:18:04Z</time>
      </trkpt>
      <trkpt lat="44.12382" lon="2.96867">
        <ele>777</ele>
        <time>2013-12-12T14:18:08Z</time>
      </trkpt>
      <trkpt lat="44.12377" lon="2.96868">
        <ele>777</ele>
        <time>2013-12-12T14:18:12Z</time>
      </trkpt>
      <trkpt lat="44.12377" lon="2.96864">
        <ele>777</ele>
        <time>2013-12-12T14:18:27Z</time>
      </trkpt>
      <trkpt lat="44.12371" lon="2.96868">
        <ele>778</ele>
        <time>2013-12-12T14:18:31Z</time>
      </trkpt>
      <trkpt lat="44.12366" lon="2.96873">
        <ele>778</ele>
        <time>2013-12-12T14:18:35Z</time>
      </trkpt>
      <trkpt lat="44.12362" lon="2.96878">
        <ele>779</ele>
        <time>2013-12-12T14:18:37Z</time>
      </trkpt>
      <trkpt lat="44.12358" lon="2.96881">
        <ele>779</ele>
        <time>2013-12-12T14:18:43Z</time>
      </trkpt>
      <trkpt lat="44.12353" lon="2.96885">
        <ele>778</ele>
        <time>2013-12-12T14:18:50Z</time>
      </trkpt>
      <trkpt lat="44.1235" lon="2.9689">
        <ele>778</ele>
        <time>2013-12-12T14:18:54Z</time>
      </trkpt>
      <trkpt lat="44.12346" lon="2.96894">
        <ele>777</ele>
        <time>2013-12-12T14:18:57Z</time>
      </trkpt>
      <trkpt lat="44.12341" lon="2.96898">
        <ele>777</ele>
        <time>2013-12-12T14:19:01Z</time>
      </trkpt>
      <trkpt lat="44.12337" lon="2.96902">
        <ele>776</ele>
        <time>2013-12-12T14:19:06Z</time>
      </trkpt>
      <trkpt lat="44.12334" lon="2.96906">
        <ele>776</ele>
        <time>2013-12-12T14:19:09Z</time>
      </trkpt>
      <trkpt lat="44.1233" lon="2.96912">
        <ele>775</ele>
        <time>2013-12-12T14:19:14Z</time>
      </trkpt>
      <trkpt lat="44.12327" lon="2.96918">
        <ele>775</ele>
        <time>2013-12-12T14:19:18Z</time>
      </trkpt>
      <trkpt lat="44.12317" lon="2.96927">
        <ele>777</ele>
        <time>2013-12-12T14:19:22Z</time>
      </trkpt>
      <trkpt lat="44.12316" lon="2.96931">
        <ele>780</ele>
        <time>2013-12-12T14:19:23Z</time>
      </trkpt>
      <trkpt lat="44.12313" lon="2.96938">
        <ele>781</ele>
        <time>2013-12-12T14:19:28Z</time>
      </trkpt>
      <trkpt lat="44.12308" lon="2.96945">
        <ele>780</ele>
        <time>2013-12-12T14:19:38Z</time>
      </trkpt>
      <trkpt lat="44.12305" lon="2.9695">
        <ele>779</ele>
        <time>2013-12-12T14:19:42Z</time>
      </trkpt>
      <trkpt lat="44.12301" lon="2.96955">
        <ele>778</ele>
        <time>2013-12-12T14:19:47Z</time>
      </trkpt>
      <trkpt lat="44.12297" lon="2.96959">
        <ele>777</ele>
        <time>2013-12-12T14:19:51Z</time>
      </trkpt>
      <trkpt lat="44.12293" lon="2.96962">
        <ele>776</ele>
        <time>2013-12-12T14:19:56Z</time>
      </trkpt>
      <trkpt lat="44.12288" lon="2.96965">
        <ele>776</ele>
        <time>2013-12-12T14:20:00Z</time>
      </trkpt>
      <trkpt lat="44.12283" lon="2.96968">
        <ele>776</ele>
        <time>2013-12-12T14:20:05Z</time>
      </trkpt>
      <trkpt lat="44.12277" lon="2.96969">
        <ele>775</ele>
        <time>2013-12-12T14:20:08Z</time>
      </trkpt>
      <trkpt lat="44.12273" lon="2.96971">
        <ele>775</ele>
        <time>2013-12-12T14:20:12Z</time>
      </trkpt>
      <trkpt lat="44.12268" lon="2.96975">
        <ele>774</ele>
        <time>2013-12-12T14:20:16Z</time>
      </trkpt>
      <trkpt lat="44.12264" lon="2.96979">
        <ele>774</ele>
        <time>2013-12-12T14:20:20Z</time>
      </trkpt>
      <trkpt lat="44.1226" lon="2.96983">
        <ele>773</ele>
        <time>2013-12-12T14:20:25Z</time>
      </trkpt>
      <trkpt lat="44.12256" lon="2.96987">
        <ele>774</ele>
        <time>2013-12-12T14:20:28Z</time>
      </trkpt>
      <trkpt lat="44.12251" lon="2.9699">
        <ele>774</ele>
        <time>2013-12-12T14:20:32Z</time>
      </trkpt>
      <trkpt lat="44.12247" lon="2.96993">
        <ele>774</ele>
        <time>2013-12-12T14:20:36Z</time>
      </trkpt>
      <trkpt lat="44.12243" lon="2.96995">
        <ele>774</ele>
        <time>2013-12-12T14:20:40Z</time>
      </trkpt>
      <trkpt lat="44.12238" lon="2.96996">
        <ele>774</ele>
        <time>2013-12-12T14:20:45Z</time>
      </trkpt>
      <trkpt lat="44.12233" lon="2.96997">
        <ele>774</ele>
        <time>2013-12-12T14:20:50Z</time>
      </trkpt>
      <trkpt lat="44.12228" lon="2.96997">
        <ele>775</ele>
        <time>2013-12-12T14:20:52Z</time>
      </trkpt>
      <trkpt lat="44.12223" lon="2.96997">
        <ele>775</ele>
        <time>2013-12-12T14:20:55Z</time>
      </trkpt>
      <trkpt lat="44.12218" lon="2.96997">
        <ele>775</ele>
        <time>2013-12-12T14:20:59Z</time>
      </trkpt>
      <trkpt lat="44.12213" lon="2.96996">
        <ele>773</ele>
        <time>2013-12-12T14:21:05Z</time>
      </trkpt>
      <trkpt lat="44.12209" lon="2.96996">
        <ele>771</ele>
        <time>2013-12-12T14:21:10Z</time>
      </trkpt>
      <trkpt lat="44.12203" lon="2.96997">
        <ele>770</ele>
        <time>2013-12-12T14:21:15Z</time>
      </trkpt>
      <trkpt lat="44.12198" lon="2.96998">
        <ele>770</ele>
        <time>2013-12-12T14:21:19Z</time>
      </trkpt>
      <trkpt lat="44.12193" lon="2.97002">
        <ele>770</ele>
        <time>2013-12-12T14:21:24Z</time>
      </trkpt>
      <trkpt lat="44.12189" lon="2.97006">
        <ele>770</ele>
        <time>2013-12-12T14:21:28Z</time>
      </trkpt>
      <trkpt lat="44.12185" lon="2.97011">
        <ele>771</ele>
        <time>2013-12-12T14:21:32Z</time>
      </trkpt>
      <trkpt lat="44.12181" lon="2.97016">
        <ele>771</ele>
        <time>2013-12-12T14:21:36Z</time>
      </trkpt>
      <trkpt lat="44.12177" lon="2.97021">
        <ele>771</ele>
        <time>2013-12-12T14:21:40Z</time>
      </trkpt>
      <trkpt lat="44.12172" lon="2.97025">
        <ele>771</ele>
        <time>2013-12-12T14:21:44Z</time>
      </trkpt>
      <trkpt lat="44.12169" lon="2.9703">
        <ele>771</ele>
        <time>2013-12-12T14:21:48Z</time>
      </trkpt>
      <trkpt lat="44.12166" lon="2.97034">
        <ele>770</ele>
        <time>2013-12-12T14:21:52Z</time>
      </trkpt>
      <trkpt lat="44.12163" lon="2.97038">
        <ele>770</ele>
        <time>2013-12-12T14:21:56Z</time>
      </trkpt>
      <trkpt lat="44.12158" lon="2.97041">
        <ele>770</ele>
        <time>2013-12-12T14:22:03Z</time>
      </trkpt>
      <trkpt lat="44.12154" lon="2.97043">
        <ele>771</ele>
        <time>2013-12-12T14:22:07Z</time>
      </trkpt>
      <trkpt lat="44.12149" lon="2.97044">
        <ele>770</ele>
        <time>2013-12-12T14:22:11Z</time>
      </trkpt>
      <trkpt lat="44.12144" lon="2.97045">
        <ele>770</ele>
        <time>2013-12-12T14:22:18Z</time>
      </trkpt>
      <trkpt lat="44.1214" lon="2.97047">
        <ele>770</ele>
        <time>2013-12-12T14:22:22Z</time>
      </trkpt>
      <trkpt lat="44.12134" lon="2.9705">
        <ele>770</ele>
        <time>2013-12-12T14:22:27Z</time>
      </trkpt>
      <trkpt lat="44.12129" lon="2.97051">
        <ele>770</ele>
        <time>2013-12-12T14:22:32Z</time>
      </trkpt>
      <trkpt lat="44.12125" lon="2.97049">
        <ele>770</ele>
        <time>2013-12-12T14:22:37Z</time>
      </trkpt>
      <trkpt lat="44.1212" lon="2.97049">
        <ele>770</ele>
        <time>2013-12-12T14:22:42Z</time>
      </trkpt>
      <trkpt lat="44.12115" lon="2.97048">
        <ele>769</ele>
        <time>2013-12-12T14:22:45Z</time>
      </trkpt>
      <trkpt lat="44.12112" lon="2.97044">
        <ele>769</ele>
        <time>2013-12-12T14:22:49Z</time>
      </trkpt>
      <trkpt lat="44.12107" lon="2.97044">
        <ele>769</ele>
        <time>2013-12-12T14:22:53Z</time>
      </trkpt>
      <trkpt lat="44.12102" lon="2.97043">
        <ele>768</ele>
        <time>2013-12-12T14:22:58Z</time>
      </trkpt>
      <trkpt lat="44.12098" lon="2.97038">
        <ele>767</ele>
        <time>2013-12-12T14:23:03Z</time>
      </trkpt>
      <trkpt lat="44.12094" lon="2.97035">
        <ele>766</ele>
        <time>2013-12-12T14:23:09Z</time>
      </trkpt>
      <trkpt lat="44.12089" lon="2.97031">
        <ele>764</ele>
        <time>2013-12-12T14:23:18Z</time>
      </trkpt>
      <trkpt lat="44.12084" lon="2.97027">
        <ele>762</ele>
        <time>2013-12-12T14:23:22Z</time>
      </trkpt>
      <trkpt lat="44.12079" lon="2.97025">
        <ele>761</ele>
        <time>2013-12-12T14:23:27Z</time>
      </trkpt>
      <trkpt lat="44.12074" lon="2.97023">
        <ele>761</ele>
        <time>2013-12-12T14:23:31Z</time>
      </trkpt>
      <trkpt lat="44.1207" lon="2.9702">
        <ele>761</ele>
        <time>2013-12-12T14:23:34Z</time>
      </trkpt>
      <trkpt lat="44.12066" lon="2.97016">
        <ele>761</ele>
        <time>2013-12-12T14:23:38Z</time>
      </trkpt>
      <trkpt lat="44.12062" lon="2.97012">
        <ele>761</ele>
        <time>2013-12-12T14:23:42Z</time>
      </trkpt>
      <trkpt lat="44.12059" lon="2.97008">
        <ele>761</ele>
        <time>2013-12-12T14:23:46Z</time>
      </trkpt>
      <trkpt lat="44.12054" lon="2.97005">
        <ele>761</ele>
        <time>2013-12-12T14:23:51Z</time>
      </trkpt>
      <trkpt lat="44.1205" lon="2.97002">
        <ele>760</ele>
        <time>2013-12-12T14:23:55Z</time>
      </trkpt>
      <trkpt lat="44.12045" lon="2.97003">
        <ele>759</ele>
        <time>2013-12-12T14:23:59Z</time>
      </trkpt>
      <trkpt lat="44.1204" lon="2.97003">
        <ele>759</ele>
        <time>2013-12-12T14:24:06Z</time>
      </trkpt>
      <trkpt lat="44.12035" lon="2.97002">
        <ele>758</ele>
        <time>2013-12-12T14:24:13Z</time>
      </trkpt>
      <trkpt lat="44.12031" lon="2.96996">
        <ele>757</ele>
        <time>2013-12-12T14:24:17Z</time>
      </trkpt>
      <trkpt lat="44.12028" lon="2.9699">
        <ele>756</ele>
        <time>2013-12-12T14:24:20Z</time>
      </trkpt>
      <trkpt lat="44.12028" lon="2.96983">
        <ele>756</ele>
        <time>2013-12-12T14:24:25Z</time>
      </trkpt>
      <trkpt lat="44.12029" lon="2.96976">
        <ele>756</ele>
        <time>2013-12-12T14:24:29Z</time>
      </trkpt>
      <trkpt lat="44.12027" lon="2.96969">
        <ele>754</ele>
        <time>2013-12-12T14:24:35Z</time>
      </trkpt>
      <trkpt lat="44.12023" lon="2.96964">
        <ele>754</ele>
        <time>2013-12-12T14:24:39Z</time>
      </trkpt>
      <trkpt lat="44.12019" lon="2.96962">
        <ele>751</ele>
        <time>2013-12-12T14:25:18Z</time>
      </trkpt>
      <trkpt lat="44.12015" lon="2.96959">
        <ele>751</ele>
        <time>2013-12-12T14:25:25Z</time>
      </trkpt>
      <trkpt lat="44.1201" lon="2.96954">
        <ele>748</ele>
        <time>2013-12-12T14:25:38Z</time>
      </trkpt>
      <trkpt lat="44.12012" lon="2.96953">
        <ele>743</ele>
        <time>2013-12-12T14:27:00Z</time>
      </trkpt>
      <trkpt lat="44.12012" lon="2.96946">
        <ele>745</ele>
        <time>2013-12-12T14:27:37Z</time>
      </trkpt>
      <trkpt lat="44.12008" lon="2.96942">
        <ele>747</ele>
        <time>2013-12-12T14:27:41Z</time>
      </trkpt>
      <trkpt lat="44.12006" lon="2.96936">
        <ele>748</ele>
        <time>2013-12-12T14:27:46Z</time>
      </trkpt>
      <trkpt lat="44.12005" lon="2.96929">
        <ele>748</ele>
        <time>2013-12-12T14:27:50Z</time>
      </trkpt>
      <trkpt lat="44.12005" lon="2.96923">
        <ele>748</ele>
        <time>2013-12-12T14:27:53Z</time>
      </trkpt>
      <trkpt lat="44.12003" lon="2.96916">
        <ele>749</ele>
        <time>2013-12-12T14:27:57Z</time>
      </trkpt>
      <trkpt lat="44.12001" lon="2.96904">
        <ele>749</ele>
        <time>2013-12-12T14:28:04Z</time>
      </trkpt>
      <trkpt lat="44.11998" lon="2.96899">
        <ele>749</ele>
        <time>2013-12-12T14:28:07Z</time>
      </trkpt>
      <trkpt lat="44.12" lon="2.96893">
        <ele>747</ele>
        <time>2013-12-12T14:28:23Z</time>
      </trkpt>
      <trkpt lat="44.11996" lon="2.96879">
        <ele>746</ele>
        <time>2013-12-12T14:28:30Z</time>
      </trkpt>
      <trkpt lat="44.1199" lon="2.96869">
        <ele>744</ele>
        <time>2013-12-12T14:28:37Z</time>
      </trkpt>
      <trkpt lat="44.11987" lon="2.96857">
        <ele>743</ele>
        <time>2013-12-12T14:28:43Z</time>
      </trkpt>
      <trkpt lat="44.11986" lon="2.9685">
        <ele>741</ele>
        <time>2013-12-12T14:28:49Z</time>
      </trkpt>
      <trkpt lat="44.11983" lon="2.96843">
        <ele>739</ele>
        <time>2013-12-12T14:29:01Z</time>
      </trkpt>
      <trkpt lat="44.11979" lon="2.96838">
        <ele>738</ele>
        <time>2013-12-12T14:29:03Z</time>
      </trkpt>
      <trkpt lat="44.11975" lon="2.96832">
        <ele>738</ele>
        <time>2013-12-12T14:29:07Z</time>
      </trkpt>
      <trkpt lat="44.11971" lon="2.96827">
        <ele>738</ele>
        <time>2013-12-12T14:29:11Z</time>
      </trkpt>
      <trkpt lat="44.11967" lon="2.96823">
        <ele>737</ele>
        <time>2013-12-12T14:29:15Z</time>
      </trkpt>
      <trkpt lat="44.11963" lon="2.96817">
        <ele>736</ele>
        <time>2013-12-12T14:29:22Z</time>
      </trkpt>
      <trkpt lat="44.1196" lon="2.9681">
        <ele>735</ele>
        <time>2013-12-12T14:29:27Z</time>
      </trkpt>
      <trkpt lat="44.11956" lon="2.96806">
        <ele>735</ele>
        <time>2013-12-12T14:29:31Z</time>
      </trkpt>
      <trkpt lat="44.11952" lon="2.96803">
        <ele>735</ele>
        <time>2013-12-12T14:29:34Z</time>
      </trkpt>
      <trkpt lat="44.11947" lon="2.96797">
        <ele>733</ele>
        <time>2013-12-12T14:29:39Z</time>
      </trkpt>
      <trkpt lat="44.11935" lon="2.96777">
        <ele>725</ele>
        <time>2013-12-12T14:30:00Z</time>
      </trkpt>
      <trkpt lat="44.1193" lon="2.96773">
        <ele>724</ele>
        <time>2013-12-12T14:30:05Z</time>
      </trkpt>
      <trkpt lat="44.11926" lon="2.96769">
        <ele>723</ele>
        <time>2013-12-12T14:30:10Z</time>
      </trkpt>
      <trkpt lat="44.11926" lon="2.96766">
        <ele>722</ele>
        <time>2013-12-12T14:30:16Z</time>
      </trkpt>
      <trkpt lat="44.11923" lon="2.9676">
        <ele>721</ele>
        <time>2013-12-12T14:30:19Z</time>
      </trkpt>
      <trkpt lat="44.1192" lon="2.96756">
        <ele>720</ele>
        <time>2013-12-12T14:30:23Z</time>
      </trkpt>
      <trkpt lat="44.11915" lon="2.96753">
        <ele>719</ele>
        <time>2013-12-12T14:30:27Z</time>
      </trkpt>
      <trkpt lat="44.1191" lon="2.96753">
        <ele>718</ele>
        <time>2013-12-12T14:30:30Z</time>
      </trkpt>
      <trkpt lat="44.11905" lon="2.9675">
        <ele>716</ele>
        <time>2013-12-12T14:30:35Z</time>
      </trkpt>
      <trkpt lat="44.11906" lon="2.96742">
        <ele>715</ele>
        <time>2013-12-12T14:30:40Z</time>
      </trkpt>
      <trkpt lat="44.11904" lon="2.96742">
        <ele>713</ele>
        <time>2013-12-12T14:30:58Z</time>
      </trkpt>
      <trkpt lat="44.11899" lon="2.96743">
        <ele>712</ele>
        <time>2013-12-12T14:31:07Z</time>
      </trkpt>
      <trkpt lat="44.11895" lon="2.96739">
        <ele>706</ele>
        <time>2013-12-12T14:31:16Z</time>
      </trkpt>
      <trkpt lat="44.1189" lon="2.96739">
        <ele>705</ele>
        <time>2013-12-12T14:31:22Z</time>
      </trkpt>
      <trkpt lat="44.11889" lon="2.96739">
        <ele>704</ele>
        <time>2013-12-12T14:31:53Z</time>
      </trkpt>
      <trkpt lat="44.1189" lon="2.9673">
        <ele>704</ele>
        <time>2013-12-12T14:32:15Z</time>
      </trkpt>
      <trkpt lat="44.11888" lon="2.96732">
        <ele>711</ele>
        <time>2013-12-12T14:33:38Z</time>
      </trkpt>
      <trkpt lat="44.11884" lon="2.96734">
        <ele>711</ele>
        <time>2013-12-12T14:33:45Z</time>
      </trkpt>
      <trkpt lat="44.11879" lon="2.96733">
        <ele>711</ele>
        <time>2013-12-12T14:33:52Z</time>
      </trkpt>
      <trkpt lat="44.11875" lon="2.96731">
        <ele>710</ele>
        <time>2013-12-12T14:34:01Z</time>
      </trkpt>
      <trkpt lat="44.1187" lon="2.96732">
        <ele>708</ele>
        <time>2013-12-12T14:34:07Z</time>
      </trkpt>
      <trkpt lat="44.11865" lon="2.9673">
        <ele>707</ele>
        <time>2013-12-12T14:34:11Z</time>
      </trkpt>
      <trkpt lat="44.11861" lon="2.96726">
        <ele>704</ele>
        <time>2013-12-12T14:34:18Z</time>
      </trkpt>
      <trkpt lat="44.11846" lon="2.96723">
        <ele>697</ele>
        <time>2013-12-12T14:34:32Z</time>
      </trkpt>
      <trkpt lat="44.11838" lon="2.96731">
        <ele>691</ele>
        <time>2013-12-12T14:34:44Z</time>
      </trkpt>
      <trkpt lat="44.11835" lon="2.96738">
        <ele>689</ele>
        <time>2013-12-12T14:34:48Z</time>
      </trkpt>
      <trkpt lat="44.11831" lon="2.96743">
        <ele>689</ele>
        <time>2013-12-12T14:34:52Z</time>
      </trkpt>
      <trkpt lat="44.11826" lon="2.9674">
        <ele>687</ele>
        <time>2013-12-12T14:34:58Z</time>
      </trkpt>
      <trkpt lat="44.1182" lon="2.96737">
        <ele>686</ele>
        <time>2013-12-12T14:35:01Z</time>
      </trkpt>
      <trkpt lat="44.11817" lon="2.96731">
        <ele>683</ele>
        <time>2013-12-12T14:35:08Z</time>
      </trkpt>
      <trkpt lat="44.11814" lon="2.96727">
        <ele>682</ele>
        <time>2013-12-12T14:35:11Z</time>
      </trkpt>
      <trkpt lat="44.11809" lon="2.96723">
        <ele>680</ele>
        <time>2013-12-12T14:35:15Z</time>
      </trkpt>
      <trkpt lat="44.11804" lon="2.96719">
        <ele>679</ele>
        <time>2013-12-12T14:35:19Z</time>
      </trkpt>
      <trkpt lat="44.118" lon="2.96717">
        <ele>679</ele>
        <time>2013-12-12T14:35:22Z</time>
      </trkpt>
      <trkpt lat="44.11796" lon="2.96713">
        <ele>678</ele>
        <time>2013-12-12T14:35:26Z</time>
      </trkpt>
      <trkpt lat="44.11792" lon="2.96708">
        <ele>678</ele>
        <time>2013-12-12T14:35:29Z</time>
      </trkpt>
      <trkpt lat="44.11789" lon="2.96703">
        <ele>676</ele>
        <time>2013-12-12T14:35:34Z</time>
      </trkpt>
      <trkpt lat="44.11784" lon="2.967">
        <ele>675</ele>
        <time>2013-12-12T14:35:42Z</time>
      </trkpt>
      <trkpt lat="44.1178" lon="2.96695">
        <ele>676</ele>
        <time>2013-12-12T14:35:45Z</time>
      </trkpt>
      <trkpt lat="44.11777" lon="2.96691">
        <ele>676</ele>
        <time>2013-12-12T14:35:49Z</time>
      </trkpt>
      <trkpt lat="44.11773" lon="2.96686">
        <ele>678</ele>
        <time>2013-12-12T14:35:55Z</time>
      </trkpt>
      <trkpt lat="44.11769" lon="2.96688">
        <ele>678</ele>
        <time>2013-12-12T14:36:01Z</time>
      </trkpt>
      <trkpt lat="44.11763" lon="2.96691">
        <ele>678</ele>
        <time>2013-12-12T14:36:04Z</time>
      </trkpt>
      <trkpt lat="44.11758" lon="2.96695">
        <ele>678</ele>
        <time>2013-12-12T14:36:08Z</time>
      </trkpt>
      <trkpt lat="44.11753" lon="2.96696">
        <ele>677</ele>
        <time>2013-12-12T14:36:11Z</time>
      </trkpt>
      <trkpt lat="44.11751" lon="2.96697">
        <ele>677</ele>
        <time>2013-12-12T14:36:17Z</time>
      </trkpt>
      <trkpt lat="44.11746" lon="2.96699">
        <ele>675</ele>
        <time>2013-12-12T14:36:24Z</time>
      </trkpt>
      <trkpt lat="44.11742" lon="2.96703">
        <ele>674</ele>
        <time>2013-12-12T14:36:28Z</time>
      </trkpt>
      <trkpt lat="44.11737" lon="2.96706">
        <ele>673</ele>
        <time>2013-12-12T14:36:32Z</time>
      </trkpt>
      <trkpt lat="44.11733" lon="2.9671">
        <ele>672</ele>
        <time>2013-12-12T14:36:37Z</time>
      </trkpt>
      <trkpt lat="44.11729" lon="2.96711">
        <ele>672</ele>
        <time>2013-12-12T14:36:41Z</time>
      </trkpt>
      <trkpt lat="44.11724" lon="2.96714">
        <ele>672</ele>
        <time>2013-12-12T14:36:45Z</time>
      </trkpt>
      <trkpt lat="44.11719" lon="2.96716">
        <ele>672</ele>
        <time>2013-12-12T14:36:49Z</time>
      </trkpt>
      <trkpt lat="44.11714" lon="2.96716">
        <ele>672</ele>
        <time>2013-12-12T14:36:55Z</time>
      </trkpt>
      <trkpt lat="44.11711" lon="2.96721">
        <ele>675</ele>
        <time>2013-12-12T14:37:00Z</time>
      </trkpt>
      <trkpt lat="44.11707" lon="2.96724">
        <ele>676</ele>
        <time>2013-12-12T14:37:03Z</time>
      </trkpt>
      <trkpt lat="44.11703" lon="2.96727">
        <ele>678</ele>
        <time>2013-12-12T14:37:06Z</time>
      </trkpt>
      <trkpt lat="44.11698" lon="2.9673">
        <ele>679</ele>
        <time>2013-12-12T14:37:10Z</time>
      </trkpt>
      <trkpt lat="44.11694" lon="2.96734">
        <ele>682</ele>
        <time>2013-12-12T14:37:14Z</time>
      </trkpt>
      <trkpt lat="44.1169" lon="2.96736">
        <ele>683</ele>
        <time>2013-12-12T14:37:18Z</time>
      </trkpt>
      <trkpt lat="44.11685" lon="2.96739">
        <ele>683</ele>
        <time>2013-12-12T14:37:23Z</time>
      </trkpt>
      <trkpt lat="44.11681" lon="2.96737">
        <ele>683</ele>
        <time>2013-12-12T14:37:28Z</time>
      </trkpt>
      <trkpt lat="44.11676" lon="2.96736">
        <ele>684</ele>
        <time>2013-12-12T14:37:32Z</time>
      </trkpt>
      <trkpt lat="44.11679" lon="2.96736">
        <ele>684</ele>
        <time>2013-12-12T14:38:26Z</time>
      </trkpt>
      <trkpt lat="44.11678" lon="2.96735">
        <ele>685</ele>
        <time>2013-12-12T14:38:45Z</time>
      </trkpt>
      <trkpt lat="44.11673" lon="2.96736">
        <ele>685</ele>
        <time>2013-12-12T14:38:58Z</time>
      </trkpt>
      <trkpt lat="44.11668" lon="2.96737">
        <ele>685</ele>
        <time>2013-12-12T14:39:00Z</time>
      </trkpt>
      <trkpt lat="44.11664" lon="2.96735">
        <ele>687</ele>
        <time>2013-12-12T14:39:08Z</time>
      </trkpt>
      <trkpt lat="44.1166" lon="2.96733">
        <ele>688</ele>
        <time>2013-12-12T14:39:14Z</time>
      </trkpt>
      <trkpt lat="44.11653" lon="2.9673">
        <ele>687</ele>
        <time>2013-12-12T14:39:25Z</time>
      </trkpt>
      <trkpt lat="44.1165" lon="2.96724">
        <ele>687</ele>
        <time>2013-12-12T14:39:34Z</time>
      </trkpt>
      <trkpt lat="44.11646" lon="2.96722">
        <ele>688</ele>
        <time>2013-12-12T14:39:38Z</time>
      </trkpt>
      <trkpt lat="44.11641" lon="2.96721">
        <ele>688</ele>
        <time>2013-12-12T14:39:43Z</time>
      </trkpt>
      <trkpt lat="44.11639" lon="2.9672">
        <ele>690</ele>
        <time>2013-12-12T14:39:54Z</time>
      </trkpt>
      <trkpt lat="44.11634" lon="2.96717">
        <ele>691</ele>
        <time>2013-12-12T14:40:00Z</time>
      </trkpt>
      <trkpt lat="44.11632" lon="2.96712">
        <ele>694</ele>
        <time>2013-12-12T14:40:07Z</time>
      </trkpt>
      <trkpt lat="44.11628" lon="2.96711">
        <ele>696</ele>
        <time>2013-12-12T14:40:22Z</time>
      </trkpt>
      <trkpt lat="44.11622" lon="2.9671">
        <ele>699</ele>
        <time>2013-12-12T14:40:29Z</time>
      </trkpt>
      <trkpt lat="44.11617" lon="2.96711">
        <ele>699</ele>
        <time>2013-12-12T14:40:32Z</time>
      </trkpt>
      <trkpt lat="44.11613" lon="2.96709">
        <ele>701</ele>
        <time>2013-12-12T14:40:37Z</time>
      </trkpt>
      <trkpt lat="44.11608" lon="2.96708">
        <ele>702</ele>
        <time>2013-12-12T14:40:41Z</time>
      </trkpt>
      <trkpt lat="44.11605" lon="2.96703">
        <ele>703</ele>
        <time>2013-12-12T14:40:48Z</time>
      </trkpt>
      <trkpt lat="44.11601" lon="2.96699">
        <ele>703</ele>
        <time>2013-12-12T14:40:53Z</time>
      </trkpt>
      <trkpt lat="44.11599" lon="2.96693">
        <ele>704</ele>
        <time>2013-12-12T14:40:58Z</time>
      </trkpt>
      <trkpt lat="44.11596" lon="2.96688">
        <ele>705</ele>
        <time>2013-12-12T14:41:05Z</time>
      </trkpt>
      <trkpt lat="44.11596" lon="2.96681">
        <ele>706</ele>
        <time>2013-12-12T14:41:08Z</time>
      </trkpt>
      <trkpt lat="44.11596" lon="2.96675">
        <ele>707</ele>
        <time>2013-12-12T14:41:13Z</time>
      </trkpt>
      <trkpt lat="44.11598" lon="2.96672">
        <ele>707</ele>
        <time>2013-12-12T14:41:20Z</time>
      </trkpt>
      <trkpt lat="44.11593" lon="2.96666">
        <ele>706</ele>
        <time>2013-12-12T14:41:32Z</time>
      </trkpt>
      <trkpt lat="44.11593" lon="2.96662">
        <ele>705</ele>
        <time>2013-12-12T14:41:40Z</time>
      </trkpt>
      <trkpt lat="44.11596" lon="2.96657">
        <ele>713</ele>
        <time>2013-12-12T14:43:00Z</time>
      </trkpt>
      <trkpt lat="44.11592" lon="2.96655">
        <ele>713</ele>
        <time>2013-12-12T14:43:10Z</time>
      </trkpt>
      <trkpt lat="44.11592" lon="2.96651">
        <ele>713</ele>
        <time>2013-12-12T14:43:16Z</time>
      </trkpt>
      <trkpt lat="44.11591" lon="2.96647">
        <ele>715</ele>
        <time>2013-12-12T14:43:28Z</time>
      </trkpt>
      <trkpt lat="44.11593" lon="2.96641">
        <ele>714</ele>
        <time>2013-12-12T14:43:36Z</time>
      </trkpt>
      <trkpt lat="44.11599" lon="2.96639">
        <ele>715</ele>
        <time>2013-12-12T14:43:49Z</time>
      </trkpt>
      <trkpt lat="44.11604" lon="2.96637">
        <ele>714</ele>
        <time>2013-12-12T14:44:17Z</time>
      </trkpt>
      <trkpt lat="44.11608" lon="2.96636">
        <ele>714</ele>
        <time>2013-12-12T14:44:21Z</time>
      </trkpt>
      <trkpt lat="44.11613" lon="2.96634">
        <ele>713</ele>
        <time>2013-12-12T14:44:27Z</time>
      </trkpt>
      <trkpt lat="44.11614" lon="2.96631">
        <ele>712</ele>
        <time>2013-12-12T14:44:43Z</time>
      </trkpt>
      <trkpt lat="44.11609" lon="2.96628">
        <ele>714</ele>
        <time>2013-12-12T14:44:48Z</time>
      </trkpt>
      <trkpt lat="44.11606" lon="2.96632">
        <ele>718</ele>
        <time>2013-12-12T14:45:15Z</time>
      </trkpt>
      <trkpt lat="44.116" lon="2.96636">
        <ele>720</ele>
        <time>2013-12-12T14:45:34Z</time>
      </trkpt>
      <trkpt lat="44.11599" lon="2.96632">
        <ele>720</ele>
        <time>2013-12-12T14:46:07Z</time>
      </trkpt>
      <trkpt lat="44.11602" lon="2.96626">
        <ele>720</ele>
        <time>2013-12-12T14:46:13Z</time>
      </trkpt>
      <trkpt lat="44.11604" lon="2.9662">
        <ele>719</ele>
        <time>2013-12-12T14:46:18Z</time>
      </trkpt>
      <trkpt lat="44.11607" lon="2.96618">
        <ele>718</ele>
        <time>2013-12-12T14:46:26Z</time>
      </trkpt>
      <trkpt lat="44.11608" lon="2.96609">
        <ele>720</ele>
        <time>2013-12-12T14:46:30Z</time>
      </trkpt>
      <trkpt lat="44.11609" lon="2.96602">
        <ele>722</ele>
        <time>2013-12-12T14:46:32Z</time>
      </trkpt>
      <trkpt lat="44.1161" lon="2.96595">
        <ele>723</ele>
        <time>2013-12-12T14:46:34Z</time>
      </trkpt>
      <trkpt lat="44.11609" lon="2.96592">
        <ele>724</ele>
        <time>2013-12-12T14:46:41Z</time>
      </trkpt>
      <trkpt lat="44.11608" lon="2.96585">
        <ele>724</ele>
        <time>2013-12-12T14:46:47Z</time>
      </trkpt>
      <trkpt lat="44.11608" lon="2.96578">
        <ele>723</ele>
        <time>2013-12-12T14:46:54Z</time>
      </trkpt>
      <trkpt lat="44.1161" lon="2.96571">
        <ele>721</ele>
        <time>2013-12-12T14:47:03Z</time>
      </trkpt>
      <trkpt lat="44.1161" lon="2.96564">
        <ele>722</ele>
        <time>2013-12-12T14:47:07Z</time>
      </trkpt>
      <trkpt lat="44.11608" lon="2.96556">
        <ele>724</ele>
        <time>2013-12-12T14:47:10Z</time>
      </trkpt>
      <trkpt lat="44.11609" lon="2.96549">
        <ele>725</ele>
        <time>2013-12-12T14:47:14Z</time>
      </trkpt>
      <trkpt lat="44.11612" lon="2.96493">
        <ele>746</ele>
        <time>2013-12-12T14:47:46Z</time>
      </trkpt>
      <trkpt lat="44.11613" lon="2.96487">
        <ele>749</ele>
        <time>2013-12-12T14:47:53Z</time>
      </trkpt>
      <trkpt lat="44.11612" lon="2.96484">
        <ele>748</ele>
        <time>2013-12-12T14:47:59Z</time>
      </trkpt>
      <trkpt lat="44.11612" lon="2.96477">
        <ele>748</ele>
        <time>2013-12-12T14:48:04Z</time>
      </trkpt>
      <trkpt lat="44.11613" lon="2.9647">
        <ele>747</ele>
        <time>2013-12-12T14:48:08Z</time>
      </trkpt>
      <trkpt lat="44.11614" lon="2.96461">
        <ele>748</ele>
        <time>2013-12-12T14:48:11Z</time>
      </trkpt>
      <trkpt lat="44.11615" lon="2.96454">
        <ele>748</ele>
        <time>2013-12-12T14:48:13Z</time>
      </trkpt>
      <trkpt lat="44.1162" lon="2.96455">
        <ele>743</ele>
        <time>2013-12-12T14:48:23Z</time>
      </trkpt>
      <trkpt lat="44.11624" lon="2.96453">
        <ele>739</ele>
        <time>2013-12-12T14:48:29Z</time>
      </trkpt>
      <trkpt lat="44.11626" lon="2.96445">
        <ele>736</ele>
        <time>2013-12-12T14:48:33Z</time>
      </trkpt>
      <trkpt lat="44.11628" lon="2.96438">
        <ele>734</ele>
        <time>2013-12-12T14:48:36Z</time>
      </trkpt>
      <trkpt lat="44.11628" lon="2.96431">
        <ele>732</ele>
        <time>2013-12-12T14:48:42Z</time>
      </trkpt>
      <trkpt lat="44.11633" lon="2.96428">
        <ele>728</ele>
        <time>2013-12-12T14:48:49Z</time>
      </trkpt>
      <trkpt lat="44.11635" lon="2.96423">
        <ele>728</ele>
        <time>2013-12-12T14:48:53Z</time>
      </trkpt>
      <trkpt lat="44.11637" lon="2.96416">
        <ele>726</ele>
        <time>2013-12-12T14:48:59Z</time>
      </trkpt>
      <trkpt lat="44.11637" lon="2.96409">
        <ele>726</ele>
        <time>2013-12-12T14:49:04Z</time>
      </trkpt>
      <trkpt lat="44.11639" lon="2.96403">
        <ele>726</ele>
        <time>2013-12-12T14:49:07Z</time>
      </trkpt>
      <trkpt lat="44.1164" lon="2.96395">
        <ele>726</ele>
        <time>2013-12-12T14:49:11Z</time>
      </trkpt>
      <trkpt lat="44.11641" lon="2.96389">
        <ele>727</ele>
        <time>2013-12-12T14:49:15Z</time>
      </trkpt>
      <trkpt lat="44.11642" lon="2.96383">
        <ele>727</ele>
        <time>2013-12-12T14:49:20Z</time>
      </trkpt>
      <trkpt lat="44.11643" lon="2.96376">
        <ele>729</ele>
        <time>2013-12-12T14:49:24Z</time>
      </trkpt>
      <trkpt lat="44.11646" lon="2.9637">
        <ele>730</ele>
        <time>2013-12-12T14:49:31Z</time>
      </trkpt>
      <trkpt lat="44.1165" lon="2.96372">
        <ele>730</ele>
        <time>2013-12-12T14:49:36Z</time>
      </trkpt>
      <trkpt lat="44.11654" lon="2.96368">
        <ele>730</ele>
        <time>2013-12-12T14:49:43Z</time>
      </trkpt>
      <trkpt lat="44.11654" lon="2.9636">
        <ele>729</ele>
        <time>2013-12-12T14:49:49Z</time>
      </trkpt>
      <trkpt lat="44.11653" lon="2.96352">
        <ele>729</ele>
        <time>2013-12-12T14:49:52Z</time>
      </trkpt>
      <trkpt lat="44.11653" lon="2.96346">
        <ele>729</ele>
        <time>2013-12-12T14:49:55Z</time>
      </trkpt>
      <trkpt lat="44.11652" lon="2.96339">
        <ele>729</ele>
        <time>2013-12-12T14:50:00Z</time>
      </trkpt>
      <trkpt lat="44.1165" lon="2.96333">
        <ele>728</ele>
        <time>2013-12-12T14:50:05Z</time>
      </trkpt>
      <trkpt lat="44.11651" lon="2.96326">
        <ele>729</ele>
        <time>2013-12-12T14:50:09Z</time>
      </trkpt>
      <trkpt lat="44.11652" lon="2.9632">
        <ele>729</ele>
        <time>2013-12-12T14:50:12Z</time>
      </trkpt>
      <trkpt lat="44.11651" lon="2.96312">
        <ele>729</ele>
        <time>2013-12-12T14:50:16Z</time>
      </trkpt>
      <trkpt lat="44.11651" lon="2.96305">
        <ele>729</ele>
        <time>2013-12-12T14:50:20Z</time>
      </trkpt>
      <trkpt lat="44.1165" lon="2.96299">
        <ele>729</ele>
        <time>2013-12-12T14:50:23Z</time>
      </trkpt>
      <trkpt lat="44.11648" lon="2.96292">
        <ele>730</ele>
        <time>2013-12-12T14:50:26Z</time>
      </trkpt>
      <trkpt lat="44.11648" lon="2.96285">
        <ele>731</ele>
        <time>2013-12-12T14:50:30Z</time>
      </trkpt>
      <trkpt lat="44.11648" lon="2.96278">
        <ele>732</ele>
        <time>2013-12-12T14:50:35Z</time>
      </trkpt>
      <trkpt lat="44.11647" lon="2.9627">
        <ele>733</ele>
        <time>2013-12-12T14:50:39Z</time>
      </trkpt>
      <trkpt lat="44.11645" lon="2.96264">
        <ele>734</ele>
        <time>2013-12-12T14:50:42Z</time>
      </trkpt>
      <trkpt lat="44.11644" lon="2.96258">
        <ele>734</ele>
        <time>2013-12-12T14:50:47Z</time>
      </trkpt>
      <trkpt lat="44.11643" lon="2.9625">
        <ele>733</ele>
        <time>2013-12-12T14:51:00Z</time>
      </trkpt>
      <trkpt lat="44.11644" lon="2.96242">
        <ele>732</ele>
        <time>2013-12-12T14:51:05Z</time>
      </trkpt>
      <trkpt lat="44.11645" lon="2.96236">
        <ele>731</ele>
        <time>2013-12-12T14:51:09Z</time>
      </trkpt>
      <trkpt lat="44.11644" lon="2.9623">
        <ele>730</ele>
        <time>2013-12-12T14:51:14Z</time>
      </trkpt>
      <trkpt lat="44.11645" lon="2.96222">
        <ele>729</ele>
        <time>2013-12-12T14:51:18Z</time>
      </trkpt>
      <trkpt lat="44.11646" lon="2.96215">
        <ele>729</ele>
        <time>2013-12-12T14:51:22Z</time>
      </trkpt>
      <trkpt lat="44.11646" lon="2.96208">
        <ele>730</ele>
        <time>2013-12-12T14:51:26Z</time>
      </trkpt>
      <trkpt lat="44.11645" lon="2.96202">
        <ele>731</ele>
        <time>2013-12-12T14:51:31Z</time>
      </trkpt>
      <trkpt lat="44.11645" lon="2.96195">
        <ele>730</ele>
        <time>2013-12-12T14:51:39Z</time>
      </trkpt>
      <trkpt lat="44.11644" lon="2.96189">
        <ele>730</ele>
        <time>2013-12-12T14:51:43Z</time>
      </trkpt>
      <trkpt lat="44.11643" lon="2.96181">
        <ele>731</ele>
        <time>2013-12-12T14:51:49Z</time>
      </trkpt>
      <trkpt lat="44.11646" lon="2.96178">
        <ele>731</ele>
        <time>2013-12-12T14:51:58Z</time>
      </trkpt>
      <trkpt lat="44.11646" lon="2.96171">
        <ele>731</ele>
        <time>2013-12-12T14:52:03Z</time>
      </trkpt>
      <trkpt lat="44.11643" lon="2.96166">
        <ele>730</ele>
        <time>2013-12-12T14:52:07Z</time>
      </trkpt>
      <trkpt lat="44.11645" lon="2.96159">
        <ele>728</ele>
        <time>2013-12-12T14:52:11Z</time>
      </trkpt>
      <trkpt lat="44.11649" lon="2.96154">
        <ele>727</ele>
        <time>2013-12-12T14:52:14Z</time>
      </trkpt>
      <trkpt lat="44.11654" lon="2.96151">
        <ele>727</ele>
        <time>2013-12-12T14:52:18Z</time>
      </trkpt>
      <trkpt lat="44.11658" lon="2.96147">
        <ele>728</ele>
        <time>2013-12-12T14:52:25Z</time>
      </trkpt>
      <trkpt lat="44.11662" lon="2.96143">
        <ele>728</ele>
        <time>2013-12-12T14:52:30Z</time>
      </trkpt>
      <trkpt lat="44.11665" lon="2.96138">
        <ele>729</ele>
        <time>2013-12-12T14:52:34Z</time>
      </trkpt>
      <trkpt lat="44.11666" lon="2.9613">
        <ele>727</ele>
        <time>2013-12-12T14:52:40Z</time>
      </trkpt>
      <trkpt lat="44.11669" lon="2.96124">
        <ele>726</ele>
        <time>2013-12-12T14:52:47Z</time>
      </trkpt>
      <trkpt lat="44.11671" lon="2.96119">
        <ele>725</ele>
        <time>2013-12-12T14:52:52Z</time>
      </trkpt>
      <trkpt lat="44.11675" lon="2.96115">
        <ele>725</ele>
        <time>2013-12-12T14:52:57Z</time>
      </trkpt>
      <trkpt lat="44.11679" lon="2.96111">
        <ele>724</ele>
        <time>2013-12-12T14:53:02Z</time>
      </trkpt>
      <trkpt lat="44.11682" lon="2.96106">
        <ele>724</ele>
        <time>2013-12-12T14:53:06Z</time>
      </trkpt>
      <trkpt lat="44.11684" lon="2.961">
        <ele>723</ele>
        <time>2013-12-12T14:53:11Z</time>
      </trkpt>
      <trkpt lat="44.11686" lon="2.96093">
        <ele>724</ele>
        <time>2013-12-12T14:53:15Z</time>
      </trkpt>
      <trkpt lat="44.11688" lon="2.96087">
        <ele>724</ele>
        <time>2013-12-12T14:53:19Z</time>
      </trkpt>
      <trkpt lat="44.11692" lon="2.9608">
        <ele>726</ele>
        <time>2013-12-12T14:53:22Z</time>
      </trkpt>
      <trkpt lat="44.11696" lon="2.96076">
        <ele>726</ele>
        <time>2013-12-12T14:53:27Z</time>
      </trkpt>
      <trkpt lat="44.117" lon="2.96072">
        <ele>727</ele>
        <time>2013-12-12T14:53:32Z</time>
      </trkpt>
      <trkpt lat="44.11703" lon="2.96067">
        <ele>727</ele>
        <time>2013-12-12T14:53:37Z</time>
      </trkpt>
      <trkpt lat="44.11707" lon="2.96062">
        <ele>725</ele>
        <time>2013-12-12T14:53:41Z</time>
      </trkpt>
      <trkpt lat="44.1171" lon="2.96055">
        <ele>724</ele>
        <time>2013-12-12T14:53:43Z</time>
      </trkpt>
      <trkpt lat="44.11713" lon="2.9605">
        <ele>725</ele>
        <time>2013-12-12T14:53:50Z</time>
      </trkpt>
      <trkpt lat="44.11714" lon="2.96043">
        <ele>725</ele>
        <time>2013-12-12T14:53:54Z</time>
      </trkpt>
      <trkpt lat="44.11714" lon="2.96036">
        <ele>726</ele>
        <time>2013-12-12T14:54:00Z</time>
      </trkpt>
      <trkpt lat="44.11716" lon="2.9603">
        <ele>728</ele>
        <time>2013-12-12T14:54:05Z</time>
      </trkpt>
      <trkpt lat="44.11719" lon="2.96025">
        <ele>729</ele>
        <time>2013-12-12T14:54:09Z</time>
      </trkpt>
      <trkpt lat="44.11723" lon="2.9602">
        <ele>731</ele>
        <time>2013-12-12T14:54:14Z</time>
      </trkpt>
      <trkpt lat="44.11725" lon="2.96014">
        <ele>732</ele>
        <time>2013-12-12T14:54:19Z</time>
      </trkpt>
      <trkpt lat="44.11728" lon="2.96009">
        <ele>733</ele>
        <time>2013-12-12T14:54:25Z</time>
      </trkpt>
      <trkpt lat="44.11731" lon="2.96004">
        <ele>733</ele>
        <time>2013-12-12T14:54:30Z</time>
      </trkpt>
      <trkpt lat="44.11732" lon="2.95997">
        <ele>733</ele>
        <time>2013-12-12T14:54:35Z</time>
      </trkpt>
      <trkpt lat="44.11734" lon="2.95991">
        <ele>734</ele>
        <time>2013-12-12T14:54:39Z</time>
      </trkpt>
      <trkpt lat="44.11736" lon="2.95986">
        <ele>734</ele>
        <time>2013-12-12T14:54:43Z</time>
      </trkpt>
      <trkpt lat="44.11739" lon="2.95979">
        <ele>735</ele>
        <time>2013-12-12T14:54:46Z</time>
      </trkpt>
      <trkpt lat="44.11743" lon="2.95975">
        <ele>733</ele>
        <time>2013-12-12T14:54:52Z</time>
      </trkpt>
      <trkpt lat="44.11747" lon="2.95972">
        <ele>733</ele>
        <time>2013-12-12T14:54:58Z</time>
      </trkpt>
      <trkpt lat="44.11752" lon="2.95969">
        <ele>732</ele>
        <time>2013-12-12T14:55:05Z</time>
      </trkpt>
      <trkpt lat="44.11756" lon="2.95964">
        <ele>732</ele>
        <time>2013-12-12T14:55:10Z</time>
      </trkpt>
      <trkpt lat="44.11758" lon="2.95957">
        <ele>733</ele>
        <time>2013-12-12T14:55:16Z</time>
      </trkpt>
      <trkpt lat="44.11761" lon="2.95952">
        <ele>733</ele>
        <time>2013-12-12T14:55:20Z</time>
      </trkpt>
      <trkpt lat="44.11764" lon="2.95948">
        <ele>731</ele>
        <time>2013-12-12T14:55:25Z</time>
      </trkpt>
      <trkpt lat="44.11763" lon="2.95941">
        <ele>731</ele>
        <time>2013-12-12T14:55:30Z</time>
      </trkpt>
      <trkpt lat="44.11762" lon="2.95935">
        <ele>731</ele>
        <time>2013-12-12T14:55:37Z</time>
      </trkpt>
      <trkpt lat="44.11761" lon="2.95929">
        <ele>731</ele>
        <time>2013-12-12T14:55:43Z</time>
      </trkpt>
      <trkpt lat="44.11759" lon="2.95922">
        <ele>731</ele>
        <time>2013-12-12T14:55:47Z</time>
      </trkpt>
      <trkpt lat="44.11758" lon="2.95915">
        <ele>731</ele>
        <time>2013-12-12T14:55:52Z</time>
      </trkpt>
      <trkpt lat="44.11757" lon="2.95909">
        <ele>730</ele>
        <time>2013-12-12T14:55:57Z</time>
      </trkpt>
      <trkpt lat="44.11753" lon="2.95903">
        <ele>730</ele>
        <time>2013-12-12T14:56:03Z</time>
      </trkpt>
      <trkpt lat="44.11751" lon="2.95897">
        <ele>729</ele>
        <time>2013-12-12T14:56:09Z</time>
      </trkpt>
      <trkpt lat="44.11749" lon="2.95891">
        <ele>730</ele>
        <time>2013-12-12T14:56:14Z</time>
      </trkpt>
      <trkpt lat="44.11747" lon="2.95885">
        <ele>732</ele>
        <time>2013-12-12T14:56:17Z</time>
      </trkpt>
      <trkpt lat="44.11746" lon="2.95878">
        <ele>732</ele>
        <time>2013-12-12T14:56:21Z</time>
      </trkpt>
      <trkpt lat="44.11746" lon="2.9587">
        <ele>734</ele>
        <time>2013-12-12T14:56:24Z</time>
      </trkpt>
      <trkpt lat="44.11746" lon="2.95864">
        <ele>734</ele>
        <time>2013-12-12T14:56:30Z</time>
      </trkpt>
      <trkpt lat="44.11744" lon="2.95858">
        <ele>735</ele>
        <time>2013-12-12T14:56:34Z</time>
      </trkpt>
      <trkpt lat="44.11744" lon="2.9585">
        <ele>734</ele>
        <time>2013-12-12T14:56:39Z</time>
      </trkpt>
      <trkpt lat="44.11744" lon="2.95844">
        <ele>733</ele>
        <time>2013-12-12T14:56:45Z</time>
      </trkpt>
      <trkpt lat="44.11744" lon="2.95837">
        <ele>732</ele>
        <time>2013-12-12T14:56:53Z</time>
      </trkpt>
      <trkpt lat="44.11743" lon="2.95831">
        <ele>731</ele>
        <time>2013-12-12T14:56:58Z</time>
      </trkpt>
      <trkpt lat="44.1174" lon="2.95826">
        <ele>731</ele>
        <time>2013-12-12T14:57:04Z</time>
      </trkpt>
      <trkpt lat="44.11738" lon="2.9582">
        <ele>730</ele>
        <time>2013-12-12T14:57:09Z</time>
      </trkpt>
      <trkpt lat="44.11739" lon="2.95813">
        <ele>731</ele>
        <time>2013-12-12T14:57:14Z</time>
      </trkpt>
      <trkpt lat="44.11735" lon="2.95808">
        <ele>731</ele>
        <time>2013-12-12T14:57:19Z</time>
      </trkpt>
      <trkpt lat="44.11733" lon="2.95802">
        <ele>731</ele>
        <time>2013-12-12T14:57:23Z</time>
      </trkpt>
      <trkpt lat="44.1173" lon="2.95796">
        <ele>730</ele>
        <time>2013-12-12T14:57:30Z</time>
      </trkpt>
      <trkpt lat="44.11728" lon="2.95794">
        <ele>730</ele>
        <time>2013-12-12T14:57:36Z</time>
      </trkpt>
      <trkpt lat="44.11724" lon="2.95788">
        <ele>730</ele>
        <time>2013-12-12T14:57:43Z</time>
      </trkpt>
      <trkpt lat="44.11721" lon="2.95783">
        <ele>730</ele>
        <time>2013-12-12T14:57:47Z</time>
      </trkpt>
      <trkpt lat="44.11718" lon="2.95777">
        <ele>728</ele>
        <time>2013-12-12T14:57:54Z</time>
      </trkpt>
      <trkpt lat="44.11714" lon="2.95773">
        <ele>727</ele>
        <time>2013-12-12T14:57:57Z</time>
      </trkpt>
      <trkpt lat="44.11712" lon="2.95765">
        <ele>727</ele>
        <time>2013-12-12T14:58:00Z</time>
      </trkpt>
      <trkpt lat="44.11711" lon="2.95759">
        <ele>727</ele>
        <time>2013-12-12T14:58:03Z</time>
      </trkpt>
      <trkpt lat="44.11708" lon="2.95753">
        <ele>728</ele>
        <time>2013-12-12T14:58:07Z</time>
      </trkpt>
      <trkpt lat="44.11709" lon="2.95747">
        <ele>729</ele>
        <time>2013-12-12T14:58:11Z</time>
      </trkpt>
      <trkpt lat="44.11709" lon="2.95739">
        <ele>729</ele>
        <time>2013-12-12T14:58:16Z</time>
      </trkpt>
      <trkpt lat="44.1171" lon="2.95732">
        <ele>728</ele>
        <time>2013-12-12T14:58:20Z</time>
      </trkpt>
      <trkpt lat="44.11708" lon="2.95726">
        <ele>728</ele>
        <time>2013-12-12T14:58:25Z</time>
      </trkpt>
      <trkpt lat="44.11706" lon="2.9572">
        <ele>729</ele>
        <time>2013-12-12T14:58:30Z</time>
      </trkpt>
      <trkpt lat="44.11704" lon="2.95713">
        <ele>730</ele>
        <time>2013-12-12T14:58:34Z</time>
      </trkpt>
      <trkpt lat="44.11701" lon="2.95705">
        <ele>733</ele>
        <time>2013-12-12T14:58:37Z</time>
      </trkpt>
      <trkpt lat="44.11701" lon="2.95698">
        <ele>735</ele>
        <time>2013-12-12T14:58:43Z</time>
      </trkpt>
      <trkpt lat="44.117" lon="2.95691">
        <ele>736</ele>
        <time>2013-12-12T14:58:47Z</time>
      </trkpt>
      <trkpt lat="44.11702" lon="2.95685">
        <ele>736</ele>
        <time>2013-12-12T14:58:53Z</time>
      </trkpt>
      <trkpt lat="44.11702" lon="2.95678">
        <ele>734</ele>
        <time>2013-12-12T14:58:58Z</time>
      </trkpt>
      <trkpt lat="44.11701" lon="2.95672">
        <ele>733</ele>
        <time>2013-12-12T14:59:06Z</time>
      </trkpt>
      <trkpt lat="44.11699" lon="2.95665">
        <ele>734</ele>
        <time>2013-12-12T14:59:11Z</time>
      </trkpt>
      <trkpt lat="44.11699" lon="2.95658">
        <ele>734</ele>
        <time>2013-12-12T14:59:15Z</time>
      </trkpt>
      <trkpt lat="44.11698" lon="2.95651">
        <ele>734</ele>
        <time>2013-12-12T14:59:22Z</time>
      </trkpt>
      <trkpt lat="44.11697" lon="2.95644">
        <ele>734</ele>
        <time>2013-12-12T14:59:27Z</time>
      </trkpt>
      <trkpt lat="44.117" lon="2.9564">
        <ele>735</ele>
        <time>2013-12-12T14:59:35Z</time>
      </trkpt>
      <trkpt lat="44.11705" lon="2.95636">
        <ele>734</ele>
        <time>2013-12-12T14:59:39Z</time>
      </trkpt>
      <trkpt lat="44.11709" lon="2.95632">
        <ele>733</ele>
        <time>2013-12-12T14:59:44Z</time>
      </trkpt>
      <trkpt lat="44.11709" lon="2.95626">
        <ele>732</ele>
        <time>2013-12-12T14:59:49Z</time>
      </trkpt>
      <trkpt lat="44.11708" lon="2.95618">
        <ele>732</ele>
        <time>2013-12-12T14:59:55Z</time>
      </trkpt>
      <trkpt lat="44.11706" lon="2.95613">
        <ele>731</ele>
        <time>2013-12-12T15:00:01Z</time>
      </trkpt>
      <trkpt lat="44.11706" lon="2.95605">
        <ele>731</ele>
        <time>2013-12-12T15:00:06Z</time>
      </trkpt>
      <trkpt lat="44.11708" lon="2.956">
        <ele>730</ele>
        <time>2013-12-12T15:00:10Z</time>
      </trkpt>
      <trkpt lat="44.11711" lon="2.95594">
        <ele>729</ele>
        <time>2013-12-12T15:00:17Z</time>
      </trkpt>
      <trkpt lat="44.11713" lon="2.95588">
        <ele>730</ele>
        <time>2013-12-12T15:00:21Z</time>
      </trkpt>
      <trkpt lat="44.11713" lon="2.95581">
        <ele>733</ele>
        <time>2013-12-12T15:00:27Z</time>
      </trkpt>
      <trkpt lat="44.11715" lon="2.95574">
        <ele>733</ele>
        <time>2013-12-12T15:00:33Z</time>
      </trkpt>
      <trkpt lat="44.11718" lon="2.95568">
        <ele>732</ele>
        <time>2013-12-12T15:00:36Z</time>
      </trkpt>
      <trkpt lat="44.11722" lon="2.95564">
        <ele>732</ele>
        <time>2013-12-12T15:00:41Z</time>
      </trkpt>
      <trkpt lat="44.11725" lon="2.95556">
        <ele>730</ele>
        <time>2013-12-12T15:00:50Z</time>
      </trkpt>
      <trkpt lat="44.11727" lon="2.9555">
        <ele>728</ele>
        <time>2013-12-12T15:00:55Z</time>
      </trkpt>
      <trkpt lat="44.11729" lon="2.95544">
        <ele>728</ele>
        <time>2013-12-12T15:01:00Z</time>
      </trkpt>
      <trkpt lat="44.1173" lon="2.95537">
        <ele>727</ele>
        <time>2013-12-12T15:01:07Z</time>
      </trkpt>
      <trkpt lat="44.1173" lon="2.95531">
        <ele>727</ele>
        <time>2013-12-12T15:01:15Z</time>
      </trkpt>
      <trkpt lat="44.11733" lon="2.95525">
        <ele>727</ele>
        <time>2013-12-12T15:01:21Z</time>
      </trkpt>
      <trkpt lat="44.11736" lon="2.9552">
        <ele>727</ele>
        <time>2013-12-12T15:01:26Z</time>
      </trkpt>
      <trkpt lat="44.11741" lon="2.95519">
        <ele>725</ele>
        <time>2013-12-12T15:01:33Z</time>
      </trkpt>
      <trkpt lat="44.11745" lon="2.95515">
        <ele>725</ele>
        <time>2013-12-12T15:01:38Z</time>
      </trkpt>
      <trkpt lat="44.11749" lon="2.9551">
        <ele>724</ele>
        <time>2013-12-12T15:01:42Z</time>
      </trkpt>
      <trkpt lat="44.11753" lon="2.95507">
        <ele>723</ele>
        <time>2013-12-12T15:01:47Z</time>
      </trkpt>
      <trkpt lat="44.11758" lon="2.95507">
        <ele>721</ele>
        <time>2013-12-12T15:01:54Z</time>
      </trkpt>
      <trkpt lat="44.11759" lon="2.95501">
        <ele>721</ele>
        <time>2013-12-12T15:01:59Z</time>
      </trkpt>
      <trkpt lat="44.11763" lon="2.95496">
        <ele>723</ele>
        <time>2013-12-12T15:02:03Z</time>
      </trkpt>
      <trkpt lat="44.11766" lon="2.95491">
        <ele>723</ele>
        <time>2013-12-12T15:02:07Z</time>
      </trkpt>
      <trkpt lat="44.1177" lon="2.95487">
        <ele>724</ele>
        <time>2013-12-12T15:02:13Z</time>
      </trkpt>
      <trkpt lat="44.11774" lon="2.95485">
        <ele>723</ele>
        <time>2013-12-12T15:02:18Z</time>
      </trkpt>
      <trkpt lat="44.11779" lon="2.95482">
        <ele>721</ele>
        <time>2013-12-12T15:02:22Z</time>
      </trkpt>
      <trkpt lat="44.11784" lon="2.95481">
        <ele>720</ele>
        <time>2013-12-12T15:02:27Z</time>
      </trkpt>
      <trkpt lat="44.11789" lon="2.95479">
        <ele>718</ele>
        <time>2013-12-12T15:02:32Z</time>
      </trkpt>
      <trkpt lat="44.11793" lon="2.95477">
        <ele>718</ele>
        <time>2013-12-12T15:02:36Z</time>
      </trkpt>
      <trkpt lat="44.11797" lon="2.95475">
        <ele>718</ele>
        <time>2013-12-12T15:02:41Z</time>
      </trkpt>
      <trkpt lat="44.11799" lon="2.95468">
        <ele>718</ele>
        <time>2013-12-12T15:02:50Z</time>
      </trkpt>
      <trkpt lat="44.11803" lon="2.95463">
        <ele>719</ele>
        <time>2013-12-12T15:02:57Z</time>
      </trkpt>
      <trkpt lat="44.11808" lon="2.95461">
        <ele>720</ele>
        <time>2013-12-12T15:03:02Z</time>
      </trkpt>
      <trkpt lat="44.11817" lon="2.9546">
        <ele>721</ele>
        <time>2013-12-12T15:03:10Z</time>
      </trkpt>
      <trkpt lat="44.11819" lon="2.95454">
        <ele>723</ele>
        <time>2013-12-12T15:03:16Z</time>
      </trkpt>
      <trkpt lat="44.11819" lon="2.95448">
        <ele>724</ele>
        <time>2013-12-12T15:03:22Z</time>
      </trkpt>
      <trkpt lat="44.11824" lon="2.95446">
        <ele>726</ele>
        <time>2013-12-12T15:03:28Z</time>
      </trkpt>
      <trkpt lat="44.11828" lon="2.95445">
        <ele>726</ele>
        <time>2013-12-12T15:03:35Z</time>
      </trkpt>
      <trkpt lat="44.1183" lon="2.95437">
        <ele>728</ele>
        <time>2013-12-12T15:03:40Z</time>
      </trkpt>
      <trkpt lat="44.11833" lon="2.95431">
        <ele>730</ele>
        <time>2013-12-12T15:03:47Z</time>
      </trkpt>
      <trkpt lat="44.11838" lon="2.9543">
        <ele>729</ele>
        <time>2013-12-12T15:03:53Z</time>
      </trkpt>
      <trkpt lat="44.11843" lon="2.9543">
        <ele>728</ele>
        <time>2013-12-12T15:03:58Z</time>
      </trkpt>
      <trkpt lat="44.11847" lon="2.95426">
        <ele>727</ele>
        <time>2013-12-12T15:04:03Z</time>
      </trkpt>
      <trkpt lat="44.11851" lon="2.95423">
        <ele>727</ele>
        <time>2013-12-12T15:04:07Z</time>
      </trkpt>
      <trkpt lat="44.11854" lon="2.95417">
        <ele>727</ele>
        <time>2013-12-12T15:04:12Z</time>
      </trkpt>
      <trkpt lat="44.11857" lon="2.95412">
        <ele>727</ele>
        <time>2013-12-12T15:04:20Z</time>
      </trkpt>
      <trkpt lat="44.11861" lon="2.95408">
        <ele>727</ele>
        <time>2013-12-12T15:04:26Z</time>
      </trkpt>
      <trkpt lat="44.11864" lon="2.95402">
        <ele>728</ele>
        <time>2013-12-12T15:04:30Z</time>
      </trkpt>
      <trkpt lat="44.11866" lon="2.95395">
        <ele>728</ele>
        <time>2013-12-12T15:04:33Z</time>
      </trkpt>
      <trkpt lat="44.11869" lon="2.9539">
        <ele>728</ele>
        <time>2013-12-12T15:04:38Z</time>
      </trkpt>
      <trkpt lat="44.11873" lon="2.95388">
        <ele>729</ele>
        <time>2013-12-12T15:04:43Z</time>
      </trkpt>
      <trkpt lat="44.11878" lon="2.95389">
        <ele>729</ele>
        <time>2013-12-12T15:04:48Z</time>
      </trkpt>
      <trkpt lat="44.11881" lon="2.95383">
        <ele>729</ele>
        <time>2013-12-12T15:04:52Z</time>
      </trkpt>
      <trkpt lat="44.11883" lon="2.95377">
        <ele>729</ele>
        <time>2013-12-12T15:04:57Z</time>
      </trkpt>
      <trkpt lat="44.11885" lon="2.9537">
        <ele>729</ele>
        <time>2013-12-12T15:05:04Z</time>
      </trkpt>
      <trkpt lat="44.11887" lon="2.95363">
        <ele>729</ele>
        <time>2013-12-12T15:05:09Z</time>
      </trkpt>
      <trkpt lat="44.11889" lon="2.95357">
        <ele>729</ele>
        <time>2013-12-12T15:05:15Z</time>
      </trkpt>
      <trkpt lat="44.11888" lon="2.95351">
        <ele>730</ele>
        <time>2013-12-12T15:05:20Z</time>
      </trkpt>
      <trkpt lat="44.11886" lon="2.95344">
        <ele>730</ele>
        <time>2013-12-12T15:05:25Z</time>
      </trkpt>
      <trkpt lat="44.11885" lon="2.95335">
        <ele>732</ele>
        <time>2013-12-12T15:05:35Z</time>
      </trkpt>
      <trkpt lat="44.11884" lon="2.95326">
        <ele>735</ele>
        <time>2013-12-12T15:05:38Z</time>
      </trkpt>
      <trkpt lat="44.11882" lon="2.95321">
        <ele>737</ele>
        <time>2013-12-12T15:05:44Z</time>
      </trkpt>
      <trkpt lat="44.11881" lon="2.95315">
        <ele>738</ele>
        <time>2013-12-12T15:05:51Z</time>
      </trkpt>
      <trkpt lat="44.11882" lon="2.95308">
        <ele>737</ele>
        <time>2013-12-12T15:05:56Z</time>
      </trkpt>
      <trkpt lat="44.11881" lon="2.95302">
        <ele>738</ele>
        <time>2013-12-12T15:06:01Z</time>
      </trkpt>
      <trkpt lat="44.11879" lon="2.95296">
        <ele>739</ele>
        <time>2013-12-12T15:06:08Z</time>
      </trkpt>
      <trkpt lat="44.11879" lon="2.95289">
        <ele>739</ele>
        <time>2013-12-12T15:06:14Z</time>
      </trkpt>
      <trkpt lat="44.11878" lon="2.95282">
        <ele>740</ele>
        <time>2013-12-12T15:06:19Z</time>
      </trkpt>
      <trkpt lat="44.11879" lon="2.95275">
        <ele>740</ele>
        <time>2013-12-12T15:06:22Z</time>
      </trkpt>
      <trkpt lat="44.1188" lon="2.95268">
        <ele>741</ele>
        <time>2013-12-12T15:06:27Z</time>
      </trkpt>
      <trkpt lat="44.11878" lon="2.95261">
        <ele>742</ele>
        <time>2013-12-12T15:06:31Z</time>
      </trkpt>
      <trkpt lat="44.11879" lon="2.95253">
        <ele>741</ele>
        <time>2013-12-12T15:06:37Z</time>
      </trkpt>
      <trkpt lat="44.11882" lon="2.95247">
        <ele>741</ele>
        <time>2013-12-12T15:06:42Z</time>
      </trkpt>
      <trkpt lat="44.11884" lon="2.95241">
        <ele>740</ele>
        <time>2013-12-12T15:06:48Z</time>
      </trkpt>
      <trkpt lat="44.11885" lon="2.95234">
        <ele>739</ele>
        <time>2013-12-12T15:06:54Z</time>
      </trkpt>
      <trkpt lat="44.11885" lon="2.95227">
        <ele>739</ele>
        <time>2013-12-12T15:07:00Z</time>
      </trkpt>
      <trkpt lat="44.11884" lon="2.9522">
        <ele>739</ele>
        <time>2013-12-12T15:07:05Z</time>
      </trkpt>
      <trkpt lat="44.11885" lon="2.95213">
        <ele>739</ele>
        <time>2013-12-12T15:07:09Z</time>
      </trkpt>
      <trkpt lat="44.11886" lon="2.95207">
        <ele>739</ele>
        <time>2013-12-12T15:07:13Z</time>
      </trkpt>
      <trkpt lat="44.11886" lon="2.952">
        <ele>739</ele>
        <time>2013-12-12T15:07:18Z</time>
      </trkpt>
      <trkpt lat="44.11888" lon="2.95194">
        <ele>738</ele>
        <time>2013-12-12T15:07:22Z</time>
      </trkpt>
      <trkpt lat="44.1189" lon="2.95187">
        <ele>738</ele>
        <time>2013-12-12T15:07:27Z</time>
      </trkpt>
      <trkpt lat="44.11892" lon="2.95181">
        <ele>738</ele>
        <time>2013-12-12T15:07:31Z</time>
      </trkpt>
      <trkpt lat="44.1189" lon="2.95175">
        <ele>737</ele>
        <time>2013-12-12T15:07:38Z</time>
      </trkpt>
      <trkpt lat="44.11887" lon="2.95169">
        <ele>737</ele>
        <time>2013-12-12T15:07:41Z</time>
      </trkpt>
      <trkpt lat="44.11884" lon="2.95163">
        <ele>736</ele>
        <time>2013-12-12T15:07:46Z</time>
      </trkpt>
      <trkpt lat="44.11885" lon="2.95156">
        <ele>735</ele>
        <time>2013-12-12T15:07:51Z</time>
      </trkpt>
      <trkpt lat="44.11887" lon="2.95149">
        <ele>735</ele>
        <time>2013-12-12T15:07:55Z</time>
      </trkpt>
      <trkpt lat="44.11889" lon="2.95142">
        <ele>735</ele>
        <time>2013-12-12T15:07:59Z</time>
      </trkpt>
      <trkpt lat="44.11892" lon="2.95135">
        <ele>735</ele>
        <time>2013-12-12T15:08:03Z</time>
      </trkpt>
      <trkpt lat="44.11893" lon="2.95129">
        <ele>735</ele>
        <time>2013-12-12T15:08:07Z</time>
      </trkpt>
      <trkpt lat="44.11894" lon="2.95122">
        <ele>736</ele>
        <time>2013-12-12T15:08:11Z</time>
      </trkpt>
      <trkpt lat="44.11895" lon="2.95115">
        <ele>736</ele>
        <time>2013-12-12T15:08:15Z</time>
      </trkpt>
      <trkpt lat="44.11897" lon="2.95109">
        <ele>736</ele>
        <time>2013-12-12T15:08:19Z</time>
      </trkpt>
      <trkpt lat="44.11898" lon="2.95103">
        <ele>736</ele>
        <time>2013-12-12T15:08:23Z</time>
      </trkpt>
      <trkpt lat="44.11899" lon="2.95096">
        <ele>736</ele>
        <time>2013-12-12T15:08:29Z</time>
      </trkpt>
      <trkpt lat="44.119" lon="2.95089">
        <ele>736</ele>
        <time>2013-12-12T15:08:34Z</time>
      </trkpt>
      <trkpt lat="44.11903" lon="2.95082">
        <ele>736</ele>
        <time>2013-12-12T15:08:38Z</time>
      </trkpt>
      <trkpt lat="44.11904" lon="2.95076">
        <ele>735</ele>
        <time>2013-12-12T15:08:42Z</time>
      </trkpt>
      <trkpt lat="44.11906" lon="2.95069">
        <ele>734</ele>
        <time>2013-12-12T15:08:46Z</time>
      </trkpt>
      <trkpt lat="44.11908" lon="2.95062">
        <ele>734</ele>
        <time>2013-12-12T15:08:50Z</time>
      </trkpt>
      <trkpt lat="44.11911" lon="2.95055">
        <ele>733</ele>
        <time>2013-12-12T15:08:54Z</time>
      </trkpt>
      <trkpt lat="44.11914" lon="2.9505">
        <ele>733</ele>
        <time>2013-12-12T15:08:58Z</time>
      </trkpt>
      <trkpt lat="44.11917" lon="2.95044">
        <ele>732</ele>
        <time>2013-12-12T15:09:04Z</time>
      </trkpt>
      <trkpt lat="44.11919" lon="2.95038">
        <ele>732</ele>
        <time>2013-12-12T15:09:07Z</time>
      </trkpt>
      <trkpt lat="44.11921" lon="2.95031">
        <ele>732</ele>
        <time>2013-12-12T15:09:10Z</time>
      </trkpt>
      <trkpt lat="44.11923" lon="2.95024">
        <ele>731</ele>
        <time>2013-12-12T15:09:13Z</time>
      </trkpt>
      <trkpt lat="44.11926" lon="2.95018">
        <ele>733</ele>
        <time>2013-12-12T15:09:15Z</time>
      </trkpt>
      <trkpt lat="44.11928" lon="2.95012">
        <ele>733</ele>
        <time>2013-12-12T15:09:18Z</time>
      </trkpt>
      <trkpt lat="44.11931" lon="2.95007">
        <ele>734</ele>
        <time>2013-12-12T15:09:21Z</time>
      </trkpt>
      <trkpt lat="44.11934" lon="2.95001">
        <ele>733</ele>
        <time>2013-12-12T15:09:24Z</time>
      </trkpt>
      <trkpt lat="44.11937" lon="2.94996">
        <ele>734</ele>
        <time>2013-12-12T15:09:29Z</time>
      </trkpt>
      <trkpt lat="44.11942" lon="2.94993">
        <ele>733</ele>
        <time>2013-12-12T15:09:33Z</time>
      </trkpt>
      <trkpt lat="44.11944" lon="2.94986">
        <ele>735</ele>
        <time>2013-12-12T15:09:36Z</time>
      </trkpt>
      <trkpt lat="44.11945" lon="2.94978">
        <ele>735</ele>
        <time>2013-12-12T15:09:38Z</time>
      </trkpt>
      <trkpt lat="44.1195" lon="2.94978">
        <ele>736</ele>
        <time>2013-12-12T15:09:45Z</time>
      </trkpt>
      <trkpt lat="44.11955" lon="2.94976">
        <ele>735</ele>
        <time>2013-12-12T15:09:57Z</time>
      </trkpt>
      <trkpt lat="44.11961" lon="2.94976">
        <ele>735</ele>
        <time>2013-12-12T15:10:10Z</time>
      </trkpt>
      <trkpt lat="44.11966" lon="2.94974">
        <ele>735</ele>
        <time>2013-12-12T15:10:18Z</time>
      </trkpt>
      <trkpt lat="44.11968" lon="2.94971">
        <ele>737</ele>
        <time>2013-12-12T15:10:26Z</time>
      </trkpt>
      <trkpt lat="44.11971" lon="2.9497">
        <ele>737</ele>
        <time>2013-12-12T15:10:34Z</time>
      </trkpt>
      <trkpt lat="44.11976" lon="2.94969">
        <ele>737</ele>
        <time>2013-12-12T15:10:40Z</time>
      </trkpt>
      <trkpt lat="44.11982" lon="2.94971">
        <ele>736</ele>
        <time>2013-12-12T15:10:45Z</time>
      </trkpt>
      <trkpt lat="44.11987" lon="2.94973">
        <ele>735</ele>
        <time>2013-12-12T15:10:49Z</time>
      </trkpt>
      <trkpt lat="44.11992" lon="2.94971">
        <ele>734</ele>
        <time>2013-12-12T15:10:54Z</time>
      </trkpt>
      <trkpt lat="44.11997" lon="2.94969">
        <ele>733</ele>
        <time>2013-12-12T15:10:57Z</time>
      </trkpt>
      <trkpt lat="44.12001" lon="2.94971">
        <ele>734</ele>
        <time>2013-12-12T15:11:00Z</time>
      </trkpt>
      <trkpt lat="44.12008" lon="2.94974">
        <ele>734</ele>
        <time>2013-12-12T15:11:11Z</time>
      </trkpt>
      <trkpt lat="44.12012" lon="2.94975">
        <ele>735</ele>
        <time>2013-12-12T15:11:16Z</time>
      </trkpt>
      <trkpt lat="44.12017" lon="2.94972">
        <ele>735</ele>
        <time>2013-12-12T15:11:22Z</time>
      </trkpt>
      <trkpt lat="44.12021" lon="2.94974">
        <ele>735</ele>
        <time>2013-12-12T15:11:26Z</time>
      </trkpt>
      <trkpt lat="44.12025" lon="2.94978">
        <ele>734</ele>
        <time>2013-12-12T15:11:30Z</time>
      </trkpt>
      <trkpt lat="44.12029" lon="2.94982">
        <ele>733</ele>
        <time>2013-12-12T15:11:34Z</time>
      </trkpt>
      <trkpt lat="44.12032" lon="2.94987">
        <ele>733</ele>
        <time>2013-12-12T15:11:39Z</time>
      </trkpt>
      <trkpt lat="44.12036" lon="2.94992">
        <ele>732</ele>
        <time>2013-12-12T15:11:40Z</time>
      </trkpt>
      <trkpt lat="44.12041" lon="2.94995">
        <ele>732</ele>
        <time>2013-12-12T15:11:42Z</time>
      </trkpt>
      <trkpt lat="44.12045" lon="2.94996">
        <ele>732</ele>
        <time>2013-12-12T15:11:52Z</time>
      </trkpt>
      <trkpt lat="44.12048" lon="2.95001">
        <ele>731</ele>
        <time>2013-12-12T15:12:03Z</time>
      </trkpt>
      <trkpt lat="44.12053" lon="2.95003">
        <ele>730</ele>
        <time>2013-12-12T15:12:06Z</time>
      </trkpt>
      <trkpt lat="44.12076" lon="2.95027">
        <ele>720</ele>
        <time>2013-12-12T15:12:38Z</time>
      </trkpt>
      <trkpt lat="44.1208" lon="2.95033">
        <ele>719</ele>
        <time>2013-12-12T15:12:43Z</time>
      </trkpt>
      <trkpt lat="44.12084" lon="2.95027">
        <ele>719</ele>
        <time>2013-12-12T15:12:50Z</time>
      </trkpt>
      <trkpt lat="44.12087" lon="2.95022">
        <ele>719</ele>
        <time>2013-12-12T15:12:54Z</time>
      </trkpt>
      <trkpt lat="44.12088" lon="2.95026">
        <ele>716</ele>
        <time>2013-12-12T15:13:38Z</time>
      </trkpt>
      <trkpt lat="44.12091" lon="2.95025">
        <ele>717</ele>
        <time>2013-12-12T15:16:02Z</time>
      </trkpt>
      <trkpt lat="44.12091" lon="2.95026">
        <ele>711</ele>
        <time>2013-12-12T15:17:08Z</time>
      </trkpt>
      <trkpt lat="44.12094" lon="2.95034">
        <ele>710</ele>
        <time>2013-12-12T15:17:21Z</time>
      </trkpt>
      <trkpt lat="44.12094" lon="2.95032">
        <ele>710</ele>
        <time>2013-12-12T15:17:46Z</time>
      </trkpt>
      <trkpt lat="44.12095" lon="2.95032">
        <ele>711</ele>
        <time>2013-12-12T15:18:52Z</time>
      </trkpt>
      <trkpt lat="44.12092" lon="2.95024">
        <ele>710</ele>
        <time>2013-12-12T15:19:04Z</time>
      </trkpt>
      <trkpt lat="44.12091" lon="2.95026">
        <ele>710</ele>
        <time>2013-12-12T15:20:47Z</time>
      </trkpt>
      <trkpt lat="44.12089" lon="2.95029">
        <ele>712</ele>
        <time>2013-12-12T15:21:29Z</time>
      </trkpt>
      <trkpt lat="44.1209" lon="2.95032">
        <ele>719</ele>
        <time>2013-12-12T15:22:22Z</time>
      </trkpt>
      <trkpt lat="44.12088" lon="2.95038">
        <ele>719</ele>
        <time>2013-12-12T15:22:28Z</time>
      </trkpt>
      <trkpt lat="44.12086" lon="2.95043">
        <ele>720</ele>
        <time>2013-12-12T15:22:47Z</time>
      </trkpt>
      <trkpt lat="44.1209" lon="2.95046">
        <ele>722</ele>
        <time>2013-12-12T15:22:51Z</time>
      </trkpt>
      <trkpt lat="44.12093" lon="2.95051">
        <ele>723</ele>
        <time>2013-12-12T15:22:57Z</time>
      </trkpt>
      <trkpt lat="44.12093" lon="2.95054">
        <ele>722</ele>
        <time>2013-12-12T15:23:10Z</time>
      </trkpt>
      <trkpt lat="44.12094" lon="2.95062">
        <ele>721</ele>
        <time>2013-12-12T15:23:23Z</time>
      </trkpt>
      <trkpt lat="44.12097" lon="2.95061">
        <ele>721</ele>
        <time>2013-12-12T15:23:41Z</time>
      </trkpt>
      <trkpt lat="44.12103" lon="2.95059">
        <ele>719</ele>
        <time>2013-12-12T15:24:17Z</time>
      </trkpt>
      <trkpt lat="44.12103" lon="2.95056">
        <ele>718</ele>
        <time>2013-12-12T15:24:23Z</time>
      </trkpt>
      <trkpt lat="44.12103" lon="2.95057">
        <ele>719</ele>
        <time>2013-12-12T15:24:37Z</time>
      </trkpt>
      <trkpt lat="44.12107" lon="2.95059">
        <ele>718</ele>
        <time>2013-12-12T15:24:43Z</time>
      </trkpt>
      <trkpt lat="44.12111" lon="2.95063">
        <ele>715</ele>
        <time>2013-12-12T15:24:52Z</time>
      </trkpt>
      <trkpt lat="44.1211" lon="2.9507">
        <ele>715</ele>
        <time>2013-12-12T15:24:58Z</time>
      </trkpt>
      <trkpt lat="44.12107" lon="2.95076">
        <ele>714</ele>
        <time>2013-12-12T15:25:03Z</time>
      </trkpt>
      <trkpt lat="44.12106" lon="2.95082">
        <ele>714</ele>
        <time>2013-12-12T15:25:10Z</time>
      </trkpt>
      <trkpt lat="44.12111" lon="2.95085">
        <ele>716</ele>
        <time>2013-12-12T15:25:18Z</time>
      </trkpt>
      <trkpt lat="44.12115" lon="2.95088">
        <ele>716</ele>
        <time>2013-12-12T15:25:23Z</time>
      </trkpt>
      <trkpt lat="44.1212" lon="2.95089">
        <ele>715</ele>
        <time>2013-12-12T15:25:27Z</time>
      </trkpt>
      <trkpt lat="44.12124" lon="2.95094">
        <ele>713</ele>
        <time>2013-12-12T15:25:32Z</time>
      </trkpt>
      <trkpt lat="44.12125" lon="2.95098">
        <ele>705</ele>
        <time>2013-12-12T15:25:47Z</time>
      </trkpt>
      <trkpt lat="44.12123" lon="2.95106">
        <ele>704</ele>
        <time>2013-12-12T15:26:02Z</time>
      </trkpt>
      <trkpt lat="44.12119" lon="2.9511">
        <ele>702</ele>
        <time>2013-12-12T15:26:08Z</time>
      </trkpt>
      <trkpt lat="44.12115" lon="2.95114">
        <ele>701</ele>
        <time>2013-12-12T15:26:14Z</time>
      </trkpt>
      <trkpt lat="44.1211" lon="2.95119">
        <ele>699</ele>
        <time>2013-12-12T15:26:19Z</time>
      </trkpt>
      <trkpt lat="44.12105" lon="2.95121">
        <ele>698</ele>
        <time>2013-12-12T15:26:24Z</time>
      </trkpt>
      <trkpt lat="44.12101" lon="2.95121">
        <ele>697</ele>
        <time>2013-12-12T15:26:28Z</time>
      </trkpt>
      <trkpt lat="44.12096" lon="2.95122">
        <ele>696</ele>
        <time>2013-12-12T15:26:33Z</time>
      </trkpt>
      <trkpt lat="44.12091" lon="2.95126">
        <ele>695</ele>
        <time>2013-12-12T15:26:38Z</time>
      </trkpt>
      <trkpt lat="44.12086" lon="2.95128">
        <ele>695</ele>
        <time>2013-12-12T15:26:42Z</time>
      </trkpt>
      <trkpt lat="44.12082" lon="2.95131">
        <ele>695</ele>
        <time>2013-12-12T15:26:46Z</time>
      </trkpt>
      <trkpt lat="44.12077" lon="2.95134">
        <ele>694</ele>
        <time>2013-12-12T15:26:50Z</time>
      </trkpt>
      <trkpt lat="44.12073" lon="2.95136">
        <ele>694</ele>
        <time>2013-12-12T15:26:55Z</time>
      </trkpt>
      <trkpt lat="44.12068" lon="2.9514">
        <ele>694</ele>
        <time>2013-12-12T15:26:59Z</time>
      </trkpt>
      <trkpt lat="44.12064" lon="2.95145">
        <ele>694</ele>
        <time>2013-12-12T15:27:03Z</time>
      </trkpt>
      <trkpt lat="44.1206" lon="2.95149">
        <ele>694</ele>
        <time>2013-12-12T15:27:06Z</time>
      </trkpt>
      <trkpt lat="44.12055" lon="2.95153">
        <ele>694</ele>
        <time>2013-12-12T15:27:10Z</time>
      </trkpt>
      <trkpt lat="44.12051" lon="2.95156">
        <ele>694</ele>
        <time>2013-12-12T15:27:15Z</time>
      </trkpt>
      <trkpt lat="44.12047" lon="2.9516">
        <ele>693</ele>
        <time>2013-12-12T15:27:20Z</time>
      </trkpt>
      <trkpt lat="44.12043" lon="2.95163">
        <ele>693</ele>
        <time>2013-12-12T15:27:28Z</time>
      </trkpt>
      <trkpt lat="44.12038" lon="2.95165">
        <ele>692</ele>
        <time>2013-12-12T15:27:34Z</time>
      </trkpt>
      <trkpt lat="44.12036" lon="2.95171">
        <ele>692</ele>
        <time>2013-12-12T15:27:40Z</time>
      </trkpt>
      <trkpt lat="44.12038" lon="2.95177">
        <ele>691</ele>
        <time>2013-12-12T15:27:45Z</time>
      </trkpt>
      <trkpt lat="44.12042" lon="2.95179">
        <ele>689</ele>
        <time>2013-12-12T15:27:51Z</time>
      </trkpt>
      <trkpt lat="44.12046" lon="2.95183">
        <ele>689</ele>
        <time>2013-12-12T15:27:56Z</time>
      </trkpt>
      <trkpt lat="44.12048" lon="2.95189">
        <ele>687</ele>
        <time>2013-12-12T15:28:03Z</time>
      </trkpt>
      <trkpt lat="44.12049" lon="2.95193">
        <ele>686</ele>
        <time>2013-12-12T15:28:10Z</time>
      </trkpt>
      <trkpt lat="44.12051" lon="2.95197">
        <ele>685</ele>
        <time>2013-12-12T15:28:21Z</time>
      </trkpt>
      <trkpt lat="44.12055" lon="2.95193">
        <ele>685</ele>
        <time>2013-12-12T15:28:25Z</time>
      </trkpt>
      <trkpt lat="44.12059" lon="2.95189">
        <ele>685</ele>
        <time>2013-12-12T15:28:30Z</time>
      </trkpt>
      <trkpt lat="44.12064" lon="2.95191">
        <ele>685</ele>
        <time>2013-12-12T15:28:36Z</time>
      </trkpt>
      <trkpt lat="44.12068" lon="2.95195">
        <ele>685</ele>
        <time>2013-12-12T15:28:41Z</time>
      </trkpt>
      <trkpt lat="44.12072" lon="2.95196">
        <ele>684</ele>
        <time>2013-12-12T15:28:45Z</time>
      </trkpt>
      <trkpt lat="44.12077" lon="2.95198">
        <ele>682</ele>
        <time>2013-12-12T15:28:51Z</time>
      </trkpt>
      <trkpt lat="44.12083" lon="2.95201">
        <ele>680</ele>
        <time>2013-12-12T15:29:06Z</time>
      </trkpt>
      <trkpt lat="44.12087" lon="2.95204">
        <ele>676</ele>
        <time>2013-12-12T15:29:16Z</time>
      </trkpt>
      <trkpt lat="44.12093" lon="2.95203">
        <ele>676</ele>
        <time>2013-12-12T15:29:22Z</time>
      </trkpt>
      <trkpt lat="44.12098" lon="2.952">
        <ele>676</ele>
        <time>2013-12-12T15:29:26Z</time>
      </trkpt>
      <trkpt lat="44.12102" lon="2.95201">
        <ele>675</ele>
        <time>2013-12-12T15:29:31Z</time>
      </trkpt>
      <trkpt lat="44.12106" lon="2.95205">
        <ele>674</ele>
        <time>2013-12-12T15:29:40Z</time>
      </trkpt>
      <trkpt lat="44.1211" lon="2.95205">
        <ele>673</ele>
        <time>2013-12-12T15:29:48Z</time>
      </trkpt>
      <trkpt lat="44.12113" lon="2.95202">
        <ele>672</ele>
        <time>2013-12-12T15:29:58Z</time>
      </trkpt>
      <trkpt lat="44.12118" lon="2.95201">
        <ele>671</ele>
        <time>2013-12-12T15:30:04Z</time>
      </trkpt>
      <trkpt lat="44.12124" lon="2.95201">
        <ele>668</ele>
        <time>2013-12-12T15:30:10Z</time>
      </trkpt>
      <trkpt lat="44.12129" lon="2.95202">
        <ele>667</ele>
        <time>2013-12-12T15:30:19Z</time>
      </trkpt>
      <trkpt lat="44.12134" lon="2.95203">
        <ele>665</ele>
        <time>2013-12-12T15:30:26Z</time>
      </trkpt>
      <trkpt lat="44.12138" lon="2.95204">
        <ele>664</ele>
        <time>2013-12-12T15:30:29Z</time>
      </trkpt>
      <trkpt lat="44.12142" lon="2.95206">
        <ele>663</ele>
        <time>2013-12-12T15:30:32Z</time>
      </trkpt>
      <trkpt lat="44.12147" lon="2.95208">
        <ele>662</ele>
        <time>2013-12-12T15:30:38Z</time>
      </trkpt>
      <trkpt lat="44.12151" lon="2.95208">
        <ele>660</ele>
        <time>2013-12-12T15:30:45Z</time>
      </trkpt>
      <trkpt lat="44.12156" lon="2.9521">
        <ele>658</ele>
        <time>2013-12-12T15:30:53Z</time>
      </trkpt>
      <trkpt lat="44.1216" lon="2.95212">
        <ele>656</ele>
        <time>2013-12-12T15:31:01Z</time>
      </trkpt>
      <trkpt lat="44.12165" lon="2.95213">
        <ele>655</ele>
        <time>2013-12-12T15:31:05Z</time>
      </trkpt>
      <trkpt lat="44.12171" lon="2.95214">
        <ele>654</ele>
        <time>2013-12-12T15:31:09Z</time>
      </trkpt>
      <trkpt lat="44.12176" lon="2.95215">
        <ele>653</ele>
        <time>2013-12-12T15:31:13Z</time>
      </trkpt>
      <trkpt lat="44.1218" lon="2.95216">
        <ele>651</ele>
        <time>2013-12-12T15:31:21Z</time>
      </trkpt>
      <trkpt lat="44.12185" lon="2.95217">
        <ele>650</ele>
        <time>2013-12-12T15:31:25Z</time>
      </trkpt>
      <trkpt lat="44.1219" lon="2.95219">
        <ele>650</ele>
        <time>2013-12-12T15:31:30Z</time>
      </trkpt>
      <trkpt lat="44.12194" lon="2.95222">
        <ele>649</ele>
        <time>2013-12-12T15:31:37Z</time>
      </trkpt>
      <trkpt lat="44.12199" lon="2.95222">
        <ele>647</ele>
        <time>2013-12-12T15:31:46Z</time>
      </trkpt>
      <trkpt lat="44.12204" lon="2.95223">
        <ele>646</ele>
        <time>2013-12-12T15:31:55Z</time>
      </trkpt>
      <trkpt lat="44.12206" lon="2.95225">
        <ele>643</ele>
        <time>2013-12-12T15:32:07Z</time>
      </trkpt>
      <trkpt lat="44.12205" lon="2.95232">
        <ele>639</ele>
        <time>2013-12-12T15:32:13Z</time>
      </trkpt>
      <trkpt lat="44.12209" lon="2.95235">
        <ele>635</ele>
        <time>2013-12-12T15:32:31Z</time>
      </trkpt>
      <trkpt lat="44.12215" lon="2.95236">
        <ele>634</ele>
        <time>2013-12-12T15:32:42Z</time>
      </trkpt>
      <trkpt lat="44.12221" lon="2.95237">
        <ele>632</ele>
        <time>2013-12-12T15:32:46Z</time>
      </trkpt>
      <trkpt lat="44.12226" lon="2.95236">
        <ele>631</ele>
        <time>2013-12-12T15:32:50Z</time>
      </trkpt>
      <trkpt lat="44.12229" lon="2.9524">
        <ele>630</ele>
        <time>2013-12-12T15:32:57Z</time>
      </trkpt>
      <trkpt lat="44.12232" lon="2.95239">
        <ele>629</ele>
        <time>2013-12-12T15:33:09Z</time>
      </trkpt>
      <trkpt lat="44.12238" lon="2.95237">
        <ele>629</ele>
        <time>2013-12-12T15:33:13Z</time>
      </trkpt>
      <trkpt lat="44.12242" lon="2.95235">
        <ele>629</ele>
        <time>2013-12-12T15:33:16Z</time>
      </trkpt>
      <trkpt lat="44.12247" lon="2.95234">
        <ele>628</ele>
        <time>2013-12-12T15:33:23Z</time>
      </trkpt>
      <trkpt lat="44.12252" lon="2.95232">
        <ele>628</ele>
        <time>2013-12-12T15:33:29Z</time>
      </trkpt>
      <trkpt lat="44.12256" lon="2.95231">
        <ele>628</ele>
        <time>2013-12-12T15:33:33Z</time>
      </trkpt>
      <trkpt lat="44.12258" lon="2.95229">
        <ele>628</ele>
        <time>2013-12-12T15:33:40Z</time>
      </trkpt>
      <trkpt lat="44.12261" lon="2.95227">
        <ele>628</ele>
        <time>2013-12-12T15:33:52Z</time>
      </trkpt>
      <trkpt lat="44.12265" lon="2.95225">
        <ele>628</ele>
        <time>2013-12-12T15:34:18Z</time>
      </trkpt>
      <trkpt lat="44.12268" lon="2.95226">
        <ele>627</ele>
        <time>2013-12-12T15:34:25Z</time>
      </trkpt>
      <trkpt lat="44.12272" lon="2.95223">
        <ele>624</ele>
        <time>2013-12-12T15:34:39Z</time>
      </trkpt>
      <trkpt lat="44.12274" lon="2.95217">
        <ele>624</ele>
        <time>2013-12-12T15:34:47Z</time>
      </trkpt>
      <trkpt lat="44.12279" lon="2.95215">
        <ele>625</ele>
        <time>2013-12-12T15:34:54Z</time>
      </trkpt>
      <trkpt lat="44.12283" lon="2.95212">
        <ele>625</ele>
        <time>2013-12-12T15:35:02Z</time>
      </trkpt>
      <trkpt lat="44.12286" lon="2.95206">
        <ele>624</ele>
        <time>2013-12-12T15:35:10Z</time>
      </trkpt>
      <trkpt lat="44.12288" lon="2.95204">
        <ele>623</ele>
        <time>2013-12-12T15:35:16Z</time>
      </trkpt>
      <trkpt lat="44.12291" lon="2.95199">
        <ele>622</ele>
        <time>2013-12-12T15:35:22Z</time>
      </trkpt>
      <trkpt lat="44.12291" lon="2.95192">
        <ele>621</ele>
        <time>2013-12-12T15:35:31Z</time>
      </trkpt>
      <trkpt lat="44.12295" lon="2.95187">
        <ele>621</ele>
        <time>2013-12-12T15:35:36Z</time>
      </trkpt>
      <trkpt lat="44.12299" lon="2.95184">
        <ele>621</ele>
        <time>2013-12-12T15:35:40Z</time>
      </trkpt>
      <trkpt lat="44.12302" lon="2.95179">
        <ele>622</ele>
        <time>2013-12-12T15:35:44Z</time>
      </trkpt>
      <trkpt lat="44.12305" lon="2.95173">
        <ele>622</ele>
        <time>2013-12-12T15:35:47Z</time>
      </trkpt>
      <trkpt lat="44.12306" lon="2.95167">
        <ele>623</ele>
        <time>2013-12-12T15:35:49Z</time>
      </trkpt>
      <trkpt lat="44.12306" lon="2.9516">
        <ele>623</ele>
        <time>2013-12-12T15:35:53Z</time>
      </trkpt>
      <trkpt lat="44.12311" lon="2.95157">
        <ele>624</ele>
        <time>2013-12-12T15:36:01Z</time>
      </trkpt>
      <trkpt lat="44.12313" lon="2.95152">
        <ele>625</ele>
        <time>2013-12-12T15:36:13Z</time>
      </trkpt>
      <trkpt lat="44.12311" lon="2.95145">
        <ele>625</ele>
        <time>2013-12-12T15:36:17Z</time>
      </trkpt>
      <trkpt lat="44.12309" lon="2.95137">
        <ele>624</ele>
        <time>2013-12-12T15:36:21Z</time>
      </trkpt>
      <trkpt lat="44.12312" lon="2.95131">
        <ele>623</ele>
        <time>2013-12-12T15:36:29Z</time>
      </trkpt>
      <trkpt lat="44.12313" lon="2.95124">
        <ele>622</ele>
        <time>2013-12-12T15:36:34Z</time>
      </trkpt>
      <trkpt lat="44.12317" lon="2.95122">
        <ele>622</ele>
        <time>2013-12-12T15:36:39Z</time>
      </trkpt>
      <trkpt lat="44.12322" lon="2.95122">
        <ele>621</ele>
        <time>2013-12-12T15:36:43Z</time>
      </trkpt>
      <trkpt lat="44.12326" lon="2.95117">
        <ele>620</ele>
        <time>2013-12-12T15:36:51Z</time>
      </trkpt>
      <trkpt lat="44.12331" lon="2.95114">
        <ele>619</ele>
        <time>2013-12-12T15:36:54Z</time>
      </trkpt>
      <trkpt lat="44.12333" lon="2.95109">
        <ele>619</ele>
        <time>2013-12-12T15:37:00Z</time>
      </trkpt>
      <trkpt lat="44.12336" lon="2.95103">
        <ele>620</ele>
        <time>2013-12-12T15:37:07Z</time>
      </trkpt>
      <trkpt lat="44.12339" lon="2.95098">
        <ele>620</ele>
        <time>2013-12-12T15:37:12Z</time>
      </trkpt>
      <trkpt lat="44.12341" lon="2.95092">
        <ele>620</ele>
        <time>2013-12-12T15:37:18Z</time>
      </trkpt>
      <trkpt lat="44.12339" lon="2.95086">
        <ele>619</ele>
        <time>2013-12-12T15:37:24Z</time>
      </trkpt>
      <trkpt lat="44.12339" lon="2.95082">
        <ele>618</ele>
        <time>2013-12-12T15:37:31Z</time>
      </trkpt>
      <trkpt lat="44.12344" lon="2.95082">
        <ele>618</ele>
        <time>2013-12-12T15:37:35Z</time>
      </trkpt>
      <trkpt lat="44.12346" lon="2.95076">
        <ele>617</ele>
        <time>2013-12-12T15:37:40Z</time>
      </trkpt>
      <trkpt lat="44.1235" lon="2.95074">
        <ele>615</ele>
        <time>2013-12-12T15:38:02Z</time>
      </trkpt>
      <trkpt lat="44.12354" lon="2.95074">
        <ele>607</ele>
        <time>2013-12-12T15:39:06Z</time>
      </trkpt>
      <trkpt lat="44.12356" lon="2.95073">
        <ele>606</ele>
        <time>2013-12-12T15:39:18Z</time>
      </trkpt>
      <trkpt lat="44.12364" lon="2.95065">
        <ele>600</ele>
        <time>2013-12-12T15:39:31Z</time>
      </trkpt>
      <trkpt lat="44.12367" lon="2.9506">
        <ele>597</ele>
        <time>2013-12-12T15:39:35Z</time>
      </trkpt>
      <trkpt lat="44.1237" lon="2.95038">
        <ele>589</ele>
        <time>2013-12-12T15:39:59Z</time>
      </trkpt>
      <trkpt lat="44.12373" lon="2.95034">
        <ele>589</ele>
        <time>2013-12-12T15:40:02Z</time>
      </trkpt>
      <trkpt lat="44.12377" lon="2.95028">
        <ele>589</ele>
        <time>2013-12-12T15:40:05Z</time>
      </trkpt>
      <trkpt lat="44.12382" lon="2.95024">
        <ele>589</ele>
        <time>2013-12-12T15:40:09Z</time>
      </trkpt>
      <trkpt lat="44.12387" lon="2.95023">
        <ele>589</ele>
        <time>2013-12-12T15:40:14Z</time>
      </trkpt>
      <trkpt lat="44.12389" lon="2.95018">
        <ele>587</ele>
        <time>2013-12-12T15:40:50Z</time>
      </trkpt>
      <trkpt lat="44.12393" lon="2.95021">
        <ele>587</ele>
        <time>2013-12-12T15:40:59Z</time>
      </trkpt>
      <trkpt lat="44.12395" lon="2.95018">
        <ele>587</ele>
        <time>2013-12-12T15:41:15Z</time>
      </trkpt>
      <trkpt lat="44.12408" lon="2.95018">
        <ele>575</ele>
        <time>2013-12-12T15:41:43Z</time>
      </trkpt>
      <trkpt lat="44.12412" lon="2.95015">
        <ele>575</ele>
        <time>2013-12-12T15:41:48Z</time>
      </trkpt>
      <trkpt lat="44.12415" lon="2.95008">
        <ele>575</ele>
        <time>2013-12-12T15:41:52Z</time>
      </trkpt>
      <trkpt lat="44.12416" lon="2.95002">
        <ele>576</ele>
        <time>2013-12-12T15:41:56Z</time>
      </trkpt>
      <trkpt lat="44.12419" lon="2.94996">
        <ele>577</ele>
        <time>2013-12-12T15:42:01Z</time>
      </trkpt>
      <trkpt lat="44.12422" lon="2.9499">
        <ele>577</ele>
        <time>2013-12-12T15:42:04Z</time>
      </trkpt>
      <trkpt lat="44.12427" lon="2.94982">
        <ele>578</ele>
        <time>2013-12-12T15:42:08Z</time>
      </trkpt>
      <trkpt lat="44.12432" lon="2.94976">
        <ele>579</ele>
        <time>2013-12-12T15:42:11Z</time>
      </trkpt>
      <trkpt lat="44.12436" lon="2.94973">
        <ele>579</ele>
        <time>2013-12-12T15:42:14Z</time>
      </trkpt>
      <trkpt lat="44.12443" lon="2.94972">
        <ele>578</ele>
        <time>2013-12-12T15:42:25Z</time>
      </trkpt>
      <trkpt lat="44.12448" lon="2.94973">
        <ele>578</ele>
        <time>2013-12-12T15:42:29Z</time>
      </trkpt>
      <trkpt lat="44.12453" lon="2.94968">
        <ele>578</ele>
        <time>2013-12-12T15:42:35Z</time>
      </trkpt>
      <trkpt lat="44.12456" lon="2.94964">
        <ele>579</ele>
        <time>2013-12-12T15:42:39Z</time>
      </trkpt>
      <trkpt lat="44.1246" lon="2.94965">
        <ele>579</ele>
        <time>2013-12-12T15:42:43Z</time>
      </trkpt>
      <trkpt lat="44.12465" lon="2.94969">
        <ele>579</ele>
        <time>2013-12-12T15:42:46Z</time>
      </trkpt>
      <trkpt lat="44.12469" lon="2.94968">
        <ele>579</ele>
        <time>2013-12-12T15:42:50Z</time>
      </trkpt>
      <trkpt lat="44.12472" lon="2.94962">
        <ele>580</ele>
        <time>2013-12-12T15:42:53Z</time>
      </trkpt>
      <trkpt lat="44.12474" lon="2.94956">
        <ele>580</ele>
        <time>2013-12-12T15:42:56Z</time>
      </trkpt>
      <trkpt lat="44.12477" lon="2.94951">
        <ele>579</ele>
        <time>2013-12-12T15:43:00Z</time>
      </trkpt>
      <trkpt lat="44.1248" lon="2.94946">
        <ele>577</ele>
        <time>2013-12-12T15:43:04Z</time>
      </trkpt>
      <trkpt lat="44.12485" lon="2.94942">
        <ele>575</ele>
        <time>2013-12-12T15:43:07Z</time>
      </trkpt>
      <trkpt lat="44.12489" lon="2.94939">
        <ele>574</ele>
        <time>2013-12-12T15:43:10Z</time>
      </trkpt>
      <trkpt lat="44.12493" lon="2.94935">
        <ele>571</ele>
        <time>2013-12-12T15:43:14Z</time>
      </trkpt>
      <trkpt lat="44.12498" lon="2.94935">
        <ele>568</ele>
        <time>2013-12-12T15:43:21Z</time>
      </trkpt>
      <trkpt lat="44.12473" lon="2.94919">
        <ele>566</ele>
        <time>2013-12-12T15:43:56Z</time>
      </trkpt>
      <trkpt lat="44.12482" lon="2.94924">
        <ele>565</ele>
        <time>2013-12-12T15:44:00Z</time>
      </trkpt>
      <trkpt lat="44.1249" lon="2.94932">
        <ele>564</ele>
        <time>2013-12-12T15:44:04Z</time>
      </trkpt>
      <trkpt lat="44.12498" lon="2.94942">
        <ele>563</ele>
        <time>2013-12-12T15:44:10Z</time>
      </trkpt>
      <trkpt lat="44.12501" lon="2.94953">
        <ele>563</ele>
        <time>2013-12-12T15:44:28Z</time>
      </trkpt>
      <trkpt lat="44.12505" lon="2.94958">
        <ele>563</ele>
        <time>2013-12-12T15:44:32Z</time>
      </trkpt>
      <trkpt lat="44.12511" lon="2.94964">
        <ele>564</ele>
        <time>2013-12-12T15:44:42Z</time>
      </trkpt>
      <trkpt lat="44.12512" lon="2.9497">
        <ele>565</ele>
        <time>2013-12-12T15:44:45Z</time>
      </trkpt>
      <trkpt lat="44.12513" lon="2.94977">
        <ele>566</ele>
        <time>2013-12-12T15:44:49Z</time>
      </trkpt>
      <trkpt lat="44.1251" lon="2.94983">
        <ele>566</ele>
        <time>2013-12-12T15:44:53Z</time>
      </trkpt>
      <trkpt lat="44.12507" lon="2.94988">
        <ele>566</ele>
        <time>2013-12-12T15:44:56Z</time>
      </trkpt>
      <trkpt lat="44.12504" lon="2.94992">
        <ele>566</ele>
        <time>2013-12-12T15:45:00Z</time>
      </trkpt>
      <trkpt lat="44.125" lon="2.94997">
        <ele>567</ele>
        <time>2013-12-12T15:45:04Z</time>
      </trkpt>
      <trkpt lat="44.12499" lon="2.95004">
        <ele>568</ele>
        <time>2013-12-12T15:45:08Z</time>
      </trkpt>
      <trkpt lat="44.12498" lon="2.95012">
        <ele>567</ele>
        <time>2013-12-12T15:45:12Z</time>
      </trkpt>
      <trkpt lat="44.12492" lon="2.95016">
        <ele>566</ele>
        <time>2013-12-12T15:45:16Z</time>
      </trkpt>
      <trkpt lat="44.12488" lon="2.95017">
        <ele>566</ele>
        <time>2013-12-12T15:45:19Z</time>
      </trkpt>
      <trkpt lat="44.12483" lon="2.95021">
        <ele>566</ele>
        <time>2013-12-12T15:45:23Z</time>
      </trkpt>
      <trkpt lat="44.12479" lon="2.95027">
        <ele>566</ele>
        <time>2013-12-12T15:45:28Z</time>
      </trkpt>
      <trkpt lat="44.12477" lon="2.95033">
        <ele>566</ele>
        <time>2013-12-12T15:45:32Z</time>
      </trkpt>
      <trkpt lat="44.12474" lon="2.95038">
        <ele>566</ele>
        <time>2013-12-12T15:45:35Z</time>
      </trkpt>
      <trkpt lat="44.1247" lon="2.95042">
        <ele>566</ele>
        <time>2013-12-12T15:45:39Z</time>
      </trkpt>
      <trkpt lat="44.12467" lon="2.95047">
        <ele>566</ele>
        <time>2013-12-12T15:45:46Z</time>
      </trkpt>
      <trkpt lat="44.12463" lon="2.95052">
        <ele>566</ele>
        <time>2013-12-12T15:45:51Z</time>
      </trkpt>
      <trkpt lat="44.12459" lon="2.95058">
        <ele>565</ele>
        <time>2013-12-12T15:45:55Z</time>
      </trkpt>
      <trkpt lat="44.12455" lon="2.95064">
        <ele>564</ele>
        <time>2013-12-12T15:45:59Z</time>
      </trkpt>
      <trkpt lat="44.12452" lon="2.95069">
        <ele>563</ele>
        <time>2013-12-12T15:46:03Z</time>
      </trkpt>
      <trkpt lat="44.12448" lon="2.95074">
        <ele>563</ele>
        <time>2013-12-12T15:46:08Z</time>
      </trkpt>
      <trkpt lat="44.12445" lon="2.95081">
        <ele>562</ele>
        <time>2013-12-12T15:46:12Z</time>
      </trkpt>
      <trkpt lat="44.12443" lon="2.95087">
        <ele>561</ele>
        <time>2013-12-12T15:46:15Z</time>
      </trkpt>
      <trkpt lat="44.1244" lon="2.95093">
        <ele>560</ele>
        <time>2013-12-12T15:46:19Z</time>
      </trkpt>
      <trkpt lat="44.12438" lon="2.95099">
        <ele>558</ele>
        <time>2013-12-12T15:46:23Z</time>
      </trkpt>
      <trkpt lat="44.12434" lon="2.95104">
        <ele>557</ele>
        <time>2013-12-12T15:46:28Z</time>
      </trkpt>
      <trkpt lat="44.12432" lon="2.9511">
        <ele>557</ele>
        <time>2013-12-12T15:46:33Z</time>
      </trkpt>
      <trkpt lat="44.12431" lon="2.95117">
        <ele>557</ele>
        <time>2013-12-12T15:46:37Z</time>
      </trkpt>
      <trkpt lat="44.12433" lon="2.95124">
        <ele>555</ele>
        <time>2013-12-12T15:46:42Z</time>
      </trkpt>
      <trkpt lat="44.12434" lon="2.9513">
        <ele>554</ele>
        <time>2013-12-12T15:46:46Z</time>
      </trkpt>
      <trkpt lat="44.12437" lon="2.95135">
        <ele>553</ele>
        <time>2013-12-12T15:46:50Z</time>
      </trkpt>
      <trkpt lat="44.12438" lon="2.95142">
        <ele>552</ele>
        <time>2013-12-12T15:46:56Z</time>
      </trkpt>
      <trkpt lat="44.12441" lon="2.95148">
        <ele>551</ele>
        <time>2013-12-12T15:47:01Z</time>
      </trkpt>
      <trkpt lat="44.12441" lon="2.95156">
        <ele>550</ele>
        <time>2013-12-12T15:47:06Z</time>
      </trkpt>
      <trkpt lat="44.12442" lon="2.95163">
        <ele>550</ele>
        <time>2013-12-12T15:47:10Z</time>
      </trkpt>
      <trkpt lat="44.12443" lon="2.9517">
        <ele>550</ele>
        <time>2013-12-12T15:47:18Z</time>
      </trkpt>
      <trkpt lat="44.12444" lon="2.95177">
        <ele>550</ele>
        <time>2013-12-12T15:47:23Z</time>
      </trkpt>
      <trkpt lat="44.12447" lon="2.95182">
        <ele>550</ele>
        <time>2013-12-12T15:47:27Z</time>
      </trkpt>
      <trkpt lat="44.12451" lon="2.95189">
        <ele>550</ele>
        <time>2013-12-12T15:47:31Z</time>
      </trkpt>
      <trkpt lat="44.12453" lon="2.95195">
        <ele>551</ele>
        <time>2013-12-12T15:47:35Z</time>
      </trkpt>
      <trkpt lat="44.12457" lon="2.95201">
        <ele>550</ele>
        <time>2013-12-12T15:47:39Z</time>
      </trkpt>
      <trkpt lat="44.12457" lon="2.95208">
        <ele>550</ele>
        <time>2013-12-12T15:47:43Z</time>
      </trkpt>
      <trkpt lat="44.12457" lon="2.95215">
        <ele>550</ele>
        <time>2013-12-12T15:47:49Z</time>
      </trkpt>
      <trkpt lat="44.12455" lon="2.95217">
        <ele>550</ele>
        <time>2013-12-12T15:47:55Z</time>
      </trkpt>
      <trkpt lat="44.12459" lon="2.95222">
        <ele>551</ele>
        <time>2013-12-12T15:48:00Z</time>
      </trkpt>
      <trkpt lat="44.12462" lon="2.95229">
        <ele>551</ele>
        <time>2013-12-12T15:48:04Z</time>
      </trkpt>
      <trkpt lat="44.12465" lon="2.95236">
        <ele>550</ele>
        <time>2013-12-12T15:48:10Z</time>
      </trkpt>
      <trkpt lat="44.12469" lon="2.95241">
        <ele>548</ele>
        <time>2013-12-12T15:48:16Z</time>
      </trkpt>
      <trkpt lat="44.12471" lon="2.95248">
        <ele>547</ele>
        <time>2013-12-12T15:48:20Z</time>
      </trkpt>
      <trkpt lat="44.12473" lon="2.95254">
        <ele>545</ele>
        <time>2013-12-12T15:48:26Z</time>
      </trkpt>
      <trkpt lat="44.12474" lon="2.95261">
        <ele>545</ele>
        <time>2013-12-12T15:48:32Z</time>
      </trkpt>
      <trkpt lat="44.12476" lon="2.95266">
        <ele>545</ele>
        <time>2013-12-12T15:48:39Z</time>
      </trkpt>
      <trkpt lat="44.12478" lon="2.95271">
        <ele>545</ele>
        <time>2013-12-12T15:48:47Z</time>
      </trkpt>
      <trkpt lat="44.12481" lon="2.95277">
        <ele>545</ele>
        <time>2013-12-12T15:48:55Z</time>
      </trkpt>
      <trkpt lat="44.12482" lon="2.95284">
        <ele>546</ele>
        <time>2013-12-12T15:48:59Z</time>
      </trkpt>
      <trkpt lat="44.12484" lon="2.9529">
        <ele>545</ele>
        <time>2013-12-12T15:49:03Z</time>
      </trkpt>
      <trkpt lat="44.12486" lon="2.95296">
        <ele>544</ele>
        <time>2013-12-12T15:49:07Z</time>
      </trkpt>
      <trkpt lat="44.12487" lon="2.95304">
        <ele>544</ele>
        <time>2013-12-12T15:49:12Z</time>
      </trkpt>
      <trkpt lat="44.12489" lon="2.95309">
        <ele>545</ele>
        <time>2013-12-12T15:49:17Z</time>
      </trkpt>
      <trkpt lat="44.12492" lon="2.95314">
        <ele>545</ele>
        <time>2013-12-12T15:49:22Z</time>
      </trkpt>
      <trkpt lat="44.12497" lon="2.95318">
        <ele>544</ele>
        <time>2013-12-12T15:49:25Z</time>
      </trkpt>
      <trkpt lat="44.12501" lon="2.95322">
        <ele>544</ele>
        <time>2013-12-12T15:49:28Z</time>
      </trkpt>
      <trkpt lat="44.12506" lon="2.95325">
        <ele>544</ele>
        <time>2013-12-12T15:49:33Z</time>
      </trkpt>
      <trkpt lat="44.12511" lon="2.95325">
        <ele>545</ele>
        <time>2013-12-12T15:49:38Z</time>
      </trkpt>
      <trkpt lat="44.12514" lon="2.95332">
        <ele>545</ele>
        <time>2013-12-12T15:49:43Z</time>
      </trkpt>
      <trkpt lat="44.12516" lon="2.95339">
        <ele>545</ele>
        <time>2013-12-12T15:49:48Z</time>
      </trkpt>
      <trkpt lat="44.12517" lon="2.95346">
        <ele>545</ele>
        <time>2013-12-12T15:49:51Z</time>
      </trkpt>
      <trkpt lat="44.12517" lon="2.95353">
        <ele>545</ele>
        <time>2013-12-12T15:49:55Z</time>
      </trkpt>
      <trkpt lat="44.12519" lon="2.95359">
        <ele>543</ele>
        <time>2013-12-12T15:49:59Z</time>
      </trkpt>
      <trkpt lat="44.12524" lon="2.95361">
        <ele>542</ele>
        <time>2013-12-12T15:50:04Z</time>
      </trkpt>
      <trkpt lat="44.12528" lon="2.95365">
        <ele>541</ele>
        <time>2013-12-12T15:50:09Z</time>
      </trkpt>
      <trkpt lat="44.12532" lon="2.95371">
        <ele>540</ele>
        <time>2013-12-12T15:50:12Z</time>
      </trkpt>
      <trkpt lat="44.12531" lon="2.95377">
        <ele>538</ele>
        <time>2013-12-12T15:50:20Z</time>
      </trkpt>
      <trkpt lat="44.12535" lon="2.95382">
        <ele>538</ele>
        <time>2013-12-12T15:50:25Z</time>
      </trkpt>
      <trkpt lat="44.12539" lon="2.95384">
        <ele>538</ele>
        <time>2013-12-12T15:50:27Z</time>
      </trkpt>
      <trkpt lat="44.12544" lon="2.95383">
        <ele>537</ele>
        <time>2013-12-12T15:50:33Z</time>
      </trkpt>
      <trkpt lat="44.12547" lon="2.95377">
        <ele>537</ele>
        <time>2013-12-12T15:50:38Z</time>
      </trkpt>
      <trkpt lat="44.12549" lon="2.9537">
        <ele>536</ele>
        <time>2013-12-12T15:50:43Z</time>
      </trkpt>
      <trkpt lat="44.12551" lon="2.95364">
        <ele>536</ele>
        <time>2013-12-12T15:50:49Z</time>
      </trkpt>
      <trkpt lat="44.12555" lon="2.95365">
        <ele>535</ele>
        <time>2013-12-12T15:51:08Z</time>
      </trkpt>
      <trkpt lat="44.12559" lon="2.9537">
        <ele>534</ele>
        <time>2013-12-12T15:51:13Z</time>
      </trkpt>
      <trkpt lat="44.12562" lon="2.95376">
        <ele>532</ele>
        <time>2013-12-12T15:51:17Z</time>
      </trkpt>
      <trkpt lat="44.12565" lon="2.95381">
        <ele>531</ele>
        <time>2013-12-12T15:51:20Z</time>
      </trkpt>
      <trkpt lat="44.12567" lon="2.95388">
        <ele>529</ele>
        <time>2013-12-12T15:51:24Z</time>
      </trkpt>
      <trkpt lat="44.12566" lon="2.95394">
        <ele>527</ele>
        <time>2013-12-12T15:51:29Z</time>
      </trkpt>
      <trkpt lat="44.12565" lon="2.95401">
        <ele>526</ele>
        <time>2013-12-12T15:51:34Z</time>
      </trkpt>
      <trkpt lat="44.12564" lon="2.95408">
        <ele>525</ele>
        <time>2013-12-12T15:51:39Z</time>
      </trkpt>
      <trkpt lat="44.12562" lon="2.95414">
        <ele>524</ele>
        <time>2013-12-12T15:51:45Z</time>
      </trkpt>
      <trkpt lat="44.12559" lon="2.95421">
        <ele>523</ele>
        <time>2013-12-12T15:51:51Z</time>
      </trkpt>
      <trkpt lat="44.12557" lon="2.95427">
        <ele>522</ele>
        <time>2013-12-12T15:51:56Z</time>
      </trkpt>
      <trkpt lat="44.12557" lon="2.95433">
        <ele>521</ele>
        <time>2013-12-12T15:52:00Z</time>
      </trkpt>
      <trkpt lat="44.12557" lon="2.9544">
        <ele>520</ele>
        <time>2013-12-12T15:52:05Z</time>
      </trkpt>
      <trkpt lat="44.12555" lon="2.95447">
        <ele>519</ele>
        <time>2013-12-12T15:52:09Z</time>
      </trkpt>
      <trkpt lat="44.12553" lon="2.95454">
        <ele>518</ele>
        <time>2013-12-12T15:52:13Z</time>
      </trkpt>
      <trkpt lat="44.12551" lon="2.95462">
        <ele>517</ele>
        <time>2013-12-12T15:52:19Z</time>
      </trkpt>
      <trkpt lat="44.12553" lon="2.95468">
        <ele>517</ele>
        <time>2013-12-12T15:52:25Z</time>
      </trkpt>
      <trkpt lat="44.12555" lon="2.95474">
        <ele>517</ele>
        <time>2013-12-12T15:52:29Z</time>
      </trkpt>
      <trkpt lat="44.12555" lon="2.95481">
        <ele>517</ele>
        <time>2013-12-12T15:52:33Z</time>
      </trkpt>
      <trkpt lat="44.12555" lon="2.95489">
        <ele>517</ele>
        <time>2013-12-12T15:52:37Z</time>
      </trkpt>
      <trkpt lat="44.12556" lon="2.95496">
        <ele>517</ele>
        <time>2013-12-12T15:52:41Z</time>
      </trkpt>
      <trkpt lat="44.12558" lon="2.95502">
        <ele>517</ele>
        <time>2013-12-12T15:52:44Z</time>
      </trkpt>
      <trkpt lat="44.1256" lon="2.95508">
        <ele>517</ele>
        <time>2013-12-12T15:52:47Z</time>
      </trkpt>
      <trkpt lat="44.12563" lon="2.95515">
        <ele>515</ele>
        <time>2013-12-12T15:52:50Z</time>
      </trkpt>
      <trkpt lat="44.12561" lon="2.95523">
        <ele>513</ele>
        <time>2013-12-12T15:52:55Z</time>
      </trkpt>
      <trkpt lat="44.12559" lon="2.9553">
        <ele>512</ele>
        <time>2013-12-12T15:52:59Z</time>
      </trkpt>
      <trkpt lat="44.12561" lon="2.95537">
        <ele>511</ele>
        <time>2013-12-12T15:53:04Z</time>
      </trkpt>
      <trkpt lat="44.12565" lon="2.95539">
        <ele>509</ele>
        <time>2013-12-12T15:53:09Z</time>
      </trkpt>
      <trkpt lat="44.12571" lon="2.95541">
        <ele>507</ele>
        <time>2013-12-12T15:53:16Z</time>
      </trkpt>
      <trkpt lat="44.12575" lon="2.95545">
        <ele>507</ele>
        <time>2013-12-12T15:53:19Z</time>
      </trkpt>
      <trkpt lat="44.12578" lon="2.95552">
        <ele>506</ele>
        <time>2013-12-12T15:53:22Z</time>
      </trkpt>
      <trkpt lat="44.12581" lon="2.95557">
        <ele>506</ele>
        <time>2013-12-12T15:53:25Z</time>
      </trkpt>
      <trkpt lat="44.12586" lon="2.9556">
        <ele>507</ele>
        <time>2013-12-12T15:53:28Z</time>
      </trkpt>
      <trkpt lat="44.1259" lon="2.95563">
        <ele>508</ele>
        <time>2013-12-12T15:53:34Z</time>
      </trkpt>
      <trkpt lat="44.12587" lon="2.95569">
        <ele>509</ele>
        <time>2013-12-12T15:53:38Z</time>
      </trkpt>
      <trkpt lat="44.12589" lon="2.95576">
        <ele>509</ele>
        <time>2013-12-12T15:53:42Z</time>
      </trkpt>
      <trkpt lat="44.12593" lon="2.9558">
        <ele>509</ele>
        <time>2013-12-12T15:53:46Z</time>
      </trkpt>
      <trkpt lat="44.12598" lon="2.95584">
        <ele>510</ele>
        <time>2013-12-12T15:53:49Z</time>
      </trkpt>
      <trkpt lat="44.12604" lon="2.95588">
        <ele>509</ele>
        <time>2013-12-12T15:53:52Z</time>
      </trkpt>
      <trkpt lat="44.12608" lon="2.9559">
        <ele>509</ele>
        <time>2013-12-12T15:53:54Z</time>
      </trkpt>
      <trkpt lat="44.12613" lon="2.95592">
        <ele>509</ele>
        <time>2013-12-12T15:53:56Z</time>
      </trkpt>
      <trkpt lat="44.12618" lon="2.95593">
        <ele>508</ele>
        <time>2013-12-12T15:54:00Z</time>
      </trkpt>
      <trkpt lat="44.12616" lon="2.956">
        <ele>506</ele>
        <time>2013-12-12T15:54:09Z</time>
      </trkpt>
      <trkpt lat="44.12619" lon="2.95606">
        <ele>505</ele>
        <time>2013-12-12T15:54:14Z</time>
      </trkpt>
      <trkpt lat="44.12623" lon="2.9561">
        <ele>505</ele>
        <time>2013-12-12T15:54:16Z</time>
      </trkpt>
      <trkpt lat="44.12628" lon="2.95615">
        <ele>504</ele>
        <time>2013-12-12T15:54:19Z</time>
      </trkpt>
      <trkpt lat="44.12631" lon="2.9562">
        <ele>504</ele>
        <time>2013-12-12T15:54:23Z</time>
      </trkpt>
      <trkpt lat="44.1263" lon="2.95628">
        <ele>505</ele>
        <time>2013-12-12T15:54:29Z</time>
      </trkpt>
      <trkpt lat="44.12632" lon="2.95635">
        <ele>505</ele>
        <time>2013-12-12T15:54:32Z</time>
      </trkpt>
      <trkpt lat="44.12634" lon="2.95641">
        <ele>505</ele>
        <time>2013-12-12T15:54:36Z</time>
      </trkpt>
      <trkpt lat="44.12634" lon="2.95648">
        <ele>506</ele>
        <time>2013-12-12T15:54:40Z</time>
      </trkpt>
      <trkpt lat="44.12631" lon="2.95654">
        <ele>506</ele>
        <time>2013-12-12T15:54:43Z</time>
      </trkpt>
      <trkpt lat="44.12627" lon="2.95658">
        <ele>505</ele>
        <time>2013-12-12T15:54:48Z</time>
      </trkpt>
      <trkpt lat="44.12625" lon="2.95665">
        <ele>504</ele>
        <time>2013-12-12T15:54:52Z</time>
      </trkpt>
      <trkpt lat="44.12624" lon="2.95672">
        <ele>503</ele>
        <time>2013-12-12T15:54:56Z</time>
      </trkpt>
      <trkpt lat="44.12623" lon="2.95678">
        <ele>502</ele>
        <time>2013-12-12T15:55:01Z</time>
      </trkpt>
      <trkpt lat="44.12623" lon="2.95685">
        <ele>501</ele>
        <time>2013-12-12T15:55:05Z</time>
      </trkpt>
      <trkpt lat="44.12623" lon="2.95693">
        <ele>499</ele>
        <time>2013-12-12T15:55:10Z</time>
      </trkpt>
      <trkpt lat="44.12622" lon="2.95701">
        <ele>498</ele>
        <time>2013-12-12T15:55:14Z</time>
      </trkpt>
      <trkpt lat="44.12619" lon="2.95708">
        <ele>497</ele>
        <time>2013-12-12T15:55:20Z</time>
      </trkpt>
      <trkpt lat="44.12617" lon="2.95713">
        <ele>497</ele>
        <time>2013-12-12T15:55:24Z</time>
      </trkpt>
      <trkpt lat="44.12615" lon="2.95721">
        <ele>498</ele>
        <time>2013-12-12T15:55:27Z</time>
      </trkpt>
      <trkpt lat="44.12614" lon="2.95728">
        <ele>498</ele>
        <time>2013-12-12T15:55:30Z</time>
      </trkpt>
      <trkpt lat="44.12615" lon="2.95735">
        <ele>498</ele>
        <time>2013-12-12T15:55:33Z</time>
      </trkpt>
      <trkpt lat="44.12615" lon="2.95741">
        <ele>498</ele>
        <time>2013-12-12T15:55:36Z</time>
      </trkpt>
      <trkpt lat="44.12616" lon="2.95749">
        <ele>499</ele>
        <time>2013-12-12T15:55:40Z</time>
      </trkpt>
      <trkpt lat="44.12616" lon="2.95756">
        <ele>500</ele>
        <time>2013-12-12T15:55:44Z</time>
      </trkpt>
      <trkpt lat="44.12615" lon="2.95763">
        <ele>501</ele>
        <time>2013-12-12T15:55:49Z</time>
      </trkpt>
      <trkpt lat="44.12617" lon="2.9577">
        <ele>502</ele>
        <time>2013-12-12T15:55:53Z</time>
      </trkpt>
      <trkpt lat="44.12621" lon="2.95775">
        <ele>503</ele>
        <time>2013-12-12T15:55:57Z</time>
      </trkpt>
      <trkpt lat="44.12626" lon="2.95776">
        <ele>504</ele>
        <time>2013-12-12T15:56:01Z</time>
      </trkpt>
      <trkpt lat="44.12629" lon="2.95781">
        <ele>506</ele>
        <time>2013-12-12T15:56:10Z</time>
      </trkpt>
      <trkpt lat="44.12633" lon="2.95782">
        <ele>506</ele>
        <time>2013-12-12T15:56:15Z</time>
      </trkpt>
      <trkpt lat="44.12639" lon="2.9578">
        <ele>507</ele>
        <time>2013-12-12T15:56:19Z</time>
      </trkpt>
      <trkpt lat="44.12643" lon="2.95778">
        <ele>508</ele>
        <time>2013-12-12T15:56:23Z</time>
      </trkpt>
      <trkpt lat="44.12648" lon="2.95775">
        <ele>509</ele>
        <time>2013-12-12T15:56:27Z</time>
      </trkpt>
      <trkpt lat="44.12653" lon="2.95774">
        <ele>511</ele>
        <time>2013-12-12T15:56:31Z</time>
      </trkpt>
      <trkpt lat="44.12658" lon="2.95775">
        <ele>512</ele>
        <time>2013-12-12T15:56:36Z</time>
      </trkpt>
      <trkpt lat="44.12663" lon="2.95778">
        <ele>513</ele>
        <time>2013-12-12T15:56:42Z</time>
      </trkpt>
      <trkpt lat="44.12667" lon="2.95778">
        <ele>514</ele>
        <time>2013-12-12T15:56:53Z</time>
      </trkpt>
      <trkpt lat="44.1267" lon="2.95776">
        <ele>514</ele>
        <time>2013-12-12T15:57:05Z</time>
      </trkpt>
      <trkpt lat="44.12674" lon="2.95772">
        <ele>514</ele>
        <time>2013-12-12T15:57:09Z</time>
      </trkpt>
      <trkpt lat="44.12676" lon="2.95765">
        <ele>514</ele>
        <time>2013-12-12T15:57:14Z</time>
      </trkpt>
      <trkpt lat="44.1268" lon="2.95761">
        <ele>514</ele>
        <time>2013-12-12T15:57:21Z</time>
      </trkpt>
      <trkpt lat="44.12685" lon="2.9576">
        <ele>513</ele>
        <time>2013-12-12T15:57:27Z</time>
      </trkpt>
      <trkpt lat="44.1269" lon="2.95758">
        <ele>513</ele>
        <time>2013-12-12T15:57:34Z</time>
      </trkpt>
      <trkpt lat="44.12694" lon="2.95755">
        <ele>516</ele>
        <time>2013-12-12T15:57:40Z</time>
      </trkpt>
      <trkpt lat="44.12697" lon="2.95751">
        <ele>517</ele>
        <time>2013-12-12T15:57:49Z</time>
      </trkpt>
      <trkpt lat="44.12702" lon="2.95749">
        <ele>518</ele>
        <time>2013-12-12T15:57:54Z</time>
      </trkpt>
      <trkpt lat="44.12706" lon="2.95749">
        <ele>519</ele>
        <time>2013-12-12T15:57:58Z</time>
      </trkpt>
      <trkpt lat="44.12711" lon="2.95749">
        <ele>521</ele>
        <time>2013-12-12T15:58:03Z</time>
      </trkpt>
      <trkpt lat="44.12716" lon="2.95749">
        <ele>521</ele>
        <time>2013-12-12T15:58:10Z</time>
      </trkpt>
      <trkpt lat="44.12721" lon="2.95749">
        <ele>522</ele>
        <time>2013-12-12T15:58:18Z</time>
      </trkpt>
      <trkpt lat="44.12725" lon="2.95748">
        <ele>524</ele>
        <time>2013-12-12T15:58:26Z</time>
      </trkpt>
      <trkpt lat="44.1273" lon="2.95746">
        <ele>525</ele>
        <time>2013-12-12T15:58:32Z</time>
      </trkpt>
      <trkpt lat="44.12735" lon="2.95745">
        <ele>526</ele>
        <time>2013-12-12T15:58:37Z</time>
      </trkpt>
      <trkpt lat="44.12739" lon="2.95746">
        <ele>527</ele>
        <time>2013-12-12T15:58:41Z</time>
      </trkpt>
      <trkpt lat="44.12744" lon="2.95747">
        <ele>528</ele>
        <time>2013-12-12T15:58:48Z</time>
      </trkpt>
      <trkpt lat="44.12749" lon="2.95747">
        <ele>528</ele>
        <time>2013-12-12T15:58:54Z</time>
      </trkpt>
      <trkpt lat="44.12754" lon="2.95748">
        <ele>529</ele>
        <time>2013-12-12T15:59:01Z</time>
      </trkpt>
      <trkpt lat="44.12758" lon="2.95749">
        <ele>530</ele>
        <time>2013-12-12T15:59:07Z</time>
      </trkpt>
      <trkpt lat="44.12775" lon="2.95749">
        <ele>538</ele>
        <time>2013-12-12T15:59:37Z</time>
      </trkpt>
      <trkpt lat="44.12779" lon="2.95751">
        <ele>537</ele>
        <time>2013-12-12T15:59:46Z</time>
      </trkpt>
      <trkpt lat="44.12783" lon="2.95755">
        <ele>537</ele>
        <time>2013-12-12T15:59:54Z</time>
      </trkpt>
      <trkpt lat="44.12788" lon="2.95757">
        <ele>538</ele>
        <time>2013-12-12T15:59:59Z</time>
      </trkpt>
      <trkpt lat="44.12793" lon="2.95759">
        <ele>539</ele>
        <time>2013-12-12T16:00:04Z</time>
      </trkpt>
      <trkpt lat="44.12798" lon="2.95761">
        <ele>540</ele>
        <time>2013-12-12T16:00:12Z</time>
      </trkpt>
      <trkpt lat="44.12802" lon="2.95763">
        <ele>542</ele>
        <time>2013-12-12T16:00:18Z</time>
      </trkpt>
      <trkpt lat="44.12805" lon="2.95757">
        <ele>543</ele>
        <time>2013-12-12T16:00:24Z</time>
      </trkpt>
      <trkpt lat="44.1281" lon="2.95758">
        <ele>544</ele>
        <time>2013-12-12T16:00:29Z</time>
      </trkpt>
      <trkpt lat="44.12815" lon="2.95762">
        <ele>544</ele>
        <time>2013-12-12T16:00:33Z</time>
      </trkpt>
      <trkpt lat="44.12819" lon="2.95767">
        <ele>545</ele>
        <time>2013-12-12T16:00:37Z</time>
      </trkpt>
      <trkpt lat="44.12823" lon="2.95769">
        <ele>546</ele>
        <time>2013-12-12T16:00:43Z</time>
      </trkpt>
      <trkpt lat="44.12828" lon="2.95769">
        <ele>547</ele>
        <time>2013-12-12T16:00:51Z</time>
      </trkpt>
      <trkpt lat="44.12832" lon="2.95766">
        <ele>547</ele>
        <time>2013-12-12T16:00:55Z</time>
      </trkpt>
      <trkpt lat="44.12837" lon="2.95767">
        <ele>547</ele>
        <time>2013-12-12T16:00:58Z</time>
      </trkpt>
      <trkpt lat="44.12844" lon="2.95767">
        <ele>547</ele>
        <time>2013-12-12T16:01:01Z</time>
      </trkpt>
      <trkpt lat="44.12848" lon="2.9577">
        <ele>547</ele>
        <time>2013-12-12T16:01:07Z</time>
      </trkpt>
      <trkpt lat="44.12853" lon="2.95767">
        <ele>548</ele>
        <time>2013-12-12T16:01:15Z</time>
      </trkpt>
      <trkpt lat="44.12858" lon="2.95765">
        <ele>549</ele>
        <time>2013-12-12T16:01:18Z</time>
      </trkpt>
      <trkpt lat="44.12862" lon="2.95761">
        <ele>549</ele>
        <time>2013-12-12T16:01:22Z</time>
      </trkpt>
      <trkpt lat="44.12867" lon="2.95757">
        <ele>550</ele>
        <time>2013-12-12T16:01:26Z</time>
      </trkpt>
      <trkpt lat="44.1287" lon="2.95752">
        <ele>550</ele>
        <time>2013-12-12T16:01:35Z</time>
      </trkpt>
      <trkpt lat="44.12875" lon="2.9575">
        <ele>551</ele>
        <time>2013-12-12T16:01:41Z</time>
      </trkpt>
      <trkpt lat="44.12879" lon="2.95747">
        <ele>550</ele>
        <time>2013-12-12T16:01:45Z</time>
      </trkpt>
      <trkpt lat="44.12884" lon="2.95742">
        <ele>550</ele>
        <time>2013-12-12T16:01:49Z</time>
      </trkpt>
      <trkpt lat="44.12888" lon="2.95737">
        <ele>550</ele>
        <time>2013-12-12T16:01:52Z</time>
      </trkpt>
      <trkpt lat="44.12891" lon="2.95729">
        <ele>549</ele>
        <time>2013-12-12T16:01:55Z</time>
      </trkpt>
      <trkpt lat="44.12892" lon="2.95723">
        <ele>548</ele>
        <time>2013-12-12T16:01:58Z</time>
      </trkpt>
      <trkpt lat="44.12896" lon="2.95719">
        <ele>547</ele>
        <time>2013-12-12T16:02:02Z</time>
      </trkpt>
      <trkpt lat="44.12901" lon="2.95716">
        <ele>546</ele>
        <time>2013-12-12T16:02:07Z</time>
      </trkpt>
      <trkpt lat="44.12906" lon="2.95713">
        <ele>545</ele>
        <time>2013-12-12T16:02:11Z</time>
      </trkpt>
      <trkpt lat="44.12911" lon="2.9571">
        <ele>545</ele>
        <time>2013-12-12T16:02:15Z</time>
      </trkpt>
      <trkpt lat="44.12916" lon="2.95707">
        <ele>545</ele>
        <time>2013-12-12T16:02:18Z</time>
      </trkpt>
      <trkpt lat="44.1292" lon="2.95705">
        <ele>545</ele>
        <time>2013-12-12T16:02:21Z</time>
      </trkpt>
      <trkpt lat="44.12925" lon="2.95705">
        <ele>546</ele>
        <time>2013-12-12T16:02:24Z</time>
      </trkpt>
      <trkpt lat="44.1293" lon="2.95705">
        <ele>546</ele>
        <time>2013-12-12T16:02:27Z</time>
      </trkpt>
      <trkpt lat="44.12936" lon="2.95706">
        <ele>546</ele>
        <time>2013-12-12T16:02:31Z</time>
      </trkpt>
      <trkpt lat="44.1294" lon="2.95705">
        <ele>547</ele>
        <time>2013-12-12T16:02:35Z</time>
      </trkpt>
      <trkpt lat="44.12945" lon="2.95704">
        <ele>549</ele>
        <time>2013-12-12T16:02:40Z</time>
      </trkpt>
      <trkpt lat="44.1295" lon="2.95704">
        <ele>551</ele>
        <time>2013-12-12T16:02:46Z</time>
      </trkpt>
      <trkpt lat="44.12954" lon="2.957">
        <ele>553</ele>
        <time>2013-12-12T16:02:51Z</time>
      </trkpt>
      <trkpt lat="44.12959" lon="2.95697">
        <ele>554</ele>
        <time>2013-12-12T16:02:56Z</time>
      </trkpt>
      <trkpt lat="44.12964" lon="2.95696">
        <ele>554</ele>
        <time>2013-12-12T16:03:00Z</time>
      </trkpt>
      <trkpt lat="44.12969" lon="2.957">
        <ele>554</ele>
        <time>2013-12-12T16:03:06Z</time>
      </trkpt>
      <trkpt lat="44.12975" lon="2.95699">
        <ele>554</ele>
        <time>2013-12-12T16:03:10Z</time>
      </trkpt>
      <trkpt lat="44.12981" lon="2.95699">
        <ele>554</ele>
        <time>2013-12-12T16:03:13Z</time>
      </trkpt>
      <trkpt lat="44.12987" lon="2.95701">
        <ele>554</ele>
        <time>2013-12-12T16:03:16Z</time>
      </trkpt>
      <trkpt lat="44.12991" lon="2.95704">
        <ele>554</ele>
        <time>2013-12-12T16:03:19Z</time>
      </trkpt>
      <trkpt lat="44.12997" lon="2.95706">
        <ele>554</ele>
        <time>2013-12-12T16:03:24Z</time>
      </trkpt>
      <trkpt lat="44.13003" lon="2.95707">
        <ele>553</ele>
        <time>2013-12-12T16:03:28Z</time>
      </trkpt>
      <trkpt lat="44.13008" lon="2.95707">
        <ele>552</ele>
        <time>2013-12-12T16:03:32Z</time>
      </trkpt>
      <trkpt lat="44.13012" lon="2.95707">
        <ele>552</ele>
        <time>2013-12-12T16:03:35Z</time>
      </trkpt>
      <trkpt lat="44.13017" lon="2.95709">
        <ele>551</ele>
        <time>2013-12-12T16:03:38Z</time>
      </trkpt>
      <trkpt lat="44.13022" lon="2.95711">
        <ele>551</ele>
        <time>2013-12-12T16:03:42Z</time>
      </trkpt>
      <trkpt lat="44.13026" lon="2.95715">
        <ele>551</ele>
        <time>2013-12-12T16:03:50Z</time>
      </trkpt>
      <trkpt lat="44.13033" lon="2.95716">
        <ele>551</ele>
        <time>2013-12-12T16:03:54Z</time>
      </trkpt>
      <trkpt lat="44.13037" lon="2.95716">
        <ele>552</ele>
        <time>2013-12-12T16:03:58Z</time>
      </trkpt>
      <trkpt lat="44.13043" lon="2.95718">
        <ele>552</ele>
        <time>2013-12-12T16:04:03Z</time>
      </trkpt>
      <trkpt lat="44.13048" lon="2.95721">
        <ele>552</ele>
        <time>2013-12-12T16:04:07Z</time>
      </trkpt>
      <trkpt lat="44.13053" lon="2.95722">
        <ele>551</ele>
        <time>2013-12-12T16:04:12Z</time>
      </trkpt>
      <trkpt lat="44.13057" lon="2.95727">
        <ele>552</ele>
        <time>2013-12-12T16:04:19Z</time>
      </trkpt>
      <trkpt lat="44.13061" lon="2.9573">
        <ele>553</ele>
        <time>2013-12-12T16:04:23Z</time>
      </trkpt>
      <trkpt lat="44.13066" lon="2.95734">
        <ele>554</ele>
        <time>2013-12-12T16:04:29Z</time>
      </trkpt>
      <trkpt lat="44.13071" lon="2.95738">
        <ele>555</ele>
        <time>2013-12-12T16:04:33Z</time>
      </trkpt>
      <trkpt lat="44.13074" lon="2.95743">
        <ele>555</ele>
        <time>2013-12-12T16:04:37Z</time>
      </trkpt>
      <trkpt lat="44.13078" lon="2.95748">
        <ele>555</ele>
        <time>2013-12-12T16:04:40Z</time>
      </trkpt>
      <trkpt lat="44.13081" lon="2.95754">
        <ele>554</ele>
        <time>2013-12-12T16:04:44Z</time>
      </trkpt>
      <trkpt lat="44.13084" lon="2.95759">
        <ele>552</ele>
        <time>2013-12-12T16:04:50Z</time>
      </trkpt>
      <trkpt lat="44.13088" lon="2.95763">
        <ele>552</ele>
        <time>2013-12-12T16:04:53Z</time>
      </trkpt>
      <trkpt lat="44.13093" lon="2.95766">
        <ele>552</ele>
        <time>2013-12-12T16:04:56Z</time>
      </trkpt>
      <trkpt lat="44.13098" lon="2.9577">
        <ele>552</ele>
        <time>2013-12-12T16:04:59Z</time>
      </trkpt>
      <trkpt lat="44.13101" lon="2.95775">
        <ele>551</ele>
        <time>2013-12-12T16:05:02Z</time>
      </trkpt>
      <trkpt lat="44.13104" lon="2.95781">
        <ele>551</ele>
        <time>2013-12-12T16:05:05Z</time>
      </trkpt>
      <trkpt lat="44.13108" lon="2.95785">
        <ele>550</ele>
        <time>2013-12-12T16:05:12Z</time>
      </trkpt>
      <trkpt lat="44.13113" lon="2.95786">
        <ele>549</ele>
        <time>2013-12-12T16:05:18Z</time>
      </trkpt>
      <trkpt lat="44.13118" lon="2.95789">
        <ele>549</ele>
        <time>2013-12-12T16:05:21Z</time>
      </trkpt>
      <trkpt lat="44.13122" lon="2.95794">
        <ele>549</ele>
        <time>2013-12-12T16:05:25Z</time>
      </trkpt>
      <trkpt lat="44.13126" lon="2.95799">
        <ele>550</ele>
        <time>2013-12-12T16:05:30Z</time>
      </trkpt>
      <trkpt lat="44.1313" lon="2.95805">
        <ele>551</ele>
        <time>2013-12-12T16:05:34Z</time>
      </trkpt>
      <trkpt lat="44.13135" lon="2.95808">
        <ele>551</ele>
        <time>2013-12-12T16:05:37Z</time>
      </trkpt>
      <trkpt lat="44.13139" lon="2.95813">
        <ele>551</ele>
        <time>2013-12-12T16:05:41Z</time>
      </trkpt>
      <trkpt lat="44.13142" lon="2.95818">
        <ele>551</ele>
        <time>2013-12-12T16:05:49Z</time>
      </trkpt>
      <trkpt lat="44.13145" lon="2.95823">
        <ele>550</ele>
        <time>2013-12-12T16:05:53Z</time>
      </trkpt>
      <trkpt lat="44.13148" lon="2.95827">
        <ele>550</ele>
        <time>2013-12-12T16:06:01Z</time>
      </trkpt>
      <trkpt lat="44.13146" lon="2.95833">
        <ele>550</ele>
        <time>2013-12-12T16:06:07Z</time>
      </trkpt>
      <trkpt lat="44.1315" lon="2.95838">
        <ele>550</ele>
        <time>2013-12-12T16:06:13Z</time>
      </trkpt>
      <trkpt lat="44.13154" lon="2.95844">
        <ele>550</ele>
        <time>2013-12-12T16:06:15Z</time>
      </trkpt>
      <trkpt lat="44.13158" lon="2.95849">
        <ele>550</ele>
        <time>2013-12-12T16:06:17Z</time>
      </trkpt>
      <trkpt lat="44.13164" lon="2.95853">
        <ele>550</ele>
        <time>2013-12-12T16:06:19Z</time>
      </trkpt>
      <trkpt lat="44.13169" lon="2.95853">
        <ele>550</ele>
        <time>2013-12-12T16:06:22Z</time>
      </trkpt>
      <trkpt lat="44.13174" lon="2.95854">
        <ele>551</ele>
        <time>2013-12-12T16:06:26Z</time>
      </trkpt>
      <trkpt lat="44.13179" lon="2.95857">
        <ele>551</ele>
        <time>2013-12-12T16:06:29Z</time>
      </trkpt>
      <trkpt lat="44.13184" lon="2.9586">
        <ele>551</ele>
        <time>2013-12-12T16:06:32Z</time>
      </trkpt>
      <trkpt lat="44.13188" lon="2.95864">
        <ele>553</ele>
        <time>2013-12-12T16:06:36Z</time>
      </trkpt>
      <trkpt lat="44.13192" lon="2.95868">
        <ele>554</ele>
        <time>2013-12-12T16:06:39Z</time>
      </trkpt>
      <trkpt lat="44.13196" lon="2.95872">
        <ele>555</ele>
        <time>2013-12-12T16:06:43Z</time>
      </trkpt>
      <trkpt lat="44.132" lon="2.95877">
        <ele>556</ele>
        <time>2013-12-12T16:06:48Z</time>
      </trkpt>
      <trkpt lat="44.13205" lon="2.95879">
        <ele>556</ele>
        <time>2013-12-12T16:06:53Z</time>
      </trkpt>
      <trkpt lat="44.1321" lon="2.95879">
        <ele>556</ele>
        <time>2013-12-12T16:06:56Z</time>
      </trkpt>
      <trkpt lat="44.13214" lon="2.95882">
        <ele>555</ele>
        <time>2013-12-12T16:06:59Z</time>
      </trkpt>
      <trkpt lat="44.1322" lon="2.95885">
        <ele>553</ele>
        <time>2013-12-12T16:07:05Z</time>
      </trkpt>
      <trkpt lat="44.13224" lon="2.95887">
        <ele>553</ele>
        <time>2013-12-12T16:07:08Z</time>
      </trkpt>
      <trkpt lat="44.13229" lon="2.9589">
        <ele>553</ele>
        <time>2013-12-12T16:07:13Z</time>
      </trkpt>
      <trkpt lat="44.13232" lon="2.95894">
        <ele>553</ele>
        <time>2013-12-12T16:07:18Z</time>
      </trkpt>
      <trkpt lat="44.13236" lon="2.95898">
        <ele>552</ele>
        <time>2013-12-12T16:07:23Z</time>
      </trkpt>
      <trkpt lat="44.13241" lon="2.95902">
        <ele>552</ele>
        <time>2013-12-12T16:07:28Z</time>
      </trkpt>
      <trkpt lat="44.13245" lon="2.95905">
        <ele>552</ele>
        <time>2013-12-12T16:07:34Z</time>
      </trkpt>
      <trkpt lat="44.1325" lon="2.95908">
        <ele>551</ele>
        <time>2013-12-12T16:07:41Z</time>
      </trkpt>
      <trkpt lat="44.13254" lon="2.9591">
        <ele>551</ele>
        <time>2013-12-12T16:07:48Z</time>
      </trkpt>
      <trkpt lat="44.13259" lon="2.95914">
        <ele>551</ele>
        <time>2013-12-12T16:07:52Z</time>
      </trkpt>
      <trkpt lat="44.13264" lon="2.95918">
        <ele>550</ele>
        <time>2013-12-12T16:07:56Z</time>
      </trkpt>
      <trkpt lat="44.13268" lon="2.95921">
        <ele>551</ele>
        <time>2013-12-12T16:08:01Z</time>
      </trkpt>
      <trkpt lat="44.13273" lon="2.95924">
        <ele>552</ele>
        <time>2013-12-12T16:08:07Z</time>
      </trkpt>
      <trkpt lat="44.13278" lon="2.95929">
        <ele>552</ele>
        <time>2013-12-12T16:08:12Z</time>
      </trkpt>
      <trkpt lat="44.13283" lon="2.95934">
        <ele>552</ele>
        <time>2013-12-12T16:08:16Z</time>
      </trkpt>
      <trkpt lat="44.13287" lon="2.95937">
        <ele>554</ele>
        <time>2013-12-12T16:08:20Z</time>
      </trkpt>
      <trkpt lat="44.13291" lon="2.9594">
        <ele>555</ele>
        <time>2013-12-12T16:08:24Z</time>
      </trkpt>
      <trkpt lat="44.13293" lon="2.95946">
        <ele>553</ele>
        <time>2013-12-12T16:08:33Z</time>
      </trkpt>
      <trkpt lat="44.13296" lon="2.9595">
        <ele>552</ele>
        <time>2013-12-12T16:08:37Z</time>
      </trkpt>
      <trkpt lat="44.13301" lon="2.95952">
        <ele>552</ele>
        <time>2013-12-12T16:08:40Z</time>
      </trkpt>
      <trkpt lat="44.13306" lon="2.95953">
        <ele>551</ele>
        <time>2013-12-12T16:08:43Z</time>
      </trkpt>
      <trkpt lat="44.13311" lon="2.95953">
        <ele>551</ele>
        <time>2013-12-12T16:08:46Z</time>
      </trkpt>
      <trkpt lat="44.13316" lon="2.95954">
        <ele>551</ele>
        <time>2013-12-12T16:08:49Z</time>
      </trkpt>
      <trkpt lat="44.13319" lon="2.95954">
        <ele>552</ele>
        <time>2013-12-12T16:08:55Z</time>
      </trkpt>
      <trkpt lat="44.13324" lon="2.95955">
        <ele>552</ele>
        <time>2013-12-12T16:08:59Z</time>
      </trkpt>
      <trkpt lat="44.13329" lon="2.95955">
        <ele>554</ele>
        <time>2013-12-12T16:09:05Z</time>
      </trkpt>
      <trkpt lat="44.13335" lon="2.95955">
        <ele>555</ele>
        <time>2013-12-12T16:09:07Z</time>
      </trkpt>
      <trkpt lat="44.13339" lon="2.95955">
        <ele>556</ele>
        <time>2013-12-12T16:09:08Z</time>
      </trkpt>
      <trkpt lat="44.13341" lon="2.95955">
        <ele>556</ele>
        <time>2013-12-12T16:09:09Z</time>
      </trkpt>
      <trkpt lat="44.13347" lon="2.9596">
        <ele>559</ele>
        <time>2013-12-12T16:09:15Z</time>
      </trkpt>
      <trkpt lat="44.13352" lon="2.95958">
        <ele>560</ele>
        <time>2013-12-12T16:09:20Z</time>
      </trkpt>
      <trkpt lat="44.13357" lon="2.95958">
        <ele>560</ele>
        <time>2013-12-12T16:09:27Z</time>
      </trkpt>
      <trkpt lat="44.13362" lon="2.9596">
        <ele>560</ele>
        <time>2013-12-12T16:09:33Z</time>
      </trkpt>
      <trkpt lat="44.13367" lon="2.95959">
        <ele>560</ele>
        <time>2013-12-12T16:09:36Z</time>
      </trkpt>
      <trkpt lat="44.13372" lon="2.95961">
        <ele>559</ele>
        <time>2013-12-12T16:09:39Z</time>
      </trkpt>
      <trkpt lat="44.13377" lon="2.95961">
        <ele>559</ele>
        <time>2013-12-12T16:09:44Z</time>
      </trkpt>
      <trkpt lat="44.13383" lon="2.95961">
        <ele>560</ele>
        <time>2013-12-12T16:09:49Z</time>
      </trkpt>
      <trkpt lat="44.13388" lon="2.95964">
        <ele>560</ele>
        <time>2013-12-12T16:09:53Z</time>
      </trkpt>
      <trkpt lat="44.13393" lon="2.95966">
        <ele>561</ele>
        <time>2013-12-12T16:09:56Z</time>
      </trkpt>
      <trkpt lat="44.13397" lon="2.95964">
        <ele>562</ele>
        <time>2013-12-12T16:09:58Z</time>
      </trkpt>
      <trkpt lat="44.13402" lon="2.95962">
        <ele>563</ele>
        <time>2013-12-12T16:10:01Z</time>
      </trkpt>
      <trkpt lat="44.13406" lon="2.9596">
        <ele>564</ele>
        <time>2013-12-12T16:10:12Z</time>
      </trkpt>
      <trkpt lat="44.1341" lon="2.95956">
        <ele>564</ele>
        <time>2013-12-12T16:10:17Z</time>
      </trkpt>
      <trkpt lat="44.13419" lon="2.95953">
        <ele>564</ele>
        <time>2013-12-12T16:10:30Z</time>
      </trkpt>
      <trkpt lat="44.13424" lon="2.95955">
        <ele>564</ele>
        <time>2013-12-12T16:10:32Z</time>
      </trkpt>
      <trkpt lat="44.13429" lon="2.95955">
        <ele>564</ele>
        <time>2013-12-12T16:10:35Z</time>
      </trkpt>
      <trkpt lat="44.13434" lon="2.95955">
        <ele>563</ele>
        <time>2013-12-12T16:10:40Z</time>
      </trkpt>
      <trkpt lat="44.13438" lon="2.95955">
        <ele>564</ele>
        <time>2013-12-12T16:10:44Z</time>
      </trkpt>
      <trkpt lat="44.13443" lon="2.95954">
        <ele>564</ele>
        <time>2013-12-12T16:10:49Z</time>
      </trkpt>
      <trkpt lat="44.13449" lon="2.95952">
        <ele>562</ele>
        <time>2013-12-12T16:10:55Z</time>
      </trkpt>
      <trkpt lat="44.13454" lon="2.95951">
        <ele>561</ele>
        <time>2013-12-12T16:10:59Z</time>
      </trkpt>
      <trkpt lat="44.13458" lon="2.95954">
        <ele>561</ele>
        <time>2013-12-12T16:11:02Z</time>
      </trkpt>
      <trkpt lat="44.13463" lon="2.95956">
        <ele>561</ele>
        <time>2013-12-12T16:11:05Z</time>
      </trkpt>
      <trkpt lat="44.13468" lon="2.95953">
        <ele>561</ele>
        <time>2013-12-12T16:11:09Z</time>
      </trkpt>
      <trkpt lat="44.13474" lon="2.95951">
        <ele>561</ele>
        <time>2013-12-12T16:11:12Z</time>
      </trkpt>
      <trkpt lat="44.13478" lon="2.95945">
        <ele>561</ele>
        <time>2013-12-12T16:11:16Z</time>
      </trkpt>
      <trkpt lat="44.1348" lon="2.95939">
        <ele>560</ele>
        <time>2013-12-12T16:11:19Z</time>
      </trkpt>
      <trkpt lat="44.13482" lon="2.95934">
        <ele>560</ele>
        <time>2013-12-12T16:11:22Z</time>
      </trkpt>
      <trkpt lat="44.13488" lon="2.95931">
        <ele>561</ele>
        <time>2013-12-12T16:11:25Z</time>
      </trkpt>
      <trkpt lat="44.13492" lon="2.95928">
        <ele>561</ele>
        <time>2013-12-12T16:11:30Z</time>
      </trkpt>
      <trkpt lat="44.13495" lon="2.95934">
        <ele>562</ele>
        <time>2013-12-12T16:11:36Z</time>
      </trkpt>
      <trkpt lat="44.13499" lon="2.9594">
        <ele>562</ele>
        <time>2013-12-12T16:11:42Z</time>
      </trkpt>
      <trkpt lat="44.13504" lon="2.95943">
        <ele>563</ele>
        <time>2013-12-12T16:11:46Z</time>
      </trkpt>
      <trkpt lat="44.13509" lon="2.95947">
        <ele>564</ele>
        <time>2013-12-12T16:11:49Z</time>
      </trkpt>
      <trkpt lat="44.13514" lon="2.95953">
        <ele>564</ele>
        <time>2013-12-12T16:11:52Z</time>
      </trkpt>
      <trkpt lat="44.13518" lon="2.95955">
        <ele>564</ele>
        <time>2013-12-12T16:11:54Z</time>
      </trkpt>
      <trkpt lat="44.13522" lon="2.9596">
        <ele>563</ele>
        <time>2013-12-12T16:12:00Z</time>
      </trkpt>
      <trkpt lat="44.13526" lon="2.95964">
        <ele>563</ele>
        <time>2013-12-12T16:12:05Z</time>
      </trkpt>
      <trkpt lat="44.13529" lon="2.9597">
        <ele>561</ele>
        <time>2013-12-12T16:12:10Z</time>
      </trkpt>
      <trkpt lat="44.13533" lon="2.95975">
        <ele>561</ele>
        <time>2013-12-12T16:12:14Z</time>
      </trkpt>
      <trkpt lat="44.13536" lon="2.95981">
        <ele>561</ele>
        <time>2013-12-12T16:12:16Z</time>
      </trkpt>
      <trkpt lat="44.1354" lon="2.95987">
        <ele>561</ele>
        <time>2013-12-12T16:12:18Z</time>
      </trkpt>
      <trkpt lat="44.13544" lon="2.95992">
        <ele>561</ele>
        <time>2013-12-12T16:12:21Z</time>
      </trkpt>
      <trkpt lat="44.13548" lon="2.95993">
        <ele>561</ele>
        <time>2013-12-12T16:12:23Z</time>
      </trkpt>
      <trkpt lat="44.13555" lon="2.95991">
        <ele>561</ele>
        <time>2013-12-12T16:12:28Z</time>
      </trkpt>
      <trkpt lat="44.13559" lon="2.95989">
        <ele>561</ele>
        <time>2013-12-12T16:12:30Z</time>
      </trkpt>
      <trkpt lat="44.13562" lon="2.95993">
        <ele>561</ele>
        <time>2013-12-12T16:12:39Z</time>
      </trkpt>
      <trkpt lat="44.13561" lon="2.95999">
        <ele>561</ele>
        <time>2013-12-12T16:12:43Z</time>
      </trkpt>
      <trkpt lat="44.13563" lon="2.96004">
        <ele>561</ele>
        <time>2013-12-12T16:12:46Z</time>
      </trkpt>
      <trkpt lat="44.13568" lon="2.9601">
        <ele>562</ele>
        <time>2013-12-12T16:12:48Z</time>
      </trkpt>
      <trkpt lat="44.13572" lon="2.96014">
        <ele>562</ele>
        <time>2013-12-12T16:12:50Z</time>
      </trkpt>
      <trkpt lat="44.13576" lon="2.9602">
        <ele>563</ele>
        <time>2013-12-12T16:12:53Z</time>
      </trkpt>
      <trkpt lat="44.13578" lon="2.96025">
        <ele>563</ele>
        <time>2013-12-12T16:12:57Z</time>
      </trkpt>
      <trkpt lat="44.13579" lon="2.96032">
        <ele>562</ele>
        <time>2013-12-12T16:13:04Z</time>
      </trkpt>
      <trkpt lat="44.13586" lon="2.96037">
        <ele>561</ele>
        <time>2013-12-12T16:13:07Z</time>
      </trkpt>
      <trkpt lat="44.13591" lon="2.96038">
        <ele>561</ele>
        <time>2013-12-12T16:13:08Z</time>
      </trkpt>
      <trkpt lat="44.1359" lon="2.96041">
        <ele>560</ele>
        <time>2013-12-12T16:13:10Z</time>
      </trkpt>
      <trkpt lat="44.13589" lon="2.9605">
        <ele>559</ele>
        <time>2013-12-12T16:13:17Z</time>
      </trkpt>
      <trkpt lat="44.1359" lon="2.96057">
        <ele>558</ele>
        <time>2013-12-12T16:13:24Z</time>
      </trkpt>
      <trkpt lat="44.1359" lon="2.96064">
        <ele>558</ele>
        <time>2013-12-12T16:13:27Z</time>
      </trkpt>
      <trkpt lat="44.13593" lon="2.96071">
        <ele>558</ele>
        <time>2013-12-12T16:13:30Z</time>
      </trkpt>
      <trkpt lat="44.13594" lon="2.96078">
        <ele>559</ele>
        <time>2013-12-12T16:13:34Z</time>
      </trkpt>
      <trkpt lat="44.13594" lon="2.96086">
        <ele>559</ele>
        <time>2013-12-12T16:13:37Z</time>
      </trkpt>
      <trkpt lat="44.13594" lon="2.96094">
        <ele>560</ele>
        <time>2013-12-12T16:13:41Z</time>
      </trkpt>
      <trkpt lat="44.13596" lon="2.961">
        <ele>560</ele>
        <time>2013-12-12T16:13:44Z</time>
      </trkpt>
      <trkpt lat="44.13597" lon="2.96107">
        <ele>561</ele>
        <time>2013-12-12T16:13:47Z</time>
      </trkpt>
      <trkpt lat="44.13597" lon="2.96114">
        <ele>561</ele>
        <time>2013-12-12T16:13:50Z</time>
      </trkpt>
      <trkpt lat="44.13596" lon="2.9612">
        <ele>560</ele>
        <time>2013-12-12T16:13:54Z</time>
      </trkpt>
      <trkpt lat="44.13601" lon="2.96118">
        <ele>559</ele>
        <time>2013-12-12T16:13:58Z</time>
      </trkpt>
      <trkpt lat="44.13606" lon="2.96117">
        <ele>559</ele>
        <time>2013-12-12T16:14:00Z</time>
      </trkpt>
      <trkpt lat="44.13612" lon="2.96116">
        <ele>558</ele>
        <time>2013-12-12T16:14:02Z</time>
      </trkpt>
      <trkpt lat="44.13617" lon="2.96115">
        <ele>558</ele>
        <time>2013-12-12T16:14:05Z</time>
      </trkpt>
      <trkpt lat="44.13618" lon="2.96122">
        <ele>558</ele>
        <time>2013-12-12T16:14:13Z</time>
      </trkpt>
      <trkpt lat="44.13618" lon="2.96129">
        <ele>558</ele>
        <time>2013-12-12T16:14:17Z</time>
      </trkpt>
      <trkpt lat="44.13623" lon="2.96131">
        <ele>558</ele>
        <time>2013-12-12T16:14:21Z</time>
      </trkpt>
      <trkpt lat="44.13628" lon="2.96131">
        <ele>557</ele>
        <time>2013-12-12T16:14:24Z</time>
      </trkpt>
      <trkpt lat="44.13632" lon="2.96134">
        <ele>557</ele>
        <time>2013-12-12T16:14:28Z</time>
      </trkpt>
      <trkpt lat="44.13638" lon="2.96136">
        <ele>556</ele>
        <time>2013-12-12T16:14:32Z</time>
      </trkpt>
      <trkpt lat="44.13643" lon="2.96136">
        <ele>556</ele>
        <time>2013-12-12T16:14:35Z</time>
      </trkpt>
      <trkpt lat="44.13648" lon="2.96135">
        <ele>555</ele>
        <time>2013-12-12T16:14:39Z</time>
      </trkpt>
      <trkpt lat="44.13653" lon="2.96135">
        <ele>555</ele>
        <time>2013-12-12T16:14:42Z</time>
      </trkpt>
      <trkpt lat="44.13659" lon="2.96133">
        <ele>557</ele>
        <time>2013-12-12T16:14:49Z</time>
      </trkpt>
      <trkpt lat="44.13665" lon="2.96131">
        <ele>559</ele>
        <time>2013-12-12T16:14:52Z</time>
      </trkpt>
      <trkpt lat="44.13671" lon="2.96128">
        <ele>559</ele>
        <time>2013-12-12T16:14:55Z</time>
      </trkpt>
      <trkpt lat="44.13675" lon="2.96128">
        <ele>560</ele>
        <time>2013-12-12T16:14:59Z</time>
      </trkpt>
      <trkpt lat="44.13681" lon="2.96132">
        <ele>560</ele>
        <time>2013-12-12T16:15:08Z</time>
      </trkpt>
      <trkpt lat="44.13686" lon="2.96135">
        <ele>559</ele>
        <time>2013-12-12T16:15:13Z</time>
      </trkpt>
      <trkpt lat="44.13692" lon="2.96137">
        <ele>559</ele>
        <time>2013-12-12T16:15:17Z</time>
      </trkpt>
      <trkpt lat="44.13697" lon="2.96137">
        <ele>558</ele>
        <time>2013-12-12T16:15:23Z</time>
      </trkpt>
      <trkpt lat="44.13702" lon="2.96136">
        <ele>558</ele>
        <time>2013-12-12T16:15:28Z</time>
      </trkpt>
      <trkpt lat="44.13707" lon="2.96137">
        <ele>558</ele>
        <time>2013-12-12T16:15:31Z</time>
      </trkpt>
      <trkpt lat="44.13712" lon="2.96138">
        <ele>558</ele>
        <time>2013-12-12T16:15:33Z</time>
      </trkpt>
      <trkpt lat="44.13718" lon="2.9614">
        <ele>559</ele>
        <time>2013-12-12T16:15:36Z</time>
      </trkpt>
      <trkpt lat="44.13723" lon="2.96143">
        <ele>560</ele>
        <time>2013-12-12T16:15:43Z</time>
      </trkpt>
      <trkpt lat="44.13728" lon="2.96147">
        <ele>560</ele>
        <time>2013-12-12T16:15:48Z</time>
      </trkpt>
      <trkpt lat="44.13733" lon="2.96148">
        <ele>560</ele>
        <time>2013-12-12T16:15:51Z</time>
      </trkpt>
      <trkpt lat="44.13736" lon="2.96153">
        <ele>560</ele>
        <time>2013-12-12T16:15:55Z</time>
      </trkpt>
      <trkpt lat="44.13741" lon="2.96154">
        <ele>561</ele>
        <time>2013-12-12T16:16:00Z</time>
      </trkpt>
      <trkpt lat="44.13747" lon="2.96158">
        <ele>561</ele>
        <time>2013-12-12T16:16:03Z</time>
      </trkpt>
      <trkpt lat="44.13752" lon="2.96158">
        <ele>561</ele>
        <time>2013-12-12T16:16:05Z</time>
      </trkpt>
      <trkpt lat="44.13757" lon="2.9616">
        <ele>561</ele>
        <time>2013-12-12T16:16:08Z</time>
      </trkpt>
      <trkpt lat="44.13763" lon="2.96171">
        <ele>560</ele>
        <time>2013-12-12T16:16:16Z</time>
      </trkpt>
      <trkpt lat="44.13772" lon="2.96175">
        <ele>560</ele>
        <time>2013-12-12T16:16:23Z</time>
      </trkpt>
      <trkpt lat="44.13781" lon="2.96176">
        <ele>561</ele>
        <time>2013-12-12T16:16:26Z</time>
      </trkpt>
      <trkpt lat="44.13786" lon="2.96177">
        <ele>561</ele>
        <time>2013-12-12T16:16:28Z</time>
      </trkpt>
      <trkpt lat="44.1379" lon="2.96181">
        <ele>561</ele>
        <time>2013-12-12T16:16:31Z</time>
      </trkpt>
      <trkpt lat="44.13796" lon="2.9618">
        <ele>561</ele>
        <time>2013-12-12T16:16:41Z</time>
      </trkpt>
      <trkpt lat="44.13801" lon="2.96182">
        <ele>561</ele>
        <time>2013-12-12T16:16:47Z</time>
      </trkpt>
      <trkpt lat="44.13805" lon="2.96185">
        <ele>560</ele>
        <time>2013-12-12T16:16:52Z</time>
      </trkpt>
      <trkpt lat="44.1381" lon="2.96188">
        <ele>560</ele>
        <time>2013-12-12T16:16:57Z</time>
      </trkpt>
      <trkpt lat="44.13814" lon="2.96193">
        <ele>560</ele>
        <time>2013-12-12T16:17:01Z</time>
      </trkpt>
      <trkpt lat="44.13819" lon="2.96197">
        <ele>561</ele>
        <time>2013-12-12T16:17:05Z</time>
      </trkpt>
      <trkpt lat="44.13823" lon="2.96201">
        <ele>561</ele>
        <time>2013-12-12T16:17:08Z</time>
      </trkpt>
      <trkpt lat="44.13828" lon="2.96204">
        <ele>561</ele>
        <time>2013-12-12T16:17:11Z</time>
      </trkpt>
      <trkpt lat="44.13832" lon="2.96206">
        <ele>562</ele>
        <time>2013-12-12T16:17:14Z</time>
      </trkpt>
      <trkpt lat="44.13837" lon="2.96209">
        <ele>563</ele>
        <time>2013-12-12T16:17:18Z</time>
      </trkpt>
      <trkpt lat="44.13842" lon="2.9621">
        <ele>564</ele>
        <time>2013-12-12T16:17:22Z</time>
      </trkpt>
      <trkpt lat="44.13847" lon="2.96214">
        <ele>564</ele>
        <time>2013-12-12T16:17:28Z</time>
      </trkpt>
      <trkpt lat="44.13851" lon="2.96214">
        <ele>565</ele>
        <time>2013-12-12T16:17:32Z</time>
      </trkpt>
      <trkpt lat="44.13857" lon="2.96214">
        <ele>565</ele>
        <time>2013-12-12T16:17:36Z</time>
      </trkpt>
      <trkpt lat="44.13862" lon="2.96214">
        <ele>565</ele>
        <time>2013-12-12T16:17:40Z</time>
      </trkpt>
      <trkpt lat="44.13867" lon="2.96214">
        <ele>564</ele>
        <time>2013-12-12T16:17:44Z</time>
      </trkpt>
      <trkpt lat="44.13873" lon="2.96214">
        <ele>564</ele>
        <time>2013-12-12T16:17:48Z</time>
      </trkpt>
      <trkpt lat="44.13878" lon="2.96212">
        <ele>564</ele>
        <time>2013-12-12T16:17:51Z</time>
      </trkpt>
      <trkpt lat="44.13882" lon="2.96211">
        <ele>564</ele>
        <time>2013-12-12T16:17:56Z</time>
      </trkpt>
      <trkpt lat="44.13888" lon="2.96209">
        <ele>563</ele>
        <time>2013-12-12T16:18:01Z</time>
      </trkpt>
      <trkpt lat="44.13893" lon="2.96207">
        <ele>563</ele>
        <time>2013-12-12T16:18:06Z</time>
      </trkpt>
      <trkpt lat="44.13897" lon="2.96208">
        <ele>563</ele>
        <time>2013-12-12T16:18:09Z</time>
      </trkpt>
      <trkpt lat="44.13902" lon="2.96209">
        <ele>563</ele>
        <time>2013-12-12T16:18:12Z</time>
      </trkpt>
      <trkpt lat="44.13908" lon="2.96211">
        <ele>563</ele>
        <time>2013-12-12T16:18:15Z</time>
      </trkpt>
      <trkpt lat="44.13912" lon="2.96211">
        <ele>563</ele>
        <time>2013-12-12T16:18:18Z</time>
      </trkpt>
      <trkpt lat="44.13917" lon="2.96213">
        <ele>563</ele>
        <time>2013-12-12T16:18:21Z</time>
      </trkpt>
      <trkpt lat="44.13922" lon="2.96218">
        <ele>563</ele>
        <time>2013-12-12T16:18:25Z</time>
      </trkpt>
      <trkpt lat="44.13926" lon="2.96222">
        <ele>562</ele>
        <time>2013-12-12T16:18:30Z</time>
      </trkpt>
      <trkpt lat="44.1393" lon="2.96225">
        <ele>562</ele>
        <time>2013-12-12T16:18:34Z</time>
      </trkpt>
      <trkpt lat="44.13934" lon="2.96228">
        <ele>561</ele>
        <time>2013-12-12T16:18:38Z</time>
      </trkpt>
      <trkpt lat="44.13939" lon="2.96232">
        <ele>560</ele>
        <time>2013-12-12T16:18:41Z</time>
      </trkpt>
      <trkpt lat="44.13943" lon="2.96237">
        <ele>559</ele>
        <time>2013-12-12T16:18:44Z</time>
      </trkpt>
      <trkpt lat="44.13948" lon="2.9624">
        <ele>560</ele>
        <time>2013-12-12T16:18:47Z</time>
      </trkpt>
      <trkpt lat="44.13952" lon="2.96244">
        <ele>560</ele>
        <time>2013-12-12T16:18:50Z</time>
      </trkpt>
      <trkpt lat="44.13957" lon="2.96248">
        <ele>560</ele>
        <time>2013-12-12T16:18:54Z</time>
      </trkpt>
      <trkpt lat="44.13958" lon="2.96255">
        <ele>560</ele>
        <time>2013-12-12T16:18:59Z</time>
      </trkpt>
      <trkpt lat="44.13953" lon="2.96258">
        <ele>559</ele>
        <time>2013-12-12T16:19:02Z</time>
      </trkpt>
      <trkpt lat="44.13948" lon="2.96258">
        <ele>559</ele>
        <time>2013-12-12T16:19:05Z</time>
      </trkpt>
      <trkpt lat="44.13944" lon="2.96261">
        <ele>559</ele>
        <time>2013-12-12T16:19:10Z</time>
      </trkpt>
      <trkpt lat="44.13944" lon="2.96268">
        <ele>559</ele>
        <time>2013-12-12T16:19:14Z</time>
      </trkpt>
      <trkpt lat="44.13947" lon="2.96273">
        <ele>559</ele>
        <time>2013-12-12T16:19:18Z</time>
      </trkpt>
      <trkpt lat="44.13948" lon="2.9628">
        <ele>558</ele>
        <time>2013-12-12T16:19:25Z</time>
      </trkpt>
      <trkpt lat="44.13949" lon="2.96287">
        <ele>557</ele>
        <time>2013-12-12T16:19:28Z</time>
      </trkpt>
      <trkpt lat="44.13951" lon="2.96293">
        <ele>556</ele>
        <time>2013-12-12T16:19:32Z</time>
      </trkpt>
      <trkpt lat="44.13954" lon="2.96299">
        <ele>556</ele>
        <time>2013-12-12T16:19:37Z</time>
      </trkpt>
      <trkpt lat="44.13955" lon="2.96305">
        <ele>555</ele>
        <time>2013-12-12T16:19:41Z</time>
      </trkpt>
      <trkpt lat="44.13958" lon="2.96311">
        <ele>554</ele>
        <time>2013-12-12T16:19:45Z</time>
      </trkpt>
      <trkpt lat="44.1396" lon="2.96317">
        <ele>552</ele>
        <time>2013-12-12T16:19:49Z</time>
      </trkpt>
      <trkpt lat="44.13962" lon="2.96324">
        <ele>552</ele>
        <time>2013-12-12T16:19:52Z</time>
      </trkpt>
      <trkpt lat="44.13964" lon="2.9633">
        <ele>552</ele>
        <time>2013-12-12T16:19:54Z</time>
      </trkpt>
      <trkpt lat="44.13967" lon="2.96339">
        <ele>553</ele>
        <time>2013-12-12T16:19:57Z</time>
      </trkpt>
      <trkpt lat="44.13969" lon="2.96345">
        <ele>552</ele>
        <time>2013-12-12T16:20:04Z</time>
      </trkpt>
      <trkpt lat="44.1397" lon="2.96352">
        <ele>551</ele>
        <time>2013-12-12T16:20:08Z</time>
      </trkpt>
      <trkpt lat="44.13973" lon="2.96366">
        <ele>544</ele>
        <time>2013-12-12T16:20:25Z</time>
      </trkpt>
      <trkpt lat="44.13973" lon="2.96372">
        <ele>543</ele>
        <time>2013-12-12T16:20:30Z</time>
      </trkpt>
      <trkpt lat="44.13971" lon="2.96379">
        <ele>542</ele>
        <time>2013-12-12T16:20:37Z</time>
      </trkpt>
      <trkpt lat="44.13969" lon="2.96386">
        <ele>541</ele>
        <time>2013-12-12T16:20:44Z</time>
      </trkpt>
      <trkpt lat="44.13967" lon="2.96395">
        <ele>541</ele>
        <time>2013-12-12T16:20:47Z</time>
      </trkpt>
      <trkpt lat="44.13965" lon="2.96401">
        <ele>542</ele>
        <time>2013-12-12T16:20:49Z</time>
      </trkpt>
      <trkpt lat="44.13964" lon="2.96404">
        <ele>542</ele>
        <time>2013-12-12T16:20:51Z</time>
      </trkpt>
      <trkpt lat="44.13962" lon="2.96408">
        <ele>542</ele>
        <time>2013-12-12T16:20:52Z</time>
      </trkpt>
      <trkpt lat="44.13962" lon="2.96415">
        <ele>542</ele>
        <time>2013-12-12T16:20:58Z</time>
      </trkpt>
      <trkpt lat="44.1396" lon="2.96421">
        <ele>542</ele>
        <time>2013-12-12T16:21:02Z</time>
      </trkpt>
      <trkpt lat="44.13959" lon="2.96429">
        <ele>542</ele>
        <time>2013-12-12T16:21:06Z</time>
      </trkpt>
      <trkpt lat="44.13961" lon="2.96439">
        <ele>542</ele>
        <time>2013-12-12T16:21:11Z</time>
      </trkpt>
    </trkseg>
  </trk>
</gpx>